GFSCGP_700_spd_000.txt.gz
Wind_Speed
2 4 4 7 4 3 7 10 10 10 12 20 13 15 7 14 12 11 11 6 9 13 13 14 11 17 16 18 22 22 25 25 24 23 26 28 28 27 27 27 28 29 26 24
3 3 3 7 5 5 10 14 10 14 15 15 10 14 8 7 8 12 12 7 6 4 4 8 11 13 15 15 15 26 24 20 22 32 29 32 33 30 29 27 29 31 32 31
3 1 6 10 9 10 11 14 14 17 19 3 15 5 8 8 12 14 14 11 9 11 13 14 15 19 17 17 24 32 36 27 28 38 37 43 40 35 31 29 31 33 36 36
2 6 12 7 10 12 13 12 14 18 13 5 16 4 7 9 12 15 12 14 16 12 14 20 26 31 27 28 30 39 41 34 34 40 40 43 46 44 37 34 35 37 39 40
2 6 12 12 10 10 18 19 19 12 5 4 16 3 3 11 15 16 13 14 13 15 17 23 26 26 26 29 33 37 39 36 35 33 38 46 50 44 42 38 37 41 45 45
7 6 7 11 10 14 14 18 8 1 2 2 4 17 2 15 9 13 11 9 11 17 21 22 24 25 27 30 34 38 38 39 36 34 37 48 42 41 40 37 38 42 49 48
5 2 4 10 18 6 18 20 8 4 4 4 13 12 8 12 13 6 6 9 15 14 18 23 26 32 33 33 39 33 33 32 37 37 46 41 37 38 37 38 41 42 45 53
5 4 9 12 15 13 13 18 5 1 0 8 9 3 5 7 21 18 12 16 16 21 26 30 31 32 34 34 31 30 37 34 36 48 51 42 40 41 40 41 44 45 39 48
8 2 7 11 11 8 7 14 7 3 3 2 7 3 8 9 19 19 9 29 21 25 32 39 40 40 37 30 29 31 38 44 52 59 50 47 46 41 41 45 45 44 41 40
6 8 6 10 2 6 6 10 5 7 2 3 7 14 15 13 24 19 34 34 36 30 32 39 41 39 38 40 41 43 48 52 52 48 49 49 48 50 48 47 41 37 35 36
10 6 9 5 3 6 5 6 8 6 5 3 2 8 19 31 19 37 34 30 27 28 32 28 28 28 33 39 45 54 50 48 49 50 50 52 53 52 49 43 33 33 33 37
10 5 12 9 7 6 2 10 20 9 7 21 22 29 21 9 36 32 21 17 29 30 32 38 38 39 42 50 56 46 48 48 48 49 53 54 53 51 42 36 33 36 31 34
11 6 7 1 4 3 14 19 25 26 14 15 10 12 26 29 31 29 23 27 33 34 34 38 43 48 51 47 47 49 46 49 53 54 53 53 53 48 42 37 33 31 29 26
14 10 10 10 13 15 23 27 27 27 20 25 33 38 24 26 22 23 23 29 34 36 38 39 49 46 43 46 44 45 49 52 54 52 50 49 45 42 38 36 34 32 32 33
14 17 18 23 20 20 29 31 28 31 27 28 28 30 36 30 22 27 35 38 40 44 46 44 49 42 47 46 44 50 51 51 53 52 49 44 35 39 37 37 37 37 29 27
21 22 20 28 26 22 31 30 18 15 17 27 36 35 26 30 33 33 37 44 43 49 49 47 43 48 40 45 48 48 51 51 51 49 42 30 29 36 37 34 34 34 34 32
26 21 13 11 18 21 26 11 19 23 27 26 26 33 37 38 37 39 45 47 49 45 41 40 40 42 45 47 50 52 51 51 49 39 27 22 23 27 31 36 35 34 34 36
19 15 16 15 20 4 18 25 26 26 21 26 31 35 38 38 47 48 51 45 47 40 32 35 40 43 46 49 51 53 51 47 37 28 25 22 22 24 28 28 31 32 37 40
11 13 14 8 9 22 30 18 14 22 27 29 21 29 38 45 51 49 49 45 39 37 33 34 38 44 49 51 52 51 47 34 29 29 28 26 26 27 24 24 36 39 40 40
16 17 17 22 12 6 26 26 21 16 31 21 41 50 46 45 47 51 52 41 32 30 35 38 43 50 52 51 48 44 35 29 29 30 28 27 26 29 33 34 38 38 37 36
16 17 23 27 24 18 34 25 16 15 32 49 44 38 42 46 44 53 45 42 42 34 36 43 49 48 48 45 41 32 33 31 28 25 26 29 31 32 34 34 34 34 33 33
21 16 22 20 13 15 18 16 28 45 56 51 45 46 44 48 53 57 44 33 35 39 45 46 47 46 42 37 29 25 27 26 29 31 30 31 32 32 32 31 31 32 33 34
28 28 31 30 35 40 44 43 40 40 42 44 45 47 52 48 54 31 27 33 42 42 46 48 47 43 35 31 26 25 29 28 27 29 31 30 30 30 30 31 31 32 33 34
32 34 39 43 46 43 38 35 34 38 41 45 47 52 50 53 40 32 36 42 45 47 48 47 43 34 28 30 26 28 24 26 30 30 28 28 29 29 30 30 33 32 32 32
43 35 43 44 37 37 36 37 41 43 45 48 50 40 48 33 25 40 42 44 45 46 46 41 34 24 26 33 31 26 23 29 28 26 26 28 30 30 31 31 31 31 31 32
42 42 37 46 36 42 44 43 44 45 44 45 37 28 17 30 42 43 42 43 46 46 43 34 30 31 29 28 24 23 27 28 25 24 27 30 31 32 31 30 28 29 30 29

GFSCGP_700_spd_003.txt.gz
Wind_Speed
5 1 3 7 9 6 7 11 13 7 9 20 16 16 11 11 12 4 6 7 4 10 11 10 7 5 9 10 16 17 17 25 28 29 31 31 32 29 31 32 32 30 27 27
2 1 2 8 8 7 8 11 15 11 12 15 8 9 11 10 4 3 5 4 1 2 6 7 8 13 11 10 15 15 21 28 28 29 32 35 38 34 36 34 31 31 32 32
3 3 7 7 7 9 9 10 13 16 17 5 11 2 9 9 4 6 5 3 4 8 9 10 13 17 17 15 14 21 27 32 34 33 35 36 41 38 41 35 31 32 34 36
3 4 8 6 9 12 11 14 15 15 13 2 8 2 10 6 6 9 10 9 8 10 12 16 21 24 28 28 31 32 33 35 38 37 41 40 42 41 47 42 36 35 35 36
2 2 6 7 11 15 16 14 15 13 7 4 6 2 8 9 7 11 12 12 10 15 20 24 27 30 31 31 31 33 35 36 35 37 38 39 42 42 50 44 42 40 40 42
1 1 3 6 12 8 12 12 4 1 2 1 3 13 9 11 9 8 8 7 13 17 21 24 26 28 31 30 33 35 36 36 39 39 39 38 44 50 50 43 43 45 44 43
1 1 3 8 13 4 14 9 3 3 3 4 7 6 3 9 16 9 5 5 16 18 19 23 27 31 29 29 29 32 35 36 38 41 43 47 49 45 43 45 45 44 45 47
5 2 6 10 10 8 12 13 5 3 1 7 10 1 4 9 19 9 7 18 19 17 21 27 24 28 27 25 30 36 37 37 42 48 52 47 45 45 45 46 47 49 50 48
7 3 6 7 9 5 4 7 7 1 1 3 7 1 8 14 15 7 18 25 19 23 23 19 27 28 29 33 35 40 44 48 53 49 46 48 47 46 49 50 50 49 45 40
8 4 7 7 5 4 4 4 4 6 2 3 7 16 14 14 22 31 27 20 19 16 17 26 28 31 34 36 38 44 52 53 48 48 45 47 51 53 53 51 48 40 32 28
8 5 7 0 4 4 2 2 4 2 2 3 2 8 11 24 26 22 25 20 16 22 30 33 36 37 36 40 44 49 48 47 47 47 49 50 53 56 58 54 47 33 30 31
10 2 7 4 2 5 6 6 12 4 5 12 16 17 5 9 23 26 25 29 28 30 31 35 39 41 43 44 45 45 47 48 45 46 48 53 54 53 52 50 42 33 32 33
11 5 5 2 6 10 15 21 13 21 18 14 9 10 8 23 25 32 33 32 32 32 37 40 40 45 50 47 44 46 43 42 45 50 52 54 53 50 48 39 33 34 36 36
15 9 10 10 12 19 28 27 26 25 18 19 30 37 28 25 36 29 27 31 32 38 42 47 48 46 45 42 40 40 44 45 51 55 55 54 51 46 34 30 35 36 37 35
11 17 21 22 21 22 29 30 27 29 28 24 30 29 35 33 32 29 32 37 40 45 51 53 48 43 41 39 40 43 45 52 55 54 53 51 44 32 28 33 36 36 35 34
17 19 21 30 22 15 29 30 16 15 21 24 29 35 28 34 34 32 35 43 51 52 50 48 43 38 39 38 42 46 51 53 54 55 50 40 29 26 26 26 26 26 25 27
22 19 9 10 19 18 23 5 21 24 28 33 35 28 31 32 36 46 51 51 52 51 50 51 46 37 33 39 46 47 49 51 53 50 40 30 28 24 28 31 33 33 29 31
18 18 15 14 19 3 17 26 30 28 23 25 25 29 25 42 49 50 44 48 50 49 51 47 37 35 40 43 47 50 50 49 45 37 33 32 30 29 28 30 31 30 33 38
12 14 14 11 13 22 34 22 22 24 30 34 27 24 38 53 49 47 47 44 52 51 52 40 38 44 43 46 49 49 46 41 34 34 33 30 27 28 30 33 36 36 37 40
14 16 19 22 12 6 27 27 24 25 33 21 21 37 52 49 46 48 44 47 50 41 45 35 42 45 44 48 48 43 39 33 29 28 31 34 36 35 32 32 35 36 36 35
17 17 22 29 29 21 28 23 21 17 19 35 47 44 47 45 45 47 49 56 47 34 43 40 41 46 48 46 41 34 34 34 32 33 33 30 32 32 32 33 35 35 35 35
21 17 25 18 12 15 22 26 30 42 48 43 41 45 47 48 50 46 57 35 31 41 39 40 43 45 45 40 35 33 34 34 35 30 30 32 32 32 32 33 34 34 34 34
28 31 30 22 25 44 46 47 37 36 38 41 42 45 44 52 51 42 31 33 43 41 40 43 45 44 40 34 32 31 31 34 29 27 33 32 31 31 33 34 34 34 34 34
27 32 37 33 44 38 38 39 31 32 37 40 44 43 48 50 36 32 39 39 41 42 41 43 42 40 34 29 28 38 38 27 26 32 32 30 30 33 35 35 35 34 34 33
36 40 37 43 37 41 37 39 41 42 36 35 43 45 34 31 32 43 43 44 42 42 42 43 41 37 32 29 28 24 22 25 30 31 30 30 34 36 35 34 33 32 32 33
36 39 37 39 41 36 39 44 37 32 45 44 43 34 30 34 37 38 40 39 40 42 42 41 37 35 32 28 25 23 25 28 31 28 29 33 36 36 33 30 29 30 31 31

GFSCGP_700_spd_006.txt.gz
Wind_Speed
4 2 4 7 8 6 7 10 13 12 11 18 16 12 8 5 8 6 4 5 6 9 13 14 12 6 7 7 12 18 18 22 26 29 28 27 29 30 30 31 32 34 31 30
4 1 4 6 7 7 9 11 12 9 11 15 8 3 7 8 6 2 2 2 5 6 10 10 10 11 16 16 10 14 15 21 27 30 33 32 31 31 31 34 35 37 36 35
2 4 6 4 5 7 9 7 13 14 14 7 8 2 3 3 2 4 4 2 3 6 7 7 12 15 19 19 16 17 22 27 28 30 31 33 35 38 39 39 41 45 43 36
5 2 4 6 9 12 11 12 14 13 10 1 8 3 10 4 2 5 6 4 6 8 9 12 17 22 22 23 22 25 25 26 29 32 34 36 39 41 43 45 48 48 39 38
3 1 4 7 9 12 10 13 15 11 5 2 3 1 3 8 6 6 7 6 8 11 17 23 22 22 23 23 24 25 26 29 33 33 35 38 40 44 51 49 45 44 45 44
1 3 3 4 10 11 13 13 5 3 2 2 2 10 4 4 7 8 4 3 6 15 20 18 20 25 24 23 26 27 27 30 33 34 36 39 45 48 45 45 46 46 47 47
1 2 3 6 9 5 10 7 3 3 4 3 5 6 2 3 1 2 1 7 12 16 20 21 25 27 23 25 27 28 30 33 36 36 41 45 42 42 44 46 47 45 46 48
4 1 4 6 9 7 10 10 5 2 1 6 5 4 5 4 1 2 8 12 18 22 20 22 26 22 27 26 29 31 34 36 38 42 40 40 45 47 46 43 46 50 50 50
6 2 4 8 3 4 4 5 6 1 2 3 5 3 7 18 10 10 20 24 21 16 17 21 20 25 25 28 31 35 41 44 45 44 45 47 47 43 45 49 51 52 50 50
7 1 5 3 2 3 2 1 2 4 2 3 7 13 8 17 20 26 31 24 18 14 16 24 25 27 31 37 43 48 50 53 53 49 47 42 44 50 53 55 56 54 51 47
7 3 4 2 3 2 2 2 1 2 2 3 2 6 9 17 23 26 25 27 29 29 27 29 31 35 41 49 52 56 53 48 44 41 41 45 51 56 57 55 55 53 47 39
10 3 6 7 5 3 5 4 7 2 2 8 11 19 18 12 23 30 28 36 34 29 29 34 38 44 47 51 52 50 46 42 39 41 46 51 56 54 57 55 51 47 39 32
12 5 6 5 4 5 8 12 20 16 15 12 8 12 15 16 28 29 29 26 28 32 36 40 44 49 49 45 46 44 42 40 40 45 51 51 56 56 54 50 43 36 32 32
15 6 6 7 14 20 26 24 26 25 17 17 30 35 29 23 27 26 28 28 30 36 44 47 46 44 46 45 42 42 38 39 46 50 52 56 58 56 48 42 33 30 33 32
9 11 15 19 18 20 25 26 25 24 28 25 30 27 29 34 29 29 30 34 45 45 43 48 49 49 48 47 51 45 40 45 47 51 54 56 54 47 38 30 30 27 28 29
17 14 20 25 18 16 30 31 20 8 20 27 28 34 33 28 29 26 33 47 49 46 49 50 51 55 50 45 38 41 45 49 53 54 54 50 43 37 33 32 30 30 29 23
17 16 14 17 21 20 23 5 12 25 22 24 32 31 30 30 34 33 42 52 51 48 50 42 55 47 36 40 42 44 47 52 54 52 47 38 38 33 34 32 32 33 34 35
14 15 14 13 19 2 17 18 29 26 20 28 27 30 35 37 36 39 48 50 52 47 53 50 47 35 39 43 46 47 49 51 50 43 39 37 33 32 35 37 35 33 33 34
9 14 13 10 11 21 32 23 20 29 33 28 29 31 34 34 43 47 52 49 32 48 47 30 34 39 42 44 47 50 50 48 44 37 35 34 36 35 31 30 31 31 32 34
19 15 18 17 9 5 23 25 23 23 32 18 20 23 44 39 42 47 47 48 48 51 34 39 44 46 43 45 46 45 45 42 37 38 38 35 32 31 31 31 31 32 35 36
17 18 23 26 20 22 27 17 16 16 21 33 43 41 36 37 41 44 37 56 48 34 45 47 43 41 43 45 44 42 40 40 37 35 35 29 31 33 32 31 34 36 36 36
22 18 25 16 10 11 6 20 31 38 44 45 48 42 41 40 38 44 41 39 35 42 44 43 43 44 45 45 42 38 37 32 37 38 29 31 34 33 32 34 37 38 36 36
23 26 23 21 24 41 46 47 32 38 41 41 46 39 32 44 37 31 29 32 37 40 45 40 41 43 44 44 40 36 33 33 29 27 30 34 32 32 34 38 38 36 35 34
33 24 31 34 39 34 29 32 32 36 38 41 39 33 39 36 30 31 30 34 39 44 41 41 42 43 42 40 36 33 30 28 28 29 32 33 32 33 37 38 35 34 33 33
31 40 37 37 33 37 32 34 36 36 38 33 40 32 29 33 30 34 35 36 39 40 38 41 43 43 41 38 36 33 29 28 28 30 31 32 34 37 37 34 31 31 33 35
32 29 35 40 30 38 33 35 34 39 42 39 27 34 30 30 33 34 37 43 41 39 39 44 46 42 40 39 36 32 29 26 27 28 30 32 35 36 34 30 28 30 32 35

GFSCGP_700_spd_009.txt.gz
Wind_Speed
2 2 1 2 4 2 2 5 7 8 6 10 9 8 4 1 5 8 7 7 7 12 13 12 12 10 6 9 8 10 13 16 17 21 24 25 25 24 25 28 30 32 35 37
5 2 1 2 3 4 6 6 7 5 7 10 5 1 3 7 6 6 4 4 7 8 6 7 7 9 12 13 8 6 11 14 18 22 25 28 30 30 31 33 36 39 42 41
5 5 3 2 2 4 7 5 10 12 11 6 3 3 1 3 5 4 2 1 2 3 3 5 9 12 15 14 11 9 12 16 21 25 27 29 32 35 37 37 39 42 41 39
4 3 0 4 7 8 8 9 12 13 7 2 2 4 6 3 3 1 1 2 5 4 6 8 13 14 14 16 14 14 17 22 26 29 31 33 36 37 39 43 47 43 42 44
3 2 4 6 7 11 7 14 13 8 4 5 1 1 2 5 2 1 4 5 5 6 9 15 14 16 19 18 15 17 22 26 29 32 35 38 40 41 44 48 44 43 46 46
2 2 3 5 10 10 12 12 3 3 4 3 2 3 1 2 3 3 4 4 5 9 14 17 18 20 20 22 21 25 29 31 34 37 40 41 45 48 49 44 45 46 43 43
1 1 2 7 7 5 9 6 1 1 2 1 3 5 4 3 3 4 7 6 9 13 16 20 20 22 22 24 26 30 32 35 38 41 45 47 49 50 47 45 42 46 49 50
3 1 3 5 8 6 11 10 4 1 2 5 9 1 4 8 6 8 5 10 16 21 22 19 22 24 28 29 34 36 35 37 44 48 49 45 41 41 41 39 43 49 52 52
4 2 3 6 3 5 5 5 6 3 4 3 4 0 6 13 12 8 14 20 17 15 15 18 22 26 31 34 35 37 44 44 45 46 43 40 40 41 41 43 47 49 49 48
5 1 2 2 1 3 3 3 3 4 2 3 7 7 6 10 16 16 22 21 20 20 19 22 25 28 32 38 44 49 49 50 48 47 45 44 41 41 43 45 49 52 51 50
7 3 2 2 3 3 2 2 1 2 1 2 3 7 13 19 24 18 25 26 29 27 25 27 30 35 41 46 50 49 47 48 48 47 46 46 46 46 50 52 54 54 50 43
9 2 3 5 2 1 2 4 5 2 3 6 8 18 8 7 16 22 31 31 26 27 28 29 36 41 43 40 40 45 44 44 45 47 47 41 48 51 53 55 56 52 44 34
10 4 4 1 3 5 5 10 15 10 9 12 5 11 18 27 29 25 28 24 23 21 28 36 37 38 42 43 42 47 43 43 42 38 42 44 50 53 54 53 46 38 31 29
11 5 5 7 9 15 21 20 18 15 11 14 28 31 27 23 19 26 23 23 22 30 38 42 42 43 46 43 50 43 37 37 40 43 47 52 54 52 47 42 36 32 30 29
7 9 13 14 15 17 21 22 21 23 25 18 25 26 26 24 26 25 31 33 36 39 43 47 46 45 47 49 40 32 35 41 44 45 49 51 49 45 41 38 34 33 30 31
16 11 15 20 12 14 27 30 17 5 9 18 21 27 28 28 27 32 35 35 39 44 48 48 47 49 51 38 33 39 42 44 45 48 49 47 42 37 37 36 36 37 35 33
15 10 11 11 13 18 22 1 12 18 25 23 23 27 29 29 31 32 36 41 47 49 45 48 41 46 35 40 45 41 42 45 46 46 45 41 36 36 38 38 34 32 31 30
13 14 12 11 16 2 15 22 28 27 16 22 26 29 31 35 30 32 44 43 42 44 41 40 36 37 40 42 42 42 43 45 45 44 41 38 36 37 36 31 30 29 29 30
9 11 12 6 7 18 27 12 16 19 30 23 27 27 28 36 35 49 45 39 39 31 42 37 38 40 41 41 43 45 46 45 43 41 41 36 36 36 31 31 31 29 31 34
14 15 17 12 7 5 16 22 25 23 25 16 19 30 42 42 47 39 27 31 25 27 29 36 37 38 39 41 43 44 44 43 41 39 38 36 35 31 33 32 31 33 37 38
16 19 20 17 12 18 21 15 14 12 18 32 33 38 43 38 33 26 35 30 24 28 30 33 35 37 39 41 43 44 43 40 38 35 36 31 30 34 33 32 34 37 38 36
24 16 20 11 8 9 10 24 33 39 44 34 35 41 33 26 32 34 28 35 27 28 33 36 38 41 40 42 43 43 40 37 35 32 30 29 31 32 32 34 37 38 34 33
19 17 17 16 24 29 35 35 35 36 40 35 34 28 32 39 38 32 32 26 30 32 37 40 41 40 39 42 42 41 37 36 34 30 28 29 31 31 33 36 37 33 32 33
33 30 30 34 32 33 32 30 34 32 28 35 35 39 39 34 36 31 33 37 37 39 42 42 39 39 40 41 39 37 37 36 34 29 27 29 29 31 34 35 34 32 32 34
37 33 31 34 33 33 32 31 36 31 32 37 41 37 31 31 33 37 39 39 42 43 41 39 39 41 42 43 38 35 34 33 30 25 27 27 29 33 33 32 31 31 32 35
21 28 25 34 34 32 34 35 27 30 40 38 32 28 32 37 37 38 42 46 44 39 38 40 41 43 43 41 36 34 31 29 24 24 25 27 30 31 30 28 28 29 31 35

GFSCGP_700_spd_012.txt.gz
Wind_Speed
4 3 4 2 2 4 2 1 2 4 7 2 3 3 5 4 8 12 11 12 14 18 16 15 13 13 12 11 11 13 15 16 18 18 20 23 25 26 27 27 29 32 34 36
2 2 2 1 0 1 3 3 2 4 4 5 3 2 2 3 7 10 8 9 8 10 12 12 11 12 12 13 13 12 13 16 17 21 24 27 29 30 32 35 35 37 40 42
6 5 4 2 2 3 6 2 4 5 8 4 2 3 3 5 7 7 4 4 7 9 9 9 10 11 14 15 16 17 17 18 21 24 27 31 35 37 38 39 40 41 43 47
6 6 3 1 4 4 4 6 11 9 4 5 8 6 3 6 5 5 5 7 8 8 7 7 10 14 15 18 18 16 19 23 26 28 31 34 38 40 42 45 47 49 51 48
4 4 0 2 5 8 4 11 10 6 5 4 4 6 4 6 4 4 8 9 8 7 8 11 14 16 18 18 18 20 23 27 29 32 35 39 40 44 50 54 54 54 48 44
4 2 1 4 8 7 8 9 3 2 3 5 2 4 6 5 3 2 10 11 11 12 12 14 17 18 20 21 21 22 25 29 31 37 39 42 44 49 52 50 49 48 46 39
3 1 2 4 4 5 8 3 3 2 3 1 3 5 3 5 8 9 11 12 13 13 15 19 20 20 23 25 25 27 29 35 42 43 46 51 51 51 49 49 48 48 44 46
2 2 2 5 4 2 8 7 3 3 2 4 4 4 5 9 9 11 12 12 14 18 19 17 19 23 26 28 29 33 37 39 43 48 47 45 46 47 47 48 48 48 48 45
2 2 2 5 4 5 4 4 4 2 4 3 2 2 7 10 8 12 12 16 19 17 20 23 24 26 29 32 36 37 42 44 43 44 47 47 46 45 45 47 47 44 48 54
3 2 2 2 4 4 2 2 2 3 2 4 4 10 10 9 8 17 19 19 21 24 23 22 23 26 28 32 37 38 40 43 44 44 44 44 45 45 44 42 48 52 54 54
4 1 3 2 2 2 2 1 0 0 2 3 4 8 7 5 12 13 17 24 30 29 28 27 24 26 32 35 38 42 43 42 44 40 37 38 38 42 44 47 51 53 50 45
4 1 2 4 5 5 5 4 3 3 2 5 5 14 10 3 16 21 23 28 27 30 23 29 30 35 39 42 40 42 45 39 33 31 33 40 43 46 48 51 50 43 38 34
5 2 2 2 4 7 5 5 10 13 9 11 7 7 12 20 21 20 21 25 30 28 30 31 36 42 44 43 42 41 36 33 33 37 43 45 47 49 50 48 41 35 32 26
6 4 4 5 7 10 10 11 11 11 10 14 22 25 21 18 19 19 20 26 26 28 33 39 43 42 40 39 37 37 36 38 39 39 43 47 48 48 46 40 36 35 32 27
4 7 11 12 13 19 18 16 15 20 22 18 20 20 20 20 22 27 27 26 28 33 39 43 42 36 34 34 35 36 36 38 42 45 47 47 47 44 39 36 35 37 35 32
10 8 14 16 14 17 22 26 19 9 13 18 19 22 16 27 30 28 29 32 33 41 41 43 36 31 34 37 36 35 38 41 43 45 46 46 44 41 36 35 36 34 31 29
10 8 9 8 12 25 13 4 6 13 15 13 15 15 25 24 24 27 34 38 42 42 39 35 31 35 37 37 35 36 39 41 43 44 44 43 40 37 34 34 31 29 30 29
8 10 9 8 13 4 6 18 23 15 14 12 16 20 24 24 24 30 42 38 39 36 34 29 31 36 33 32 36 38 38 40 42 42 42 41 39 35 35 30 31 30 30 31
6 7 7 3 6 22 15 4 8 14 20 21 21 19 30 30 37 28 41 39 31 35 30 33 29 29 33 35 37 39 41 43 43 42 40 37 36 35 30 32 33 32 33 35
6 8 9 8 5 5 4 17 19 15 16 13 23 35 38 33 39 37 32 33 40 33 31 28 29 33 36 37 40 42 44 44 43 40 37 35 34 33 31 33 33 34 36 36
11 13 12 10 10 12 16 14 12 12 14 33 35 36 26 28 27 30 35 30 28 26 30 31 35 38 40 41 41 43 44 44 43 38 36 34 33 30 31 32 33 35 35 34
12 7 8 6 8 7 6 21 18 28 32 36 37 31 29 33 34 27 27 24 26 31 34 37 40 42 41 41 43 43 43 38 37 36 35 33 30 28 30 32 33 34 34 32
15 11 12 13 17 22 28 24 32 32 30 33 33 31 37 31 26 27 30 32 35 38 41 45 46 44 40 41 43 43 41 38 35 34 31 33 26 28 29 32 32 32 31 33
24 23 27 27 30 19 25 25 33 33 33 36 25 35 30 27 29 33 34 35 38 42 47 48 42 41 41 43 44 42 41 32 36 34 31 24 26 26 28 30 30 30 31 33
28 28 32 28 26 23 21 31 36 33 29 29 38 32 27 29 32 35 37 40 45 47 44 40 42 44 46 46 45 41 36 32 31 27 21 23 24 26 26 27 26 27 30 34
28 24 28 29 25 27 30 31 27 37 34 31 29 26 28 33 37 38 41 46 45 41 40 42 43 44 45 45 39 35 31 29 25 18 20 22 24 24 23 22 24 27 29 34

GFSCGP_700_spd_015.txt.gz
Wind_Speed
5 8 1 2 3 4 1 3 4 3 7 4 8 7 7 4 1 7 8 10 11 12 20 27 20 20 20 19 18 17 17 19 21 23 22 24 25 29 32 35 39 38 40 42
4 4 2 4 2 1 2 4 3 6 4 3 6 6 3 2 7 7 7 8 11 15 16 20 20 18 15 12 12 14 15 16 19 23 24 26 29 32 35 38 41 41 45 44
2 5 5 2 2 2 4 4 4 7 9 11 9 11 7 5 7 9 11 11 10 9 6 13 13 13 13 15 17 19 22 23 22 25 29 31 33 36 38 40 42 43 46 51
3 6 2 1 2 4 7 4 9 10 8 8 9 5 10 8 8 9 9 8 7 6 7 9 11 12 15 17 20 23 24 24 25 29 33 34 37 40 41 44 49 53 55 53
3 2 1 2 3 5 5 10 8 7 8 9 10 12 12 11 8 5 6 5 4 10 11 12 14 16 18 21 24 26 27 29 30 33 35 38 42 45 46 51 55 52 52 51
5 3 1 2 5 3 5 7 6 4 4 6 2 8 10 9 8 6 6 4 4 10 15 16 17 21 25 25 24 25 27 30 33 33 39 44 47 50 50 50 51 51 51 51
4 1 2 2 3 4 7 6 6 3 4 1 2 7 4 4 6 7 5 3 6 15 15 16 17 13 22 27 27 27 27 30 38 44 45 47 49 47 47 47 48 49 51 51
5 6 2 5 2 3 6 4 4 4 3 6 3 6 8 6 4 6 5 5 9 17 18 20 21 22 24 29 31 32 33 33 39 44 46 45 45 46 47 47 46 47 47 46
1 2 1 3 4 4 4 3 1 1 2 3 6 4 6 8 5 3 3 3 5 6 9 11 13 15 29 31 33 34 34 35 40 42 42 42 41 42 42 43 43 44 46 50
1 2 2 4 4 5 2 1 4 3 3 4 3 12 6 7 6 6 7 9 11 12 13 16 18 21 27 33 34 40 44 45 45 40 37 38 39 40 42 44 47 50 52 53
2 1 1 4 1 3 4 2 3 5 4 4 5 7 4 5 7 7 10 14 16 15 16 19 22 24 27 27 33 38 41 41 36 36 40 40 41 44 46 49 50 52 50 46
2 0 1 2 6 4 2 3 4 4 4 6 7 15 6 2 8 12 14 14 17 18 16 19 23 25 29 36 42 42 37 33 35 36 37 39 43 46 46 49 50 50 45 34
2 1 3 3 1 2 3 5 6 6 7 12 11 11 8 11 16 13 15 17 16 15 22 26 28 34 37 41 42 34 34 38 36 36 38 40 41 45 46 47 45 44 39 35
1 1 2 7 9 10 11 13 13 13 14 16 20 23 19 16 18 15 16 15 18 24 29 31 40 41 44 34 29 36 36 35 36 38 40 42 43 45 45 43 40 37 35 36
2 2 5 9 12 13 15 17 17 19 20 23 24 22 21 21 15 15 16 16 22 22 30 40 41 38 32 26 35 37 34 35 38 40 41 40 41 41 38 39 38 37 37 33
5 4 10 14 11 14 18 21 19 18 14 18 18 18 16 12 17 18 23 26 31 42 40 38 35 31 29 31 30 28 35 40 40 40 36 32 36 39 38 37 35 35 32 31
6 4 7 7 15 24 10 2 4 9 11 13 14 17 17 17 18 24 28 34 37 40 36 33 34 27 25 26 27 31 34 32 35 36 35 34 40 37 36 32 30 28 30 29
7 6 6 8 10 3 3 14 18 15 11 11 13 13 11 17 23 34 37 32 38 35 35 33 28 27 30 31 32 36 35 33 33 31 33 43 42 36 32 29 28 28 26 26
7 7 4 3 8 19 12 3 4 13 14 15 10 11 19 29 35 22 32 32 37 39 35 30 28 33 36 31 32 34 38 36 37 31 34 39 38 29 33 30 28 26 26 27
8 9 6 6 4 4 5 9 15 11 20 16 15 26 40 36 36 29 32 34 31 29 27 28 28 30 31 33 34 35 36 37 36 32 31 45 36 31 31 30 26 26 26 29
8 10 12 9 10 11 12 17 11 9 12 18 32 36 34 29 32 35 33 31 26 22 24 27 30 32 34 40 38 35 34 36 34 31 36 43 38 27 31 29 24 26 26 30
7 6 7 6 7 8 6 11 17 22 24 28 35 34 34 30 30 28 26 25 22 25 28 30 32 34 43 37 34 35 35 37 41 44 43 39 36 34 28 24 23 27 28 31
8 13 8 10 12 17 23 25 26 26 27 34 36 29 19 33 20 20 23 23 26 29 31 32 33 36 33 34 35 36 36 37 38 36 33 29 34 25 20 23 24 29 28 31
18 15 24 19 21 21 23 24 30 30 32 31 30 31 24 19 22 23 26 29 32 34 37 32 32 33 35 36 36 36 42 38 33 30 30 27 21 20 23 21 24 26 27 29
24 16 22 27 28 26 22 25 29 28 25 29 31 27 27 26 26 28 30 35 36 37 31 33 32 35 37 38 38 41 39 35 31 30 25 17 19 22 22 23 24 24 26 28
29 24 23 29 26 34 29 31 33 26 27 25 24 26 27 27 29 33 36 38 34 34 36 32 33 37 37 40 42 39 36 32 28 22 16 18 18 19 20 21 22 24 23 27

GFSCGP_700_spd_018.txt.gz
Wind_Speed
3 7 1 5 4 6 7 5 3 8 2 10 9 11 8 9 5 4 8 11 11 15 20 24 24 28 21 19 20 24 19 16 19 23 24 26 27 29 28 31 34 38 41 40
4 2 3 5 7 5 4 4 6 4 8 5 6 9 10 2 4 6 8 10 15 19 24 26 25 25 19 16 12 14 16 17 19 23 24 26 29 31 32 34 44 43 47 48
1 4 3 1 2 3 5 4 4 4 10 13 13 12 11 6 8 10 11 12 12 18 23 26 24 14 12 13 14 17 21 23 24 24 28 28 31 32 37 42 44 48 48 48
2 1 3 1 1 3 6 2 6 9 10 14 14 12 13 11 10 11 14 17 12 10 8 7 9 11 13 15 18 20 25 30 30 29 31 33 37 39 41 44 45 49 48 48
4 2 2 1 4 4 5 11 9 8 10 11 13 11 21 15 13 11 10 10 11 10 8 9 11 17 19 19 21 24 27 31 34 31 32 34 37 40 43 44 46 47 48 48
5 2 1 1 5 5 5 8 9 8 8 6 12 3 6 8 13 12 9 8 5 2 9 12 15 18 24 27 29 27 26 27 30 38 39 39 40 42 46 47 48 49 49 48
4 2 4 3 5 3 8 8 8 3 5 1 2 3 10 10 10 10 7 5 6 5 6 3 2 7 16 25 29 29 29 29 32 35 40 44 48 51 50 48 45 43 44 45
10 7 1 5 3 4 5 4 4 4 4 6 5 4 11 10 8 13 13 7 3 4 8 8 13 17 21 26 30 29 31 32 35 40 45 49 51 47 41 42 42 42 45 47
1 5 2 3 3 5 4 4 3 3 3 3 7 10 11 7 6 6 4 2 3 5 8 11 11 18 26 33 34 32 34 37 40 43 45 42 40 43 42 40 43 45 46 46
2 4 2 4 6 6 6 3 3 4 2 3 11 9 7 5 4 5 4 2 6 10 11 14 19 18 25 35 37 34 39 44 47 43 38 41 40 41 43 43 44 45 47 49
6 3 1 5 3 4 3 2 3 4 3 2 3 1 8 5 4 4 8 10 13 12 13 18 22 30 36 34 40 35 44 44 41 38 41 40 39 41 42 46 46 47 48 48
3 4 3 3 5 2 2 1 3 1 4 5 6 16 14 2 5 8 11 13 10 8 16 29 29 32 37 41 39 43 41 41 37 43 39 38 38 41 43 46 45 45 45 42
5 2 1 7 2 3 2 3 6 6 9 10 9 9 8 14 18 8 7 8 10 15 26 31 33 37 40 41 39 35 36 37 46 38 38 40 40 41 45 48 41 42 42 40
4 2 2 1 5 7 10 12 13 15 14 16 18 20 20 18 17 6 9 10 17 23 29 35 37 42 39 34 33 33 35 36 42 43 48 46 45 48 48 42 44 41 40 38
4 4 3 6 7 8 12 15 15 16 19 20 22 20 17 14 9 11 11 21 27 32 37 37 41 38 37 32 28 35 35 37 43 41 48 40 40 38 46 46 49 40 36 38
3 4 7 10 3 9 19 17 12 11 14 15 14 16 12 13 16 19 27 30 34 38 39 40 38 39 35 30 28 28 32 36 40 35 39 34 47 43 42 49 48 38 34 39
5 4 6 4 11 19 2 4 6 10 12 12 13 15 17 12 17 23 33 34 37 31 37 38 36 29 25 25 27 30 30 32 42 45 46 40 45 47 37 47 45 37 35 36
6 6 5 7 9 3 1 18 14 9 6 9 11 11 4 14 28 33 34 28 30 34 35 35 28 24 25 34 29 31 38 43 39 39 43 40 51 42 34 45 46 36 34 36
7 6 4 3 3 16 6 5 10 11 18 12 12 15 21 27 31 28 26 34 32 32 31 24 25 27 32 31 33 41 44 38 32 34 41 42 49 33 31 48 43 29 35 34
8 8 7 7 2 4 4 7 17 17 15 10 17 20 24 34 39 30 34 31 33 31 28 26 26 30 31 35 41 44 40 38 35 39 44 45 40 39 38 46 29 30 36 30
7 9 13 9 7 9 10 12 15 8 9 19 23 30 33 38 36 31 32 32 29 26 22 25 30 33 36 42 44 37 38 40 40 45 46 41 38 37 38 33 28 37 31 32
7 6 6 6 6 8 6 9 14 15 22 31 30 34 34 30 32 29 26 27 21 23 26 28 32 36 39 40 38 40 41 47 45 42 39 34 28 20 26 28 24 28 31 29
10 13 9 11 7 9 16 19 24 34 30 31 33 37 28 30 26 24 26 21 24 27 32 38 35 41 37 33 34 35 49 48 44 39 35 30 28 27 23 20 26 28 28 27
14 15 19 20 26 21 19 28 31 36 32 31 32 28 27 21 22 24 22 26 33 39 44 41 42 34 31 32 36 46 45 42 40 37 32 27 22 18 19 20 23 26 26 26
20 20 23 22 24 22 23 29 30 30 38 36 20 21 20 21 20 23 31 36 42 43 40 41 31 34 39 38 41 42 41 39 37 32 27 19 18 19 18 19 22 23 23 25
29 32 28 29 22 27 30 33 35 37 35 28 21 21 20 21 26 33 40 41 39 41 39 36 36 41 41 42 42 40 39 36 33 28 20 19 18 16 17 18 20 22 23 24

GFSCGP_700_spd_021.txt.gz
Wind_Speed
4 4 8 8 7 5 1 10 18 17 11 4 6 9 19 12 4 7 7 19 26 24 24 27 26 24 26 24 22 22 24 22 20 21 21 23 26 28 24 24 28 32 36 47
5 6 4 2 3 1 2 5 11 9 6 5 7 3 11 8 6 9 11 12 16 23 26 27 27 27 28 23 21 19 15 17 21 24 28 26 25 27 31 33 37 44 46 48
7 5 3 8 2 6 5 4 4 5 7 10 7 8 10 8 14 14 11 13 14 18 22 22 23 21 19 15 14 17 18 19 24 27 27 29 30 31 33 33 35 40 45 48
3 2 5 6 2 1 3 3 7 9 8 6 9 2 15 16 16 17 16 15 17 21 25 27 22 15 14 15 18 20 22 24 26 26 28 31 34 35 37 40 43 43 45 50
5 6 5 4 2 4 3 7 8 7 7 8 6 9 17 19 17 16 16 15 16 18 18 17 14 14 15 17 19 18 25 31 32 32 33 34 35 36 38 42 46 49 48 45
6 3 2 3 1 7 5 7 9 9 7 3 11 2 16 16 16 16 16 16 16 15 13 11 15 18 20 21 25 30 28 25 28 32 36 39 43 45 46 45 43 40 42 45
10 3 7 4 2 6 7 10 4 2 1 2 7 10 5 10 15 15 15 15 14 12 12 13 16 17 21 26 31 33 31 32 30 31 36 40 44 45 44 42 42 45 44 44
11 3 1 5 6 1 7 8 4 1 1 5 8 6 9 13 15 12 11 10 10 7 7 9 13 20 25 30 33 34 37 40 38 39 44 46 45 43 44 46 45 46 45 45
11 5 4 3 5 4 5 7 6 3 5 3 6 15 8 2 2 8 6 4 2 7 8 11 16 24 27 34 36 36 42 44 46 44 51 46 45 44 45 46 45 45 46 46
9 7 2 8 7 11 8 6 4 4 2 2 4 10 3 9 9 9 0 5 6 11 15 16 21 25 30 31 31 38 43 45 47 49 48 43 44 47 46 47 48 46 46 48
12 6 8 5 5 5 4 2 3 1 1 4 1 3 11 4 4 6 7 12 13 17 21 24 28 30 30 32 37 41 41 41 43 43 43 42 44 41 45 47 42 47 45 45
8 9 8 5 4 2 2 1 1 2 2 1 2 9 14 8 9 9 12 15 19 23 23 23 27 30 40 35 42 37 38 40 40 42 43 44 43 47 48 49 47 47 43 47
11 9 8 3 1 2 4 1 6 8 10 11 5 7 14 15 19 19 21 25 19 22 25 30 30 37 40 40 38 42 41 39 40 42 43 45 46 49 44 50 43 42 39 42
9 10 6 7 4 5 6 8 8 11 10 13 18 18 18 13 9 4 12 17 21 25 29 35 36 42 41 41 41 37 36 38 40 41 41 46 45 45 52 54 51 44 41 38
9 11 10 8 6 8 9 11 13 15 15 16 19 10 6 12 15 13 15 17 20 25 34 39 39 38 40 40 38 36 36 37 38 40 41 46 50 49 46 50 48 60 36 36
10 7 7 4 6 7 14 8 4 1 3 7 6 9 14 16 17 21 22 24 26 39 39 35 37 38 38 37 37 36 35 37 37 38 44 50 48 42 45 48 44 38 39 45
6 6 4 3 6 11 4 5 7 9 12 14 13 15 20 25 29 27 24 27 35 41 37 36 35 37 36 32 31 37 40 40 42 46 51 52 43 47 49 51 44 42 27 44
7 7 5 4 6 1 5 9 15 10 12 11 10 15 20 23 27 27 28 34 37 35 32 32 32 27 26 30 37 43 45 49 51 54 48 44 44 44 47 49 40 38 36 45
12 10 5 4 4 11 9 6 11 12 12 14 18 23 24 22 22 30 37 35 29 29 30 27 23 25 32 39 44 46 50 52 51 45 47 46 46 43 41 39 36 37 34 28
12 10 10 8 4 6 7 6 11 15 16 18 17 19 20 27 31 33 30 29 31 29 30 31 32 36 39 42 45 47 47 45 46 45 48 48 44 41 35 30 23 26 34 33
15 13 15 15 9 8 10 15 14 11 15 17 19 26 29 35 33 34 35 31 29 29 29 32 37 40 42 41 41 41 42 45 45 46 46 43 39 33 28 23 28 27 28 27
12 9 10 10 7 10 8 11 17 20 26 27 29 31 33 31 33 29 27 26 28 29 32 37 40 41 40 41 41 42 44 44 44 43 42 40 35 29 25 22 21 24 25 24
15 19 12 13 9 16 20 21 27 30 30 30 29 29 33 37 28 25 24 26 28 31 37 39 41 42 41 41 41 42 43 41 40 39 37 35 30 23 17 18 19 21 22 23
11 18 22 19 20 18 20 28 31 32 32 32 29 32 35 26 22 22 24 27 31 35 37 40 41 40 40 40 39 39 42 40 35 34 33 30 24 19 17 17 20 20 21 22
22 22 26 31 26 22 26 30 31 33 32 32 33 35 31 21 21 24 26 32 34 36 38 39 38 39 39 37 38 39 38 35 31 30 29 25 21 19 16 17 18 20 20 21
25 28 30 35 34 32 32 30 30 30 33 36 35 28 19 21 23 26 31 32 35 38 39 38 37 38 38 37 39 39 37 35 31 29 24 22 20 18 16 16 17 19 19 19

GFSCGP_700_spd_024.txt.gz
Wind_Speed
12 5 5 4 6 4 2 8 13 18 14 13 7 3 15 15 17 17 18 18 23 21 25 26 28 24 22 21 21 22 24 25 20 15 17 19 23 26 29 32 32 34 35 37
4 7 9 8 6 6 7 14 15 14 14 5 3 11 18 19 18 15 15 14 17 23 27 28 25 22 22 21 27 22 22 16 14 16 19 21 23 26 27 29 32 36 38 39
7 10 9 8 6 9 7 14 15 7 4 1 2 13 15 13 17 16 14 12 14 22 25 26 24 25 26 21 14 18 18 18 21 24 27 28 27 27 30 32 34 35 37 41
8 8 8 8 5 4 4 3 1 4 7 2 3 6 17 19 17 17 17 17 18 20 19 19 19 21 17 16 18 18 20 23 25 28 26 24 26 26 27 30 35 38 41 44
8 8 8 4 2 2 2 3 2 5 3 2 4 6 16 18 18 18 17 19 19 17 18 20 19 16 18 22 24 24 24 28 27 28 29 31 34 36 39 42 41 41 41 42
7 2 4 3 4 7 2 2 3 4 3 2 8 7 24 21 18 15 13 13 14 18 17 14 12 14 15 18 17 24 27 30 33 35 35 37 37 41 46 44 43 42 43 46
7 3 5 4 8 7 3 2 2 3 2 3 4 4 5 18 19 18 20 18 17 15 16 16 18 24 24 21 25 31 33 35 38 43 44 44 43 45 49 47 44 46 43 43
6 3 2 4 6 4 6 7 4 4 2 3 1 5 6 10 19 18 14 13 6 15 18 19 16 19 20 25 26 31 33 35 39 46 46 45 45 45 44 44 49 45 44 46
8 5 4 6 6 6 4 7 6 4 2 1 4 11 9 8 10 11 15 18 8 10 14 14 15 18 21 22 25 29 34 39 46 46 43 44 43 43 45 46 44 43 43 45
10 8 7 10 10 8 7 7 2 3 2 1 2 6 6 12 8 10 7 12 13 13 12 15 18 20 23 27 28 33 42 41 42 42 44 42 41 44 46 47 45 44 42 49
12 6 10 7 5 6 6 4 3 2 1 4 2 3 3 13 13 14 12 10 7 12 15 16 22 25 30 31 34 44 45 42 43 42 41 41 44 45 46 48 48 48 49 50
11 10 10 7 4 5 4 4 3 2 3 3 1 4 5 4 12 17 11 15 18 22 26 31 24 27 34 39 42 46 40 42 42 40 40 42 45 47 49 50 51 54 46 47
14 10 10 5 5 6 4 5 4 5 7 9 4 4 8 9 15 20 21 24 25 25 28 24 26 31 37 41 42 41 41 41 40 39 40 43 46 48 49 54 55 52 39 42
14 16 9 10 6 7 8 9 8 8 8 12 19 17 16 21 22 21 21 21 22 23 24 27 30 38 38 39 40 39 40 39 40 41 43 45 46 47 49 57 55 46 42 47
12 13 11 10 10 10 12 11 11 14 16 12 18 17 17 18 18 19 20 21 23 24 25 30 37 39 38 37 39 42 40 42 43 45 45 43 47 52 55 42 45 49 50 46
14 10 14 12 13 12 11 12 10 7 8 10 10 11 15 18 18 18 20 22 24 28 32 36 39 37 37 41 41 40 41 41 43 44 45 50 54 50 43 42 45 47 47 45
11 11 11 7 12 11 13 13 11 9 11 16 21 24 24 22 20 20 22 26 26 32 37 38 36 39 39 38 38 39 39 43 47 49 51 51 42 44 44 44 41 38 36 33
11 10 9 5 7 1 8 10 9 11 12 17 18 19 19 20 23 26 29 29 32 37 37 36 35 36 34 36 37 39 43 46 48 48 42 41 42 43 41 41 36 31 24 20
16 13 8 5 8 10 10 16 12 9 13 19 20 22 23 25 27 26 28 34 36 34 32 33 32 32 34 36 39 42 45 46 42 40 39 40 42 41 39 38 33 28 22 29
18 17 16 10 5 6 8 13 13 12 20 9 11 17 20 21 26 31 37 35 34 30 31 31 30 34 36 37 40 43 41 40 40 40 41 42 41 39 38 34 30 28 27 21
16 17 20 19 11 10 15 16 15 10 12 16 19 17 20 26 30 30 32 35 32 29 30 30 33 34 36 40 41 40 38 38 39 42 42 40 38 37 33 29 23 18 18 21
11 10 14 14 10 12 15 17 18 19 25 24 24 22 25 30 29 32 33 28 27 27 28 32 34 36 38 39 39 38 38 39 39 37 37 35 34 33 28 22 19 18 19 21
17 21 15 16 10 15 21 25 25 26 26 28 25 26 28 30 33 31 29 27 25 26 30 32 35 37 37 38 38 40 39 38 36 35 35 34 32 27 23 21 19 18 18 21
21 20 22 24 26 26 25 27 25 26 28 28 28 30 32 30 31 31 23 22 25 28 30 32 35 36 36 36 38 38 37 37 35 33 33 32 28 24 21 21 19 18 19 21
20 19 25 30 31 31 29 27 26 30 31 29 32 33 32 37 31 21 20 24 27 29 31 34 35 35 34 36 37 35 36 37 35 32 32 29 26 23 22 20 18 18 18 19
26 27 31 35 30 33 35 34 31 28 28 30 32 38 35 26 19 20 23 28 29 31 33 34 33 33 33 35 37 36 36 35 32 31 30 27 23 22 21 20 19 19 19 19

GFSCGP_700_spd_027.txt.gz
Wind_Speed
12 7 4 5 4 6 5 10 14 10 15 15 11 11 11 21 19 16 17 18 19 20 22 21 20 19 15 15 18 19 19 21 23 17 17 20 21 25 26 27 29 30 32 35
7 6 5 5 4 4 3 3 13 13 11 10 8 11 15 25 24 20 21 23 25 27 27 27 23 19 20 21 19 21 21 17 16 17 20 22 24 23 24 26 28 31 35 39
4 7 7 7 4 4 13 12 17 14 10 4 8 13 14 17 19 20 18 19 20 22 24 24 20 19 18 19 18 14 13 13 14 16 19 21 23 24 26 29 29 33 37 40
8 10 10 9 7 2 10 12 9 6 7 6 11 4 8 13 16 16 16 16 16 17 18 11 12 8 9 9 10 12 14 17 20 18 17 18 21 26 29 33 38 41 43 44
8 8 7 6 6 5 5 6 4 4 3 5 3 5 12 17 18 18 17 14 13 11 9 8 7 8 6 8 14 13 16 21 24 27 31 33 36 37 39 40 42 44 46 46
11 7 6 6 6 6 7 7 7 6 3 2 2 5 17 26 25 22 18 15 12 12 10 8 7 9 10 14 16 19 23 27 31 36 39 41 43 41 40 42 45 46 46 48
9 4 3 8 8 4 4 8 3 1 1 4 1 3 5 24 20 19 17 14 13 8 8 12 15 24 21 27 27 25 28 30 33 39 42 42 41 41 43 44 46 46 46 46
7 4 5 6 10 5 3 3 4 5 3 3 1 1 2 18 17 19 16 15 15 11 11 19 30 25 24 28 25 26 29 33 35 42 48 44 43 45 45 45 45 46 45 44
7 5 4 5 9 8 3 3 4 5 3 2 2 3 3 5 16 20 16 12 16 27 27 24 23 23 26 23 24 29 34 39 42 46 48 44 45 44 43 44 45 45 46 46
10 7 10 8 7 7 6 5 1 2 2 1 3 6 6 18 18 16 18 22 22 19 19 21 23 24 24 28 29 31 36 41 44 46 43 42 41 42 43 43 45 49 50 49
13 8 11 10 5 7 7 2 2 3 2 5 1 5 12 14 19 17 17 17 16 16 18 21 24 27 31 29 29 35 42 44 43 41 40 39 41 43 44 46 48 52 54 53
14 8 13 9 8 7 6 4 3 1 3 4 2 5 11 10 14 17 19 18 17 19 21 24 27 28 30 29 35 39 41 41 40 40 39 41 43 45 46 49 51 52 57 60
13 9 10 5 6 10 8 9 7 5 4 7 2 4 10 13 16 18 20 22 24 25 28 28 27 27 29 33 39 41 39 39 38 39 43 44 45 47 47 50 54 59 56 49
15 11 12 13 5 10 11 12 11 10 8 13 19 17 14 18 20 22 24 25 24 23 25 27 28 31 34 38 38 37 38 38 41 43 44 44 46 46 52 56 55 49 46 44
13 10 18 11 10 10 11 13 15 17 17 15 17 19 17 22 25 25 24 22 23 25 26 28 31 36 38 38 37 37 39 42 43 43 44 46 49 51 51 49 48 43 41 39
14 8 14 13 14 15 17 18 19 20 22 21 21 22 16 18 19 23 23 24 26 27 29 34 34 37 38 39 37 38 41 42 42 43 45 47 48 46 46 45 42 39 37 33
14 13 9 8 14 15 16 22 24 19 17 16 19 17 19 22 23 24 25 25 26 29 31 34 40 39 38 36 37 39 41 41 43 46 47 46 46 45 45 42 39 37 33 27
9 11 10 6 7 1 16 16 15 18 19 19 19 19 18 17 19 23 25 26 28 31 36 41 39 36 34 35 38 39 40 43 45 47 46 47 46 45 42 38 37 35 31 27
14 14 10 6 12 14 14 15 18 18 20 17 18 17 17 20 22 24 24 27 31 37 35 35 35 31 33 35 37 39 42 43 44 44 45 44 44 41 38 35 35 34 29 24
19 19 17 10 5 6 9 11 16 21 23 18 9 15 17 20 24 22 26 31 35 33 35 32 29 31 34 36 38 40 42 42 42 42 41 41 41 38 36 34 33 29 24 21
15 16 20 23 14 11 19 18 16 15 16 11 19 19 20 21 22 26 31 34 35 34 30 28 29 33 35 37 39 40 39 40 39 37 38 38 38 36 35 33 30 25 23 21
15 9 12 14 12 14 19 19 20 17 16 25 24 23 21 19 24 31 31 37 34 25 25 27 31 33 36 38 39 38 38 38 37 36 37 38 37 36 34 30 26 24 22 22
19 21 16 16 12 17 18 17 21 24 26 28 26 25 25 24 28 32 34 32 21 21 24 30 32 34 36 37 38 37 37 38 37 38 39 38 36 34 32 28 25 24 22 21
20 19 25 27 27 27 27 27 31 33 30 26 27 29 29 26 32 28 39 24 19 23 28 31 32 34 36 36 36 35 36 36 37 37 36 35 34 33 29 26 24 22 21 21
19 22 26 30 28 29 31 32 32 30 29 29 34 29 28 33 28 31 20 19 22 26 30 32 33 35 36 36 34 35 35 37 38 36 34 34 33 30 26 24 23 22 21 20
26 27 29 32 27 30 30 29 30 32 34 33 28 28 25 37 25 18 18 21 25 30 32 33 33 35 36 35 34 34 35 37 38 37 35 32 30 27 25 23 22 22 21 20

GFSCGP_700_spd_030.txt.gz
Wind_Speed
10 11 10 8 7 4 3 5 9 10 14 10 13 11 10 12 18 17 15 15 17 16 17 18 18 17 17 17 18 20 22 20 19 20 18 14 15 19 23 27 28 30 31 34
11 12 8 7 4 4 2 3 1 7 10 14 14 14 14 14 18 20 18 18 21 22 22 23 22 20 21 16 13 13 16 16 13 11 15 20 23 24 24 25 28 32 36 39
8 7 7 4 5 2 5 6 10 9 10 8 9 11 11 14 18 21 20 23 24 25 25 22 18 12 14 16 14 11 9 11 14 17 19 19 21 22 26 28 30 33 36 39
6 6 4 5 4 3 9 8 5 6 6 4 8 6 12 14 19 22 23 21 16 14 12 9 6 8 9 4 4 8 10 11 12 15 20 27 30 33 36 36 36 38 41 44
7 6 5 6 6 5 7 8 7 6 5 5 8 5 10 14 16 17 18 15 11 8 8 6 5 8 5 1 8 12 15 20 23 26 28 35 35 39 41 38 40 42 44 45
9 9 6 6 6 6 7 8 7 5 3 2 4 8 9 18 20 19 17 13 11 11 9 15 11 5 6 17 22 23 22 23 26 28 32 35 39 43 39 39 41 42 44 45
9 6 7 8 8 5 5 6 0 1 1 4 3 6 11 15 19 18 16 15 14 13 12 11 12 17 28 19 16 20 23 26 27 32 36 39 42 40 38 40 42 43 45 47
9 4 6 7 9 4 4 8 5 5 3 3 3 5 5 9 20 17 16 16 18 13 10 16 26 29 26 19 22 25 28 29 31 35 40 42 41 40 41 43 46 48 49 49
8 6 6 7 12 7 5 4 5 2 1 1 3 6 8 8 21 19 23 23 17 13 19 26 24 20 23 26 27 28 30 29 32 38 42 40 41 43 44 47 48 48 49 52
7 5 7 6 8 9 7 6 2 2 2 3 4 7 12 9 13 20 23 20 15 17 19 21 21 22 24 27 29 33 34 30 35 42 41 40 41 42 44 45 48 50 52 54
12 10 9 8 5 8 9 5 3 3 2 4 1 5 8 12 12 12 14 16 18 19 19 20 22 25 26 29 33 31 31 32 38 38 38 39 40 42 44 47 48 50 53 56
13 9 8 14 9 10 9 8 7 3 4 4 2 7 7 9 12 14 15 18 20 22 23 24 25 27 28 32 29 33 37 40 34 37 37 39 41 44 45 48 52 55 55 51
14 8 7 5 10 14 12 12 10 8 5 8 4 5 5 9 12 15 20 21 24 25 24 25 26 26 28 31 36 39 36 33 34 36 38 41 43 45 49 51 52 51 50 48
15 12 11 15 5 10 15 15 14 13 7 7 17 20 18 16 14 16 20 23 25 25 26 25 26 28 33 37 37 35 34 34 36 39 42 44 47 49 50 50 50 48 46 43
12 13 16 15 11 10 13 15 16 18 18 16 21 22 15 16 17 20 22 25 27 27 26 27 28 30 35 35 35 34 36 37 39 42 44 46 49 49 49 49 48 45 41 37
13 10 13 16 16 14 17 18 20 22 25 26 25 25 18 15 15 18 18 20 24 26 27 27 29 34 35 33 34 35 36 38 40 43 46 48 48 48 49 48 46 41 38 35
13 11 10 7 14 17 19 25 26 28 29 27 26 18 18 18 18 18 19 20 23 26 26 28 32 36 34 34 34 34 36 39 42 45 46 46 47 47 47 45 42 40 35 34
9 9 9 6 7 2 18 20 17 20 25 28 25 22 19 19 18 18 19 21 24 25 27 30 34 35 35 32 32 35 38 40 43 44 44 45 46 44 42 41 39 37 33 31
11 10 7 6 10 18 18 20 21 22 20 21 23 22 19 17 19 21 21 22 25 27 29 35 35 33 30 31 32 36 38 41 42 43 44 44 43 41 40 39 37 35 32 29
13 15 15 11 6 6 12 13 15 18 27 26 23 17 14 19 23 19 18 22 25 29 35 38 35 28 30 31 34 36 39 41 42 42 42 41 40 41 40 38 36 34 30 27
12 13 17 19 15 10 20 21 20 13 19 12 12 14 25 26 24 21 21 24 27 35 33 30 29 28 29 33 35 38 40 41 40 39 39 39 40 39 37 36 35 32 29 26
15 9 11 10 9 11 14 16 16 15 15 19 21 27 29 27 26 27 23 25 31 34 27 26 24 27 31 35 38 39 40 39 38 38 38 39 39 38 36 36 35 30 26 25
16 19 15 13 11 16 21 26 25 21 22 27 30 29 28 27 26 26 26 31 31 27 21 22 24 29 33 36 38 38 39 38 38 37 38 39 39 37 36 35 33 28 26 24
19 18 23 25 25 24 25 27 27 28 30 30 29 29 29 28 27 27 32 31 28 17 19 22 27 32 34 36 37 38 38 38 38 38 38 39 38 37 34 33 29 26 25 24
16 21 26 29 28 28 26 26 26 28 29 28 29 29 30 32 28 31 31 32 18 18 19 25 30 33 35 36 37 38 38 38 38 39 39 38 38 36 33 30 28 25 24 23
23 24 26 30 24 26 26 27 28 29 30 32 32 31 28 25 31 30 36 19 16 16 24 29 32 35 35 36 37 38 39 38 38 38 38 37 36 34 32 28 27 25 23 22

GFSCGP_700_spd_033.txt.gz
Wind_Speed
7 9 13 13 10 6 6 7 6 10 10 13 8 9 8 5 6 15 15 14 13 14 14 16 17 18 19 19 22 27 17 20 14 6 6 10 11 15 17 19 20 24 29 33
9 10 11 10 8 5 5 4 2 8 15 14 13 11 10 8 10 14 20 18 17 16 18 19 19 20 21 22 24 9 10 8 7 10 11 10 11 14 18 22 26 29 31 32
12 12 10 8 7 5 4 3 5 5 8 11 10 11 12 13 12 15 22 21 20 20 21 22 17 11 10 13 15 7 7 12 12 10 9 13 18 22 26 30 33 31 31 33
9 11 9 6 5 3 4 4 3 6 7 4 9 6 13 15 15 16 21 22 21 20 17 10 9 8 10 9 6 4 5 10 16 16 16 20 24 28 32 35 36 34 36 39
9 9 7 6 3 2 3 4 5 5 7 6 9 5 14 18 20 21 22 23 19 14 10 9 8 8 7 7 2 12 22 27 21 22 23 25 29 32 36 38 36 36 39 40
12 10 7 3 2 3 3 6 6 5 3 2 9 9 11 16 19 23 22 19 15 12 10 11 5 6 5 8 15 27 18 14 18 23 25 28 32 36 38 37 37 38 40 42
11 8 5 5 6 5 5 6 1 1 0 3 7 7 17 10 11 14 17 17 16 15 15 11 6 7 13 21 15 17 17 18 23 26 27 30 34 37 37 38 39 41 45 46
9 4 6 7 10 5 6 10 5 4 3 1 6 6 6 8 11 11 13 15 17 18 15 8 11 14 13 12 15 19 20 24 26 30 28 32 36 37 37 40 43 45 47 47
9 6 9 7 10 9 6 6 8 3 1 2 5 8 11 11 9 15 19 20 19 17 12 13 13 15 15 19 19 21 23 26 30 29 31 35 38 38 39 42 44 46 47 49
7 6 9 8 9 12 9 5 3 4 3 3 3 8 10 4 6 14 20 20 20 17 13 14 17 18 20 22 23 24 25 27 33 34 38 37 36 38 41 43 44 46 48 49
11 8 8 8 8 10 10 10 5 4 3 3 1 5 3 2 6 7 11 16 15 15 16 18 21 23 24 25 25 27 28 33 37 39 35 35 38 40 42 43 45 46 48 49
14 9 9 14 9 9 11 11 9 5 5 5 2 7 3 3 4 11 13 14 16 19 20 23 25 25 25 28 30 30 37 40 38 32 36 37 38 40 42 43 45 47 49 49
15 10 7 4 10 14 15 16 14 12 8 9 4 4 4 10 9 9 16 20 21 23 24 26 26 26 26 28 29 34 38 37 31 32 34 37 39 40 43 45 46 47 48 47
14 16 12 14 7 8 19 21 18 16 10 11 19 20 18 15 14 11 13 18 22 24 25 25 26 25 26 30 32 35 36 32 32 33 36 38 40 43 44 46 46 46 46 44
15 15 18 17 14 12 13 14 19 22 22 19 23 23 18 17 17 14 15 19 22 24 25 26 26 27 28 30 35 34 32 33 33 34 37 39 42 44 45 45 45 44 44 41
16 11 13 16 18 17 18 18 19 22 24 28 29 30 21 17 15 15 14 16 18 22 26 27 27 26 30 32 34 33 32 32 33 35 38 41 42 43 44 44 43 43 42 39
15 13 10 8 13 16 17 26 26 27 28 29 31 27 23 19 19 17 17 16 16 19 24 26 25 29 29 33 30 31 31 32 34 36 39 41 42 42 43 43 43 42 40 36
10 11 10 6 6 2 15 18 17 19 19 22 25 28 25 23 21 19 15 17 18 21 24 24 26 29 31 33 33 30 31 33 35 37 39 41 42 42 42 41 41 39 38 35
10 9 6 4 8 15 16 16 21 23 23 21 23 19 19 21 20 15 17 19 18 20 21 24 30 29 32 33 29 29 30 34 36 38 40 41 42 41 40 39 38 37 36 34
15 14 12 9 5 5 5 12 17 20 23 19 14 16 17 15 16 20 22 18 18 20 22 26 29 31 30 28 27 28 32 35 37 39 40 41 41 40 39 38 38 36 35 32
8 10 14 17 11 9 11 15 16 9 11 11 12 10 13 19 27 28 23 21 20 20 25 28 31 26 25 23 25 29 33 36 38 39 40 39 39 39 38 38 37 35 34 30
10 6 7 8 7 7 4 6 8 14 21 19 17 21 25 26 26 24 23 22 22 25 29 34 25 22 19 22 27 32 35 37 37 39 39 38 37 38 38 37 36 33 32 27
13 14 11 11 9 14 20 22 19 20 21 20 23 26 27 26 27 25 22 25 27 30 35 26 21 15 18 25 30 36 36 37 38 38 38 37 37 37 36 35 34 32 29 26
15 15 20 21 20 20 23 23 23 22 21 21 25 26 27 29 29 29 32 30 30 32 28 20 12 15 23 28 34 35 35 37 37 37 37 37 36 36 34 33 32 30 27 24
16 20 23 25 22 22 21 23 24 24 24 25 24 25 27 27 27 30 32 37 30 35 19 10 13 19 25 30 32 33 35 36 35 36 35 34 34 34 32 32 30 28 25 23
19 18 20 22 22 26 26 26 27 27 26 28 28 28 27 25 24 28 35 31 36 17 7 11 16 22 27 29 30 32 34 34 35 33 32 33 33 33 32 30 28 25 23 22

GFSCGP_700_spd_036.txt.gz
Wind_Speed
10 6 11 16 11 2 7 8 10 10 16 12 11 11 8 9 15 18 18 18 17 16 14 17 19 19 19 21 22 23 26 24 25 14 9 2 3 6 8 12 16 20 25 27
8 9 13 13 9 6 8 9 8 15 14 13 12 11 14 10 12 18 23 22 21 19 17 16 17 18 21 23 25 24 15 9 5 5 7 4 7 8 10 14 19 24 28 28
7 9 9 8 7 6 6 5 5 6 19 17 11 12 17 16 13 13 17 26 25 22 21 19 19 20 21 20 17 15 6 2 3 10 15 12 10 13 16 20 25 28 30 33
7 9 9 9 7 8 6 6 5 5 11 10 17 12 15 19 16 14 17 24 27 24 20 19 17 14 12 12 12 3 2 12 17 16 13 12 16 20 23 27 31 33 34 36
9 12 11 8 7 7 5 5 5 6 8 6 9 11 7 11 16 18 20 21 26 23 19 15 13 12 10 11 10 8 11 21 16 13 15 19 21 24 27 31 34 34 36 37
13 13 11 8 7 6 5 5 4 5 5 10 10 10 15 12 12 19 20 20 21 19 15 13 14 12 9 7 11 16 19 15 15 17 21 23 27 27 31 34 36 37 38 38
11 11 10 7 5 5 6 6 4 4 5 6 4 8 18 12 11 12 13 18 18 16 15 15 13 6 6 11 13 9 11 16 19 21 24 29 29 32 34 38 36 37 38 41
14 7 8 8 9 5 7 7 5 4 3 2 4 7 3 7 10 15 12 13 17 17 17 15 10 9 11 12 11 13 16 18 22 25 28 29 32 34 37 35 37 39 41 43
11 6 10 7 7 7 6 6 9 3 5 3 7 8 12 14 11 9 16 19 19 18 18 15 13 13 12 14 16 18 21 24 26 30 32 29 33 37 35 35 38 40 42 44
10 4 8 8 8 10 9 6 3 6 3 4 4 7 4 4 4 9 14 17 19 20 20 18 16 16 16 18 20 23 25 28 33 31 35 38 37 34 34 37 39 41 42 43
9 9 6 10 9 9 13 11 9 5 3 2 3 1 2 2 3 4 5 12 18 20 21 21 19 18 21 23 25 26 28 30 33 36 41 39 33 33 35 37 39 41 42 43
13 9 7 10 12 13 14 11 12 8 5 5 2 5 3 1 5 7 10 13 19 22 23 24 23 23 25 27 28 29 32 37 36 36 40 32 31 33 35 37 39 41 43 44
15 10 8 4 9 13 13 16 16 15 10 9 4 4 6 9 12 9 11 18 20 21 23 26 26 28 30 31 30 34 38 35 36 37 30 30 33 34 36 38 40 42 43 43
13 16 14 17 9 7 10 21 21 16 9 10 15 14 16 17 14 13 12 16 20 24 27 29 31 32 33 33 35 37 34 34 34 29 31 32 34 35 38 40 41 42 42 42
14 12 20 21 17 15 15 13 17 22 21 14 18 17 15 15 19 18 18 17 20 23 25 28 31 32 33 34 35 34 33 32 31 30 30 32 35 37 40 41 41 41 40 41
17 12 16 18 20 20 20 20 19 19 20 25 24 27 21 22 17 18 17 17 18 21 24 26 30 31 33 33 35 33 31 32 31 30 30 33 36 38 39 39 40 40 40 40
18 18 13 8 14 15 16 24 26 26 27 27 23 22 22 25 21 19 19 18 17 18 20 24 28 30 31 34 34 31 32 28 28 28 31 34 36 38 38 39 39 40 39 39
14 16 12 6 4 3 12 14 14 17 17 20 21 23 26 26 21 19 18 17 15 18 21 24 26 28 31 34 33 33 30 26 26 29 32 35 37 38 38 39 39 39 38 37
13 12 7 5 7 12 16 16 16 15 15 18 20 21 21 17 15 18 17 17 20 21 21 23 25 28 32 35 32 33 26 23 27 30 34 36 37 38 39 39 39 37 36 36
15 14 12 7 4 4 5 9 12 15 11 5 7 10 11 12 15 11 19 24 23 21 20 22 25 30 34 35 36 28 18 23 27 33 35 35 37 39 39 39 37 36 35 35
11 13 16 15 9 7 12 13 11 3 4 14 20 16 13 13 17 24 27 24 22 22 19 19 26 33 38 39 28 16 19 24 30 34 33 35 38 39 38 37 36 35 34 33
7 6 7 7 6 5 1 4 6 11 19 18 17 16 19 21 26 26 25 26 24 24 25 26 28 35 40 27 17 16 22 27 31 32 34 37 38 38 37 35 34 33 32 31
9 11 8 7 4 11 16 13 16 21 23 22 20 20 24 25 27 27 27 29 29 29 35 36 33 34 37 22 14 20 23 28 29 31 34 37 38 36 33 32 32 31 31 30
11 12 14 14 13 13 19 19 21 22 23 22 23 25 27 30 33 32 31 30 32 34 36 34 38 29 25 15 18 20 25 27 29 31 34 36 34 33 32 33 32 31 30 29
13 16 17 18 16 17 19 21 24 24 25 27 28 27 28 29 31 32 32 31 31 35 39 35 28 13 12 16 17 21 24 26 28 31 33 33 32 32 31 31 30 29 28 27
17 17 16 19 19 22 23 25 26 25 25 25 26 27 27 27 27 28 29 30 32 38 35 27 13 11 12 16 19 22 24 26 29 31 31 32 31 31 31 30 29 29 26 25

GFSCGP_700_spd_039.txt.gz
Wind_Speed
3 6 14 16 15 8 5 8 13 14 12 14 14 9 14 18 18 17 17 17 17 18 18 20 21 23 24 25 17 20 21 25 24 21 11 6 5 4 13 13 14 16 19 23
12 11 11 13 9 5 7 8 9 9 11 13 13 13 14 16 19 18 18 19 20 20 23 22 23 23 23 24 22 23 21 21 11 6 5 6 4 8 12 15 16 20 23 26
12 6 10 10 6 6 7 6 5 7 13 12 11 17 18 17 15 19 20 20 20 22 22 23 23 23 23 23 22 20 16 12 8 9 11 12 10 12 16 17 20 23 25 28
10 9 8 7 8 8 12 7 4 3 14 21 19 21 23 21 22 21 21 23 21 21 19 24 23 23 21 20 17 15 12 10 9 10 12 11 11 14 19 22 26 28 29 32
4 6 8 9 4 10 3 4 5 9 15 10 13 12 24 19 19 19 19 18 21 20 22 22 22 19 17 16 14 13 10 13 15 12 11 12 16 20 21 23 29 31 36 36
10 7 7 4 10 6 6 2 5 8 12 11 18 20 9 17 15 16 16 18 19 21 21 22 19 18 18 14 12 12 15 17 14 14 16 17 19 22 26 27 31 34 32 34
12 10 10 7 5 5 6 9 13 7 5 9 2 8 18 6 4 10 14 14 18 19 20 21 20 19 15 13 12 15 15 16 16 18 20 22 24 26 30 25 34 32 33 36
17 10 13 10 11 6 9 12 9 6 7 7 4 9 4 7 8 7 13 13 16 18 20 20 19 18 16 14 15 17 18 20 20 21 24 27 30 35 30 35 32 33 35 37
20 7 12 10 7 6 7 8 5 6 7 8 16 12 7 9 10 8 12 16 16 17 19 20 20 19 18 17 18 18 22 24 23 25 29 30 35 35 40 37 34 36 37 38
6 4 7 8 7 9 9 4 4 7 3 7 5 8 4 3 6 8 13 16 17 17 19 20 21 20 21 21 21 22 25 29 28 30 32 35 36 37 41 35 34 35 37 38
14 13 5 6 10 13 7 11 9 6 5 4 4 3 5 2 5 8 12 16 18 19 20 21 24 24 24 25 25 26 29 32 32 34 37 38 35 38 34 32 34 36 37 39
15 11 13 12 11 13 11 11 12 10 8 7 5 10 4 3 2 4 9 15 18 20 21 22 24 29 28 28 29 31 33 35 36 39 41 38 34 32 33 33 35 36 38 39
13 12 15 12 11 14 13 13 13 13 9 12 5 5 3 7 11 9 8 13 17 20 23 24 27 31 31 32 33 35 35 37 37 42 42 35 33 32 32 34 35 37 39 40
15 16 15 17 13 5 12 14 15 17 14 16 19 16 11 11 10 10 11 13 17 20 25 26 30 31 33 35 37 38 38 37 40 42 33 30 33 33 32 34 36 38 39 41
15 13 15 19 13 10 11 12 13 19 23 23 20 18 16 15 15 15 15 16 18 21 24 30 32 34 36 38 39 40 38 38 40 40 30 31 32 30 32 35 38 39 40 41
18 12 13 12 14 14 17 19 19 19 21 23 25 25 20 21 17 16 15 18 18 20 22 26 28 32 36 40 39 38 38 39 42 37 33 29 28 29 33 37 38 39 41 41
11 12 10 10 8 8 14 21 23 23 22 21 23 23 18 16 16 16 15 17 17 18 22 24 26 30 35 37 37 37 38 43 41 34 31 28 28 29 35 36 37 39 40 40
15 12 11 7 4 2 11 13 14 12 15 18 20 19 20 19 17 19 14 13 17 17 18 21 26 30 33 35 37 37 43 43 39 33 27 26 28 31 35 37 39 40 39 39
15 13 8 5 9 12 14 12 12 7 5 6 8 10 11 14 15 17 14 15 15 18 22 25 27 31 33 36 36 39 41 43 40 27 23 27 27 33 35 37 39 39 39 37
15 15 11 8 4 4 3 8 9 8 6 3 6 8 13 20 13 12 18 19 23 27 27 25 27 28 30 33 38 42 44 48 30 21 22 24 29 33 34 36 37 37 37 35
15 16 15 11 7 7 10 13 10 5 4 9 16 22 18 12 12 19 23 29 29 28 27 26 25 26 30 37 41 44 46 42 27 20 21 25 30 32 35 36 34 35 36 36
7 8 9 9 7 6 7 2 1 7 16 21 21 20 22 20 26 26 28 29 29 28 31 31 29 34 39 42 46 41 31 27 19 18 22 27 31 33 34 34 34 35 35 34
6 9 5 7 3 10 8 14 15 19 22 23 24 23 23 24 27 31 32 33 32 33 35 36 38 41 41 50 42 36 23 17 16 20 24 28 30 33 34 35 35 34 32 31
12 12 12 11 4 6 11 18 15 20 21 23 25 25 26 27 28 24 33 32 31 33 37 38 40 43 42 38 28 21 20 16 18 22 25 29 31 32 33 33 34 34 31 29
10 11 9 13 12 14 6 14 20 23 25 26 25 27 26 26 27 30 31 32 34 34 34 36 36 40 39 35 23 19 16 16 20 24 28 29 30 32 32 33 33 33 30 28
16 12 13 8 17 18 19 27 26 27 26 25 26 28 28 27 28 30 31 30 31 31 35 37 35 33 24 17 18 17 17 20 24 27 28 30 31 32 33 34 33 31 30 29

GFSCGP_700_spd_042.txt.gz
Wind_Speed
3 6 9 7 12 11 8 15 14 13 13 12 13 13 12 16 16 16 17 18 20 21 25 25 21 21 20 17 10 14 16 18 21 22 18 9 9 13 8 10 11 16 18 20
10 9 7 8 16 16 13 8 6 14 10 13 16 14 14 20 22 21 19 18 18 20 21 24 19 24 25 24 19 19 21 21 23 15 9 9 11 9 8 11 14 18 21 23
15 10 8 12 12 10 8 12 9 4 8 11 13 16 18 18 19 19 20 19 19 20 25 25 22 25 28 30 21 22 23 22 17 13 11 12 12 12 12 12 16 20 21 25
12 12 12 13 12 7 6 6 8 12 16 12 7 15 27 17 19 23 26 25 25 23 27 31 30 29 30 29 26 25 25 18 16 15 15 13 13 15 18 19 21 20 22 25
3 18 12 14 6 6 3 11 9 16 12 10 12 12 25 27 28 28 27 25 24 25 30 28 28 28 28 26 27 24 18 16 14 17 16 12 15 16 18 19 25 30 28 35
11 8 11 9 6 4 3 4 10 11 15 12 18 23 22 26 26 23 20 25 26 29 27 26 25 26 25 22 20 18 15 16 15 16 16 15 18 22 22 26 30 25 31 30
9 13 7 5 4 6 6 11 6 10 11 4 10 8 9 12 15 15 20 23 18 22 27 26 29 31 22 19 19 16 15 20 17 16 18 19 22 23 27 28 32 37 34 31
17 13 15 10 11 5 10 13 3 2 5 8 4 6 4 11 7 6 15 16 19 25 25 26 25 22 20 18 17 16 19 22 20 21 21 24 26 27 28 30 34 32 32 31
9 4 5 0 8 4 6 5 0 10 3 5 11 20 5 3 6 4 10 15 18 16 19 21 22 23 21 20 19 18 22 24 23 24 26 28 28 31 33 36 37 28 30 32
14 8 15 11 12 9 9 7 5 4 2 4 10 13 14 6 4 6 10 15 16 15 18 20 22 24 23 22 24 22 25 27 26 27 29 31 34 36 36 41 36 30 32 31
11 19 11 8 9 10 7 9 10 9 7 1 4 4 7 4 4 4 9 14 17 16 18 19 23 25 26 26 28 25 26 30 32 32 32 35 38 39 43 42 32 31 30 33
17 12 8 12 7 8 10 9 10 11 8 5 5 12 4 3 2 4 7 13 16 18 18 21 22 26 27 29 32 30 28 33 34 34 36 38 43 40 44 39 32 31 31 35
13 11 12 14 9 8 16 14 14 13 9 11 5 5 4 6 9 7 7 10 15 19 20 22 25 28 28 31 34 34 33 35 38 37 36 39 42 42 47 33 32 31 33 36
17 11 14 12 15 8 9 11 14 15 12 14 21 20 13 12 12 9 12 10 13 18 19 22 27 27 30 35 35 35 37 36 39 36 36 39 47 40 42 30 30 30 33 36
19 16 16 18 18 13 12 12 10 14 17 20 21 18 16 15 11 8 9 12 14 15 20 20 27 29 34 40 36 37 39 40 37 36 36 41 42 44 32 29 28 29 32 35
18 13 13 13 11 15 16 18 20 21 20 20 20 22 18 17 16 20 15 17 15 17 21 28 29 34 38 34 34 38 41 41 38 35 39 43 44 34 28 26 27 30 32 36
13 15 8 8 9 10 13 20 18 21 19 19 21 18 16 18 18 14 13 12 15 20 20 22 28 27 27 30 36 38 40 43 38 38 43 45 39 34 24 27 31 28 33 36
13 12 11 6 5 1 12 7 11 12 11 9 11 10 8 14 13 17 21 17 14 15 18 19 23 23 25 30 36 39 41 41 41 41 43 45 34 29 28 26 25 30 35 38
11 12 11 7 11 11 16 7 6 6 1 3 3 6 6 15 14 14 10 13 14 17 18 20 23 24 27 31 36 37 40 40 42 44 39 33 28 32 23 22 26 32 36 37
15 14 13 9 4 4 3 8 7 6 5 4 9 6 8 15 13 11 14 17 20 25 27 26 22 23 26 30 33 35 37 42 44 42 33 28 22 17 20 24 28 32 35 35
13 17 16 12 6 6 8 11 13 5 4 10 9 15 23 13 15 18 22 22 28 28 20 22 20 26 31 34 37 40 44 45 48 46 28 18 17 18 22 25 30 33 32 33
7 10 12 12 6 7 11 7 4 11 10 14 21 21 20 20 18 23 26 26 29 24 24 27 33 35 37 39 42 45 46 42 40 37 26 19 18 21 25 29 31 33 34 32
7 8 5 7 2 8 8 10 8 14 18 19 20 21 22 24 22 20 18 27 29 29 31 34 37 37 36 39 41 43 39 37 28 24 23 19 21 24 28 30 32 33 34 33
10 12 11 11 6 6 7 9 13 20 18 17 21 24 24 24 22 21 22 28 32 35 36 34 33 30 31 38 40 35 34 30 25 25 28 24 24 28 29 31 32 34 34 35
11 10 8 10 12 11 12 20 21 20 23 24 23 26 23 23 25 28 31 33 32 29 29 30 33 34 34 29 23 21 22 27 27 21 21 25 27 29 31 32 34 35 35 36
14 11 13 13 19 18 25 25 23 25 27 24 23 26 26 26 27 26 26 27 27 28 27 30 25 19 18 21 25 22 19 19 22 24 27 29 31 33 33 34 35 34 36 36

GFSCGP_700_spd_045.txt.gz
Wind_Speed
4 8 5 6 11 5 4 8 7 16 9 12 19 12 19 15 16 11 9 10 10 9 8 8 11 9 6 3 5 6 8 10 13 17 19 16 11 10 12 12 12 14 16 20
8 7 5 9 8 16 16 18 20 21 16 14 13 16 18 16 19 17 14 12 12 15 16 16 19 18 13 11 12 12 12 14 19 21 18 12 11 13 12 9 12 13 17 21
10 16 6 14 10 15 10 11 6 6 5 6 12 16 22 19 18 19 19 15 18 22 23 23 25 27 24 22 19 16 17 20 23 23 15 14 14 15 12 13 15 16 19 22
6 13 16 19 14 13 13 7 2 1 1 7 8 4 7 22 24 25 22 23 23 21 23 23 20 22 23 26 27 20 23 24 26 19 15 16 16 16 16 18 18 20 20 24
11 9 20 19 18 6 5 7 8 12 17 22 9 1 16 19 25 22 24 29 27 25 26 26 25 27 29 30 31 26 27 28 25 17 14 17 19 20 20 20 21 22 24 25
11 9 5 8 8 8 5 3 9 9 5 4 15 16 7 22 26 26 22 25 28 27 26 26 28 31 33 31 28 30 31 26 20 17 16 18 20 21 22 24 24 26 29 35
11 15 6 8 9 7 6 8 2 4 7 6 16 11 22 12 21 32 30 29 28 25 23 31 33 32 32 29 24 26 25 24 20 17 16 18 21 22 24 25 25 28 33 37
13 9 5 5 8 8 8 6 4 4 2 7 16 9 5 9 8 17 23 18 27 28 34 34 37 39 34 31 27 25 25 23 17 16 19 21 22 24 25 29 31 38 37 35
9 15 14 9 5 8 8 2 7 4 6 3 7 3 10 13 12 6 17 25 28 31 27 33 36 36 30 27 21 20 20 23 21 21 20 23 24 24 27 35 32 40 34 45
20 9 11 9 21 9 7 7 6 4 3 3 5 7 11 9 5 5 15 19 18 17 20 26 28 26 24 20 16 19 24 27 26 26 26 26 26 29 30 42 36 42 37 44
17 10 5 9 19 12 13 12 9 9 4 4 1 1 5 5 5 0 4 8 8 9 12 15 18 21 21 21 20 23 28 32 33 32 30 31 31 34 34 36 44 45 44 28
8 8 6 11 12 9 12 8 6 13 6 3 2 8 11 6 7 6 5 8 13 14 14 14 16 19 22 24 24 24 29 31 32 34 36 37 36 37 39 39 48 49 35 25
11 9 7 6 9 11 13 14 19 14 6 13 6 4 2 13 13 10 6 7 12 16 18 20 21 24 26 28 28 25 26 28 32 36 40 38 39 42 46 47 41 47 35 27
16 10 8 9 6 9 10 11 10 14 16 13 15 19 23 18 20 15 9 8 12 14 17 20 23 26 29 31 28 26 29 33 36 41 38 37 41 43 43 39 51 34 28 27
19 20 15 13 11 17 8 11 8 12 16 19 16 16 13 12 9 14 6 7 7 10 14 17 22 25 29 30 32 33 35 38 41 40 38 40 42 43 45 48 35 32 24 29
18 17 18 14 15 16 15 13 19 22 17 17 15 14 10 7 6 7 7 10 10 7 12 16 21 25 28 29 34 34 36 39 39 37 40 43 43 44 43 38 32 23 29 27
18 18 15 13 15 17 17 23 22 18 17 17 16 10 15 15 10 6 8 12 15 18 18 21 20 23 28 34 34 34 31 35 39 42 44 47 45 51 43 41 31 29 24 25
19 14 13 9 11 0 17 8 9 6 5 5 7 8 9 6 9 11 14 16 17 17 15 17 19 24 26 30 31 33 35 38 41 44 48 46 48 48 46 43 26 23 22 23
18 20 11 8 14 11 13 10 11 9 5 7 11 12 9 8 10 12 17 19 12 14 17 16 19 24 23 26 28 32 34 38 42 45 49 51 51 48 41 31 26 21 20 25
22 20 18 12 5 6 6 9 10 9 8 9 12 14 15 12 15 18 15 17 19 20 23 28 29 28 27 27 30 32 35 39 44 49 51 55 54 33 34 28 21 23 24 28
20 20 21 18 10 7 10 11 11 9 7 13 12 12 11 19 20 18 17 21 25 28 29 31 33 31 30 29 32 35 38 43 47 51 51 44 36 34 22 27 22 23 28 30
14 15 16 13 10 9 13 14 12 12 16 15 14 16 20 18 17 18 22 22 24 27 28 27 28 29 29 30 33 36 40 43 47 45 37 32 22 28 22 20 24 28 29 31
12 11 10 8 5 8 12 15 14 12 14 15 21 20 18 19 18 19 24 27 27 27 26 26 24 23 26 28 31 36 36 29 23 19 21 20 19 18 21 26 28 30 32 33
14 14 11 10 5 11 18 18 18 18 18 19 18 20 21 19 20 21 23 25 25 25 24 23 24 21 23 28 27 24 19 17 17 18 18 18 20 22 26 28 30 32 34 35
18 17 16 14 14 18 18 19 21 22 21 19 21 22 19 19 22 22 20 18 19 20 23 23 23 24 24 19 16 16 14 15 17 19 21 23 26 28 29 31 33 34 35 36
19 19 18 20 23 25 26 26 25 23 21 23 23 21 21 23 22 21 21 22 24 24 22 21 20 17 17 18 16 15 18 19 21 23 25 27 30 32 34 36 36 35 36 36

GFSCGP_700_spd_048.txt.gz
Wind_Speed
4 3 3 8 7 6 3 3 9 13 15 17 23 12 17 11 10 10 6 10 15 15 11 8 6 7 12 14 11 9 8 7 8 9 11 13 16 14 14 15 18 18 16 17
3 6 3 6 2 6 13 9 16 19 10 16 19 19 15 14 15 14 7 9 10 15 15 15 13 11 8 9 11 11 9 10 11 13 16 17 16 15 16 16 17 16 16 18
7 9 13 9 10 8 12 15 13 12 5 8 6 20 20 22 20 17 17 11 11 11 12 16 17 13 13 12 13 14 14 15 16 18 20 19 16 15 15 17 15 17 19 21
12 8 10 11 12 9 16 15 14 8 1 2 6 4 9 24 24 25 23 19 19 18 18 18 18 16 13 14 16 17 20 19 19 23 20 19 16 18 19 17 17 19 21 22
14 8 10 13 19 11 12 6 11 11 5 11 10 5 11 12 26 28 27 25 23 25 23 23 22 21 21 21 20 20 21 26 24 25 22 19 17 19 19 18 18 19 21 28
9 5 2 11 15 12 15 10 12 9 9 3 13 9 19 18 20 26 29 26 29 29 27 28 26 26 25 26 25 21 26 28 28 28 23 19 20 19 18 18 20 24 30 32
8 6 6 6 7 9 8 7 1 1 1 6 6 5 12 12 16 21 28 31 26 24 30 34 31 29 29 28 26 30 27 23 27 27 21 20 20 18 18 22 25 29 32 36
12 7 10 10 4 4 12 7 4 4 3 4 2 5 6 10 16 18 27 32 31 28 27 24 26 25 26 28 30 26 24 26 24 22 20 21 20 19 22 25 28 34 32 39
11 10 9 9 11 5 4 5 1 2 4 2 5 2 12 12 14 12 17 24 26 28 35 30 25 26 28 30 26 26 30 30 25 25 25 22 21 23 28 32 35 33 38 33
21 11 14 15 13 18 9 5 4 4 2 3 3 5 9 11 7 6 4 14 23 22 23 23 26 29 31 24 27 31 30 25 26 25 27 26 28 30 33 32 33 37 37 47
26 18 10 13 14 21 12 13 11 11 7 4 1 3 2 8 2 4 4 4 2 12 18 20 20 24 28 29 27 25 24 24 23 26 32 32 33 36 37 38 40 34 39 46
22 20 14 13 5 21 19 17 17 11 6 5 3 9 10 11 11 11 7 5 3 4 8 7 9 10 12 14 16 17 20 21 23 27 31 34 32 37 38 47 46 41 45 55
21 10 8 7 13 18 18 16 19 16 14 14 7 8 7 7 11 14 15 9 7 8 9 13 17 18 18 19 17 18 23 26 27 28 29 26 33 40 40 42 42 46 57 50
23 21 15 18 15 14 11 13 13 11 8 13 16 16 16 19 23 22 21 15 13 13 15 17 20 22 21 21 22 25 29 30 27 30 29 30 36 33 39 42 50 53 51 56
25 20 16 12 13 11 8 8 10 13 10 5 11 22 17 17 15 8 15 17 15 13 14 17 19 21 24 25 27 28 31 31 28 27 32 35 37 40 42 45 50 49 54 47
20 18 20 21 21 20 18 15 15 16 16 19 17 14 10 9 7 7 10 17 20 17 16 17 20 23 24 25 27 28 31 29 28 30 32 36 39 43 48 50 52 54 50 45
21 21 23 20 20 17 19 24 23 21 22 22 20 14 10 12 14 12 12 14 14 14 16 16 19 20 20 18 22 26 28 31 34 36 37 39 43 46 49 53 58 60 48 39
15 20 19 10 12 1 13 16 13 15 11 10 14 15 13 13 10 7 8 9 10 13 16 17 17 18 19 21 24 28 32 34 34 35 39 40 43 48 54 59 50 34 41 29
19 19 11 8 16 8 8 10 13 14 13 13 12 13 11 8 7 10 11 13 13 14 14 17 19 20 21 28 27 26 29 32 35 38 42 45 49 53 54 35 39 29 24 24
19 19 22 12 6 7 15 18 24 18 16 17 14 11 10 11 11 14 14 16 17 18 20 21 22 25 25 22 22 25 29 31 34 40 43 48 48 45 36 40 26 22 19 21
25 25 24 23 14 12 15 11 14 17 15 20 17 16 13 13 17 20 20 19 20 21 22 22 20 19 18 20 23 27 31 34 37 38 47 38 36 36 29 25 23 22 22 25
26 25 21 20 14 13 17 21 24 18 18 17 15 12 13 18 20 21 21 20 19 18 19 19 17 17 18 22 25 32 30 30 34 36 35 30 28 27 27 25 25 25 28 30
20 22 21 17 12 14 13 20 20 20 15 11 12 12 17 17 20 21 19 17 17 18 18 19 18 20 23 25 27 32 32 33 32 29 25 25 25 25 27 28 28 30 32 34
22 16 16 17 14 13 14 14 14 15 14 13 15 16 17 20 21 20 19 19 19 19 18 21 23 24 26 26 27 30 28 24 23 24 24 25 27 28 29 31 33 35 36 37
24 21 20 21 17 18 17 18 18 19 19 20 20 20 21 22 20 20 22 23 21 20 21 23 26 25 25 25 23 21 22 23 22 22 25 27 29 30 32 33 36 38 39 39
24 24 27 27 23 22 21 22 23 23 22 23 24 24 24 22 21 20 20 21 23 24 25 24 22 19 18 18 20 21 21 22 23 25 27 29 32 35 37 39 41 41 42 40

GFSCGP_700_spd_051.txt.gz
Wind_Speed
2 0 1 1 3 2 6 7 6 3 8 21 17 17 17 14 14 9 7 9 9 9 7 9 8 10 13 12 11 9 9 7 6 4 4 6 8 11 12 15 17 18 20 21
4 3 4 2 1 1 3 9 3 12 14 14 15 11 18 21 14 11 7 7 7 6 7 10 12 12 14 12 10 9 8 8 8 8 10 11 12 14 16 16 15 18 19 20
5 4 8 9 8 11 12 12 15 16 13 3 10 17 19 23 21 16 16 10 8 5 2 3 5 5 8 10 8 9 9 10 12 13 15 14 14 17 16 16 17 19 18 20
10 10 6 9 15 12 13 8 14 18 13 6 2 3 15 22 22 23 20 19 17 15 10 7 5 3 3 1 5 10 11 14 17 20 20 19 17 18 15 19 21 18 18 19
6 7 8 10 12 12 16 18 13 13 10 8 4 4 6 12 22 23 25 26 24 21 17 14 12 8 9 10 11 11 14 17 17 22 24 22 22 17 19 19 20 19 20 23
9 8 8 4 10 12 13 14 12 9 7 2 7 3 8 10 17 23 27 28 29 26 22 20 18 18 16 17 16 18 19 19 20 20 21 26 24 19 18 19 18 21 24 26
11 9 6 5 8 11 9 2 3 3 2 5 4 6 17 15 12 14 21 23 27 29 28 25 25 24 22 20 22 20 22 22 22 19 22 24 20 19 18 19 22 27 31 33
14 5 13 11 9 6 5 3 4 4 2 4 5 6 6 8 13 10 10 14 22 26 26 26 25 25 20 23 24 28 24 24 21 23 25 18 18 20 21 22 26 29 33 38
12 9 13 13 8 4 2 6 8 4 1 1 4 8 12 12 9 10 12 16 19 21 23 19 19 21 19 22 23 27 26 25 25 29 26 22 22 26 25 26 28 32 36 36
18 8 13 15 13 12 12 12 6 6 3 2 4 7 11 9 7 5 4 9 13 16 21 20 21 22 19 17 19 24 25 26 29 30 26 25 29 28 29 29 35 35 38 41
19 22 15 15 19 19 19 16 13 9 4 4 1 5 6 3 4 2 3 3 1 9 17 19 19 19 17 14 19 23 27 28 29 25 22 22 24 26 32 33 31 37 39 47
24 14 18 24 22 21 20 22 16 7 6 7 6 14 13 13 15 11 8 8 6 2 2 6 3 5 6 9 12 15 19 17 18 20 19 20 27 23 25 29 33 40 42 44
21 19 17 15 19 19 19 23 21 19 19 16 7 10 9 13 13 14 13 13 12 7 7 7 8 10 11 13 15 16 17 18 22 22 23 26 29 28 24 30 33 34 40 42
21 23 20 20 19 16 21 21 19 18 20 19 22 23 17 15 17 19 18 22 20 15 12 14 16 17 18 20 22 24 24 26 26 27 28 28 26 28 32 32 33 39 43 48
22 27 23 22 19 17 18 21 16 17 21 18 18 15 14 20 19 19 16 17 17 18 18 18 18 19 21 24 25 27 28 27 30 31 31 26 27 31 32 33 37 44 46 47
31 19 23 21 20 20 21 19 18 17 17 19 18 20 17 16 18 15 14 11 16 21 21 21 20 21 22 26 26 26 27 29 30 31 30 31 32 32 35 37 44 47 49 54
32 28 17 17 18 19 19 30 29 27 27 27 27 26 26 23 22 18 16 15 16 19 19 18 18 20 21 21 21 21 21 25 26 29 31 29 31 34 37 43 50 54 46 39
27 27 21 15 15 3 28 27 25 28 32 34 33 30 25 20 21 20 18 16 15 16 16 16 15 16 17 18 18 18 22 23 25 27 28 30 32 36 44 44 49 48 39 42
26 21 16 10 16 18 10 17 19 21 19 17 14 14 19 20 17 15 13 12 12 13 15 15 16 18 17 19 23 23 20 22 25 28 31 34 38 36 42 49 44 39 40 31
24 22 23 14 7 7 19 24 19 15 18 19 17 15 16 15 14 13 12 13 14 15 15 17 19 20 21 21 19 19 21 24 28 32 34 39 39 45 41 35 42 37 32 31
25 25 27 23 15 15 18 15 14 20 25 24 21 19 17 15 13 12 14 16 17 18 18 19 19 21 22 22 22 23 25 27 30 38 37 33 33 38 41 37 31 33 32 34
32 28 27 26 19 15 17 20 24 22 21 14 15 20 18 16 16 18 19 19 20 19 20 21 22 23 23 22 23 25 26 28 29 31 37 39 37 35 32 32 33 33 36 38
31 33 30 23 21 18 11 14 23 27 19 14 11 13 14 15 19 20 20 20 21 21 21 22 24 21 23 25 28 29 29 32 34 34 36 31 31 32 33 33 35 37 39 41
32 25 31 25 26 25 21 18 16 18 17 13 13 15 16 19 20 20 22 22 21 22 23 24 21 23 27 29 31 33 31 31 31 28 29 31 31 31 33 36 39 42 43 45
26 26 29 30 23 19 18 17 16 16 16 15 16 18 20 21 22 23 23 22 23 24 23 23 23 25 27 30 30 27 25 24 26 28 28 30 33 35 37 39 42 44 46 48
35 36 37 35 26 22 17 15 17 17 18 19 21 23 23 24 24 25 25 25 25 26 25 26 27 28 26 23 22 23 24 25 26 28 30 33 36 38 41 45 47 47 49 49

GFSCGP_700_spd_057.txt.gz
Wind_Speed
8 8 7 5 3 5 2 3 5 2 2 5 11 13 13 9 6 5 1 8 10 9 10 10 13 17 17 18 19 19 19 19 18 17 15 13 10 9 10 12 14 13 13 14
11 7 6 7 5 4 2 1 0 3 3 6 13 12 5 7 4 3 2 5 13 16 14 14 17 18 16 16 16 17 17 16 16 15 13 12 11 10 10 10 10 14 13 15
13 7 6 6 6 7 6 5 5 7 8 8 12 8 7 6 7 9 7 10 16 18 16 16 16 17 17 15 12 12 12 13 14 14 13 11 11 10 9 9 11 12 17 18
11 12 10 8 10 12 13 10 7 8 9 6 6 4 6 8 11 12 12 15 13 16 17 18 16 15 14 14 15 14 13 13 14 14 14 11 13 14 14 15 17 19 19 18
12 6 8 9 7 9 11 8 7 11 5 5 7 4 3 6 10 15 14 14 17 17 17 17 17 17 16 18 16 14 13 13 13 14 15 15 13 16 18 20 21 22 23 21
17 10 7 6 6 8 9 5 7 5 3 2 6 6 5 6 9 11 10 13 14 21 21 19 17 17 18 21 22 19 16 15 15 16 18 18 17 14 16 20 23 25 27 26
21 16 11 9 7 8 9 6 1 1 2 3 3 4 7 5 7 14 14 14 15 18 24 24 23 22 22 21 19 18 17 11 13 18 19 19 18 18 18 20 24 29 30 27
20 7 16 9 9 7 10 8 4 3 3 1 4 5 4 10 11 9 10 8 10 12 15 18 23 23 19 17 17 17 15 19 14 17 19 22 22 18 22 21 23 26 25 27
22 14 9 12 10 7 8 7 6 4 2 0 4 10 13 5 10 5 1 4 5 6 11 15 18 21 20 18 16 16 19 22 19 21 21 23 26 22 25 21 22 25 26 27
11 9 15 13 13 14 9 7 4 4 3 3 3 4 7 8 1 6 7 6 4 4 9 11 14 18 18 18 16 19 21 22 24 23 25 27 24 25 23 22 24 23 22 24
26 15 9 14 16 16 14 13 8 4 3 2 2 4 4 6 2 6 8 7 7 4 4 7 12 14 14 17 19 20 22 24 24 23 25 28 26 24 22 21 22 24 25 29
28 15 21 20 14 18 17 15 15 8 5 7 7 13 16 9 10 6 11 8 5 7 6 5 4 6 6 6 7 8 10 13 16 18 21 24 25 22 21 21 25 26 31 28
29 18 16 10 16 21 15 16 16 18 17 17 11 8 5 14 14 14 15 10 11 13 10 9 5 4 6 8 9 10 10 13 15 16 19 21 23 28 29 30 25 29 39 26
28 27 20 21 23 16 18 21 20 20 13 19 28 28 21 15 14 12 14 13 13 15 15 15 14 14 12 11 10 11 15 19 20 21 21 25 26 27 27 26 26 25 28 28
23 21 21 26 25 25 27 25 22 21 19 24 22 24 18 17 17 12 13 16 17 17 17 19 20 20 19 18 17 18 21 23 24 25 25 26 26 28 27 29 30 35 25 31
32 22 21 24 24 26 26 28 24 22 19 21 22 26 20 20 20 18 17 18 18 19 19 18 19 23 24 24 25 24 26 27 29 31 30 30 30 28 28 28 33 25 32 37
24 26 27 25 28 24 22 28 26 24 21 24 26 26 24 24 24 26 27 24 24 23 24 23 22 23 22 21 22 22 23 24 25 25 26 26 28 30 28 23 28 36 34 36
19 22 25 18 20 5 25 25 24 22 26 28 31 31 29 27 26 27 26 25 22 20 17 16 16 16 17 18 20 21 23 24 25 27 29 30 28 23 25 29 30 35 37 34
21 24 17 16 21 21 15 22 24 22 29 27 28 24 21 22 22 20 19 17 16 14 14 15 16 17 19 21 23 23 23 23 24 26 25 25 25 23 30 28 31 28 28 38
21 24 24 14 10 9 25 23 22 20 31 24 20 20 17 16 18 16 16 17 16 16 16 17 17 19 19 19 19 19 20 21 22 23 24 23 22 23 23 24 28 35 37 33
21 23 27 30 20 18 17 18 18 17 32 18 16 13 17 17 17 14 17 18 17 16 16 17 18 19 18 18 18 19 21 21 22 21 20 24 22 22 28 33 33 31 31 32
30 24 24 28 24 16 23 22 26 32 25 18 16 16 16 16 18 20 20 18 17 16 16 17 18 19 19 19 20 21 22 22 23 24 24 27 28 26 25 26 28 29 31 33
25 34 28 29 26 28 21 21 22 23 21 21 19 18 15 18 21 22 20 18 16 16 17 18 18 19 20 21 22 23 20 23 27 27 27 22 22 24 26 26 29 31 34 38
38 33 29 29 32 33 31 30 29 27 26 22 21 18 15 17 22 21 19 17 16 18 18 18 19 20 21 22 24 25 25 27 27 21 21 22 23 24 26 30 33 36 38 41
29 29 29 31 33 33 32 30 28 29 26 25 22 19 18 22 22 21 20 18 19 19 19 20 20 21 22 23 24 26 28 24 20 21 22 22 24 26 29 32 34 37 40 44
36 35 31 31 25 25 26 25 29 25 27 24 22 20 21 22 21 22 21 21 21 21 22 22 23 24 24 25 27 24 20 20 20 21 23 25 28 30 32 34 36 39 42 45

GFSCGP_700_spd_060.txt.gz
Wind_Speed
14 11 10 7 9 9 8 8 6 3 5 7 8 10 10 6 4 5 5 9 10 9 8 10 14 16 16 18 18 18 20 22 23 23 23 22 20 18 15 16 17 19 19 17
13 13 9 10 9 6 8 10 8 6 7 6 8 10 9 4 4 3 3 5 10 14 14 13 14 16 17 17 17 18 17 17 16 16 16 16 15 15 16 17 16 17 17 18
16 8 13 12 9 8 8 9 6 4 5 9 10 11 9 11 7 6 7 9 12 16 13 15 18 18 18 18 18 18 17 17 17 17 18 18 18 17 16 15 13 16 18 19
17 16 13 11 12 12 12 10 8 7 10 11 5 4 5 6 8 10 12 14 14 15 15 17 18 19 19 19 19 19 19 19 19 20 20 19 18 17 16 16 16 17 20 22
18 17 19 16 12 11 12 10 8 9 10 8 8 9 5 5 6 9 12 15 18 16 16 18 19 19 21 23 22 21 19 20 20 20 20 20 20 19 20 21 23 24 24 26
16 16 12 10 11 11 11 8 9 6 6 9 5 7 5 8 6 7 11 12 17 22 21 20 22 23 21 23 24 23 21 20 19 18 19 19 20 22 21 23 25 28 28 30
22 18 13 11 9 9 12 11 9 5 6 4 4 6 11 5 6 8 12 14 14 16 27 26 24 22 24 25 24 24 22 19 18 17 18 19 21 22 28 23 24 27 28 30
24 20 19 15 13 10 15 13 7 5 4 4 4 6 2 6 9 7 9 14 16 19 24 32 29 26 23 22 23 23 21 22 22 17 18 18 22 27 28 26 22 27 31 32
27 19 14 18 14 12 13 12 9 3 3 3 6 6 9 2 7 6 3 6 9 10 15 27 31 32 29 28 26 24 24 25 26 25 23 24 27 29 30 24 24 30 33 31
13 18 14 17 15 16 10 13 7 7 4 5 4 5 6 2 2 7 5 4 1 5 11 17 25 28 30 31 30 29 27 27 28 28 29 30 30 31 31 28 27 31 31 28
19 14 11 17 17 16 15 10 7 4 4 3 3 5 5 4 2 4 4 4 4 3 1 6 16 21 25 28 29 28 26 27 30 32 32 30 29 31 32 30 29 30 34 29
27 17 15 15 14 17 15 14 13 10 6 7 5 12 13 15 10 6 7 6 5 7 5 4 4 16 20 23 28 30 31 30 29 29 30 30 30 30 29 30 31 36 27 29
33 21 15 13 15 17 14 17 15 14 14 15 8 6 8 11 9 13 11 11 10 10 9 8 7 8 12 16 17 15 17 17 18 18 18 20 22 23 24 26 30 27 33 31
33 24 30 22 17 14 16 20 21 18 13 16 18 20 16 18 15 12 11 10 13 13 12 14 13 15 15 15 14 15 15 17 18 19 21 23 24 26 27 28 28 28 28 33
31 30 25 24 19 18 20 19 19 23 23 22 18 17 15 13 15 17 17 14 14 17 16 17 19 21 22 21 20 19 20 22 24 25 26 28 29 29 31 30 30 29 29 33
31 22 23 23 21 21 23 21 21 23 22 21 21 21 13 15 16 17 19 19 17 17 19 20 21 20 25 26 26 25 26 25 26 28 30 32 31 32 32 31 30 28 29 31
27 25 20 19 17 16 20 28 23 21 25 23 22 21 17 21 22 23 23 23 24 25 23 25 25 24 23 26 27 26 25 23 24 26 27 27 28 27 28 30 30 26 24 30
17 25 22 17 15 7 21 18 18 21 23 22 22 23 24 26 28 25 25 26 26 23 22 22 22 20 18 17 17 19 21 23 25 26 26 27 28 29 30 26 25 24 25 26
17 22 19 16 19 19 18 21 21 22 24 21 23 24 27 27 25 23 23 23 20 18 18 17 15 15 15 16 19 21 23 24 24 23 24 25 25 26 27 27 23 24 22 26
21 26 19 16 10 9 19 22 20 19 27 20 21 16 18 20 22 20 17 17 17 19 20 18 16 16 17 19 21 22 22 21 21 22 24 26 28 26 23 20 21 26 29 29
25 26 27 23 11 15 16 16 15 16 30 15 17 16 18 18 19 20 17 18 20 22 20 18 17 17 17 18 18 18 19 20 21 22 22 22 23 21 23 23 23 22 24 26
20 20 22 19 14 15 17 19 23 25 20 20 19 19 17 19 18 19 21 21 23 22 20 18 17 17 17 17 18 18 20 20 21 22 23 24 23 22 19 20 22 23 24 27
21 23 18 20 20 23 18 17 20 20 21 22 22 22 20 20 21 21 22 24 24 22 20 19 18 18 18 18 18 19 20 21 23 23 23 21 18 19 21 21 23 25 28 30
34 34 36 35 28 27 24 23 24 24 26 26 26 25 23 22 21 23 25 25 24 22 20 19 19 19 19 20 21 22 23 24 25 24 20 20 20 21 22 24 26 28 30 32
25 24 36 43 38 29 26 27 27 25 25 23 25 26 25 23 23 23 27 27 25 23 20 20 20 21 22 23 24 24 24 25 23 19 20 20 21 22 25 27 28 30 32 34
30 33 32 35 27 33 24 22 25 26 25 25 27 25 26 25 25 27 29 28 26 25 23 23 23 23 25 25 25 25 25 21 20 20 20 20 22 24 26 28 31 30 33 35

GFSCGP_700_spd_063.txt.gz
Wind_Speed
16 16 18 12 14 15 11 10 10 8 5 7 11 12 10 4 6 8 9 9 10 10 12 10 10 13 13 17 19 16 13 14 17 19 20 20 20 21 22 21 21 21 21 21
17 21 15 12 10 10 10 13 12 7 6 7 10 14 7 7 7 9 10 11 12 13 15 14 12 13 13 14 16 18 18 18 18 16 17 18 19 19 19 21 22 20 21 22
22 12 14 12 10 9 11 15 3 5 9 12 13 19 13 10 9 11 13 14 14 17 16 17 14 14 15 16 17 17 16 17 17 17 18 18 19 19 20 20 21 21 21 22
23 16 12 15 13 11 14 12 11 9 12 14 15 4 15 12 13 14 13 13 10 16 19 19 15 16 17 18 18 19 18 17 17 18 19 20 20 19 19 20 20 19 23 24
24 22 18 17 14 12 15 9 9 11 15 18 16 11 12 12 13 14 16 16 17 19 21 22 18 16 18 18 18 18 19 20 21 21 22 21 22 21 21 22 25 23 26 25
23 16 19 20 16 14 10 11 11 12 14 14 10 15 8 16 12 7 12 16 19 20 21 22 22 20 22 24 23 23 23 22 22 22 22 22 21 23 24 26 23 27 30 33
26 21 19 16 15 13 13 14 15 10 4 9 7 8 9 8 4 6 8 11 15 20 23 24 25 26 24 24 25 26 25 24 23 22 21 21 21 23 25 28 30 32 30 32
30 30 25 18 19 15 15 20 12 8 6 3 7 7 6 6 4 5 6 9 15 15 21 26 28 27 26 26 27 27 27 26 25 22 21 23 21 20 25 30 33 26 28 26
29 28 26 20 16 16 15 22 16 10 3 4 8 9 9 5 4 5 5 4 7 10 12 21 27 30 29 29 28 26 28 28 28 24 25 23 24 26 29 34 33 30 28 26
16 24 18 22 17 15 12 16 12 12 4 8 8 10 6 6 3 5 3 2 1 2 8 11 19 28 32 31 30 30 28 28 27 28 28 29 31 30 32 36 36 33 32 31
18 23 20 17 23 20 18 14 16 9 11 5 5 5 5 4 7 6 4 3 1 1 2 5 12 20 26 27 30 35 33 30 29 30 32 31 30 31 32 32 33 34 33 34
31 20 21 24 18 21 18 21 21 18 15 12 14 18 7 9 12 12 10 7 6 5 5 6 7 12 15 25 30 35 36 33 30 29 30 34 32 32 31 30 31 32 32 30
32 23 22 19 17 17 20 19 20 21 17 15 12 12 6 6 9 9 11 11 10 9 7 7 8 10 14 18 19 21 24 24 26 30 34 32 27 24 25 27 29 29 30 31
35 26 28 25 24 21 23 22 23 23 18 20 22 20 14 14 16 14 14 12 9 11 12 10 11 12 14 15 18 22 22 23 24 26 26 23 24 25 26 28 30 31 31 32
31 36 27 28 22 17 19 23 25 27 27 27 22 22 18 12 13 14 12 15 16 15 15 17 16 19 20 23 24 24 25 25 25 26 25 25 27 27 29 31 33 32 32 33
30 29 30 28 25 25 22 22 24 24 24 26 26 25 20 16 16 17 16 18 21 22 19 18 19 23 26 24 28 30 28 27 27 27 28 29 30 32 33 34 33 33 31 28
25 28 26 28 27 26 30 27 25 24 23 23 26 23 19 18 17 18 17 20 26 26 25 23 26 29 31 30 28 33 32 31 30 32 33 32 31 30 30 30 30 31 33 32
23 25 25 18 18 13 23 19 22 26 26 23 22 23 21 20 20 17 22 24 27 28 28 29 27 25 25 24 23 23 23 22 22 23 24 26 27 29 30 31 31 31 31 32
19 21 23 20 22 18 18 22 20 20 22 21 21 22 21 20 23 27 25 27 27 27 28 25 21 21 20 18 17 17 19 20 21 23 24 26 26 27 28 30 31 30 28 25
16 18 25 15 21 18 27 25 15 16 25 21 20 17 16 21 23 18 21 20 21 22 21 20 20 20 20 19 19 19 20 22 23 24 25 25 27 28 29 28 26 25 25 25
21 19 26 26 14 17 18 16 17 18 25 9 11 14 16 19 18 20 21 22 21 22 21 23 24 23 21 20 20 21 23 24 24 24 25 26 26 26 26 25 25 23 22 24
25 22 21 22 20 16 18 20 23 25 17 16 15 14 16 20 21 19 22 24 23 23 25 27 26 24 22 21 22 22 23 23 24 24 25 25 26 26 26 23 22 23 23 24
16 21 27 18 17 22 16 17 20 20 19 18 18 16 19 21 23 21 21 24 25 26 28 28 27 25 23 23 23 23 24 24 24 25 25 25 26 24 22 22 23 23 24 26
26 18 22 17 22 18 16 14 18 19 19 19 20 21 21 21 24 25 23 25 26 28 30 30 28 26 24 24 25 25 25 26 26 26 27 27 25 23 23 23 24 25 26 28
24 18 22 32 31 28 28 32 24 23 23 24 24 24 24 24 24 27 26 26 27 29 32 31 30 28 26 26 26 27 27 28 29 28 28 25 24 24 24 24 26 28 28 29
23 23 25 26 19 25 27 28 28 30 27 22 24 25 25 26 28 27 27 27 30 32 32 32 32 30 28 28 29 29 30 31 31 28 25 24 24 24 25 28 28 28 30 31

GFSCGP_700_spd_066.txt.gz
Wind_Speed
19 18 22 19 22 21 21 16 15 5 5 6 11 13 10 12 15 15 10 10 8 5 15 8 3 10 12 14 16 15 18 20 23 24 24 24 24 24 24 24 21 20 20 20
20 28 21 19 18 14 15 15 15 8 1 8 10 11 5 7 8 11 10 11 16 11 17 13 10 7 11 15 17 14 13 16 17 17 17 17 18 19 18 18 19 18 18 19
28 24 18 21 16 13 14 15 11 17 10 16 15 16 13 6 10 10 11 12 16 17 17 18 10 12 11 14 15 15 16 15 16 15 17 17 18 19 20 20 20 18 18 20
28 23 15 19 15 15 15 13 12 14 13 14 3 15 15 17 14 13 13 15 18 18 18 17 11 11 12 12 13 13 12 13 15 15 17 19 19 19 16 16 17 19 16 19
31 25 24 19 20 16 17 6 11 11 15 19 16 8 16 13 20 19 18 19 13 14 19 18 9 9 12 14 15 15 15 16 18 18 18 18 18 16 16 16 18 21 17 21
27 22 24 24 18 17 13 13 12 14 16 15 19 10 13 10 13 16 19 16 15 13 17 20 16 12 14 16 17 19 20 20 19 17 18 17 15 18 20 20 22 23 22 22
28 29 23 21 22 20 15 14 12 9 11 8 10 12 14 6 16 6 7 17 14 17 21 21 24 21 19 19 18 18 18 18 19 18 17 20 19 19 22 23 26 24 26 22
28 27 31 23 22 21 19 19 15 6 3 4 7 7 7 5 8 7 7 12 9 18 21 24 25 28 25 22 22 22 22 21 22 22 21 19 23 24 22 25 27 25 29 26
34 33 26 25 22 22 20 21 22 9 12 7 8 15 7 11 5 5 6 8 10 17 17 22 22 29 31 28 26 25 25 25 26 24 25 27 24 24 29 26 28 29 29 32
30 24 28 27 23 22 24 15 18 12 4 6 7 9 4 10 7 7 7 7 6 11 13 15 23 24 30 33 30 28 28 28 27 30 30 30 27 27 27 30 32 30 32 35
41 27 25 27 30 26 21 19 17 21 15 1 4 2 9 2 6 9 8 6 7 5 6 9 17 20 27 28 28 30 30 31 32 33 33 32 32 30 35 29 30 31 32 34
43 22 23 26 26 24 24 22 19 15 10 11 7 9 5 1 8 12 9 10 8 7 5 9 7 9 22 25 25 31 31 35 36 37 36 37 32 32 28 28 29 29 29 28
41 39 20 23 26 25 28 25 22 24 21 20 12 8 3 5 7 9 11 12 13 12 8 9 10 11 13 23 25 26 30 26 28 29 28 31 28 28 29 25 21 24 25 28
33 34 29 20 28 27 25 24 24 28 24 15 18 14 17 10 10 12 13 15 15 12 13 11 12 11 10 13 16 33 32 29 29 29 27 26 26 24 21 23 25 26 28 30
29 34 32 27 26 28 27 26 26 27 24 27 21 22 20 18 10 12 11 12 13 15 14 15 13 18 20 20 18 18 21 23 24 25 24 25 25 24 24 26 30 30 31 32
30 25 36 27 31 27 23 27 30 27 27 25 26 26 22 21 17 15 14 14 18 15 20 19 16 21 29 24 20 22 25 27 28 27 28 27 27 29 28 31 32 33 34 34
28 28 27 30 29 26 32 32 23 23 26 25 26 23 21 21 18 17 16 17 17 20 21 21 22 29 33 29 26 30 31 32 32 30 29 30 30 34 35 33 31 32 32 33
21 25 33 24 26 23 27 27 24 24 25 22 23 21 20 21 20 19 19 16 19 26 27 24 29 30 32 34 35 27 27 29 31 32 35 33 30 28 30 31 31 30 30 31
23 20 27 24 26 23 28 19 22 24 27 23 25 23 20 20 26 21 21 19 26 30 27 25 27 31 34 31 25 22 21 21 21 22 24 26 28 28 27 26 27 29 30 30
25 20 28 19 21 14 23 23 16 22 26 21 19 19 18 21 19 14 15 20 22 22 20 23 24 25 24 22 20 18 18 19 21 23 23 24 25 25 26 27 28 28 28 29
26 28 31 28 17 17 19 27 25 26 21 14 17 17 21 18 18 18 21 20 19 20 22 24 24 24 22 22 22 22 22 22 23 24 25 26 26 26 26 27 28 30 29 27
27 20 27 27 24 19 11 20 30 29 25 25 14 15 16 18 18 21 21 23 20 20 23 24 26 26 26 26 26 25 24 24 26 26 26 26 27 28 28 29 30 29 26 26
30 31 24 20 26 24 22 26 19 21 20 19 15 19 16 21 22 20 21 23 23 21 22 25 26 28 29 30 29 28 27 27 27 27 27 28 28 29 30 30 27 27 26 26
25 20 30 15 31 14 11 20 22 21 23 26 25 22 18 23 23 21 21 23 26 24 24 27 28 31 32 32 31 30 28 28 29 29 29 30 30 30 32 29 28 26 25 26
33 19 15 22 21 17 16 17 13 18 22 25 23 21 21 26 27 25 24 24 26 28 28 29 30 33 35 35 34 31 30 30 31 31 31 31 32 32 31 28 27 25 26 28
21 20 21 21 19 15 16 18 22 32 33 25 30 28 21 26 26 24 24 25 28 30 30 31 34 36 38 37 36 35 34 34 34 34 33 33 32 30 30 26 27 27 27 27

GFSCGP_700_spd_069.txt.gz
Wind_Speed
23 25 32 24 21 19 16 25 20 17 18 13 12 15 16 10 7 22 13 16 10 5 2 4 3 5 9 13 19 22 23 25 26 28 31 37 37 34 32 31 27 25 22 22
20 32 27 21 16 23 27 27 19 6 4 7 11 14 13 7 4 7 10 10 10 8 6 2 5 4 8 9 14 17 20 21 20 20 25 27 26 25 24 24 26 23 24 21
30 26 19 19 16 26 25 17 16 17 11 12 16 18 8 8 9 12 14 10 10 11 8 1 5 5 6 10 11 13 14 14 14 15 16 19 21 22 23 23 23 23 23 21
33 22 20 23 21 19 16 12 16 12 12 15 14 14 16 17 12 14 15 15 15 16 11 4 7 8 10 10 13 14 15 15 15 16 18 20 19 20 19 19 19 20 18 18
33 25 28 27 29 23 20 17 14 12 13 13 18 8 8 12 21 22 18 20 19 19 11 5 5 8 12 14 14 15 14 13 14 16 15 17 19 19 19 21 21 19 16 14
30 30 27 25 22 21 18 18 9 11 13 12 21 6 17 14 16 24 18 24 24 22 15 7 5 9 11 15 17 17 18 18 21 21 20 18 18 20 19 19 19 17 16 14
35 34 27 26 26 23 21 13 4 5 5 6 9 9 22 17 21 21 12 32 21 18 17 14 11 11 14 14 15 16 19 22 21 20 20 17 16 18 18 20 23 20 17 16
29 28 34 29 29 23 22 24 10 5 3 4 11 8 12 8 18 9 9 22 18 19 15 12 12 12 14 17 16 18 20 19 19 18 17 17 18 18 19 21 21 19 19 19
24 26 19 33 22 25 23 26 24 8 3 4 7 18 8 16 15 11 10 12 17 20 18 19 17 16 17 19 19 21 22 21 22 22 21 19 20 23 19 23 25 26 26 25
30 18 32 27 28 27 30 15 17 5 4 3 12 16 9 17 11 10 12 14 14 12 20 22 23 23 22 20 19 19 24 25 25 26 27 27 26 27 27 25 30 31 28 21
42 25 28 24 37 32 26 29 21 15 13 5 2 1 17 16 14 10 13 15 15 18 18 15 20 29 26 23 24 24 20 23 29 30 31 32 33 32 34 36 33 32 32 24
41 32 32 37 14 39 31 28 27 20 15 9 8 3 12 4 10 14 16 13 14 14 13 12 18 21 23 32 31 27 26 26 25 29 31 31 33 36 31 43 45 15 18 20
40 34 17 23 22 36 38 32 28 28 21 18 10 8 11 13 10 18 20 16 16 15 16 11 13 12 18 22 29 31 33 34 36 26 30 32 30 22 29 17 17 23 21 22
34 30 34 25 22 16 30 32 33 25 28 22 20 15 16 20 16 14 13 13 16 17 15 14 16 15 14 17 26 30 31 29 28 20 17 24 28 25 24 21 22 19 19 23
28 40 38 34 30 24 32 29 29 32 31 24 19 18 16 17 19 19 16 19 20 19 16 17 19 19 20 15 16 21 22 23 23 22 23 26 24 22 22 21 21 22 24 28
26 22 39 34 20 29 30 35 35 33 29 23 26 28 17 16 19 15 19 15 18 25 21 21 24 24 25 23 19 22 23 20 20 24 27 27 25 24 26 25 26 28 31 33
27 30 22 29 29 33 19 35 29 20 27 23 30 23 21 22 24 19 18 20 21 22 20 22 26 26 29 29 26 25 26 27 30 32 31 31 30 27 26 29 31 35 31 29
40 25 26 24 24 16 13 22 21 27 25 22 20 14 13 15 17 22 21 21 19 18 21 22 23 26 29 31 31 30 29 32 36 34 32 31 28 28 32 33 29 30 31 30
29 25 22 27 30 28 27 22 21 21 22 25 23 21 19 16 18 24 23 20 19 19 20 25 25 27 25 28 30 30 34 35 28 26 25 28 29 25 26 29 30 30 28 27
25 28 19 9 13 15 33 29 18 17 27 15 19 20 17 18 20 25 26 18 17 20 20 21 24 23 23 25 26 30 27 23 21 20 19 21 23 24 26 27 26 26 26 27
25 26 25 21 12 12 20 25 18 21 15 22 23 23 20 25 25 19 19 17 19 22 21 21 22 24 24 24 24 24 23 20 20 20 21 22 23 25 25 26 26 27 27 28
25 21 28 25 11 21 5 17 27 27 26 20 15 16 17 18 13 15 19 20 20 21 23 22 21 22 23 24 25 25 24 24 23 23 23 24 25 26 27 28 29 29 30 28
30 30 27 26 20 10 23 18 15 15 16 20 24 25 21 21 23 21 20 22 23 22 24 23 24 24 24 25 26 27 28 27 26 25 26 27 28 29 29 29 31 31 30 28
24 20 22 21 29 19 26 33 27 31 26 22 24 23 23 26 20 21 21 22 22 22 23 25 25 24 26 28 28 30 31 31 30 29 28 29 31 31 31 31 31 32 31 31
25 21 24 23 18 20 31 12 20 24 27 17 15 16 17 21 20 21 22 21 22 22 23 26 27 27 28 30 32 33 35 35 35 33 33 33 34 34 33 32 32 32 31 31
27 22 20 20 13 14 15 15 13 17 28 23 22 20 21 24 27 26 24 20 23 24 24 26 28 29 31 34 36 37 39 40 39 38 37 38 37 36 35 34 33 31 30 29

GFSCGP_700_spd_072.txt.gz
Wind_Speed
27 28 38 35 27 24 22 20 14 14 15 12 15 16 12 15 11 10 12 13 6 5 6 7 2 2 6 12 17 19 17 19 21 23 23 37 36 28 33 35 35 37 35 28
24 36 32 27 24 25 22 22 21 22 21 19 9 10 14 10 9 7 6 5 6 5 4 5 6 4 4 11 18 22 21 21 23 23 26 29 27 27 33 37 40 36 30 28
36 26 21 28 25 24 23 21 23 26 16 19 18 16 14 10 9 10 10 10 8 6 6 4 5 4 7 8 11 15 17 19 22 25 28 31 32 37 37 36 35 32 30 27
34 30 21 16 25 25 26 13 19 21 17 12 11 12 12 14 13 19 13 18 10 6 0 3 6 3 5 8 9 11 10 10 13 16 20 25 29 29 28 28 27 28 26 24
32 31 29 32 25 21 25 13 17 19 20 16 15 9 11 14 19 23 21 21 13 8 3 6 6 5 6 8 9 11 13 14 14 15 17 20 22 21 22 24 26 27 26 22
29 29 21 27 25 19 14 16 19 13 16 9 16 15 18 23 18 23 25 22 15 11 8 9 11 12 12 12 12 14 15 15 16 16 17 18 20 21 22 21 22 22 20 19
30 34 33 26 23 25 25 26 4 4 4 6 8 9 18 15 17 16 25 27 20 17 13 13 16 14 14 14 15 16 16 17 18 18 19 19 19 21 21 21 21 18 17 17
27 18 33 28 35 25 23 23 13 5 4 5 11 9 14 13 20 20 18 20 23 24 21 11 8 11 14 14 16 17 19 21 21 21 17 18 17 18 18 20 20 20 21 19
26 26 22 33 25 21 25 29 27 14 3 1 7 19 21 15 11 18 14 21 21 26 23 17 14 12 9 11 14 18 19 19 22 21 22 22 22 22 21 21 21 21 22 21
14 10 35 20 21 27 24 25 16 10 5 3 8 15 11 15 15 15 14 14 17 18 21 22 22 19 15 14 14 14 14 18 20 22 24 24 25 25 27 27 27 30 29 29
41 18 9 21 29 28 28 29 15 20 12 4 3 6 12 16 21 17 14 14 15 17 20 25 27 25 24 21 21 21 19 17 18 20 22 24 28 31 33 33 34 32 36 37
44 21 27 27 24 27 29 33 35 17 9 16 15 8 10 18 16 17 14 15 16 17 15 15 19 20 22 21 25 28 25 25 29 28 26 26 30 31 35 39 34 37 18 36
34 26 19 23 28 37 27 25 37 34 22 27 16 10 10 14 10 14 19 19 19 17 15 12 14 15 20 21 22 23 27 31 32 24 26 25 32 32 29 37 28 22 16 12
26 37 39 25 27 20 8 26 33 34 31 25 27 22 23 20 13 17 21 22 18 17 16 15 16 15 16 17 17 19 20 27 28 31 28 25 17 19 26 21 23 19 18 16
25 33 33 38 29 29 17 19 21 37 37 27 32 29 24 23 19 21 20 16 21 19 20 18 19 18 18 16 14 13 12 17 22 24 24 25 21 18 19 20 23 21 22 22
28 22 33 30 33 31 23 24 28 28 24 29 30 25 25 22 24 24 26 25 19 23 24 22 23 23 24 22 22 20 17 17 22 24 25 24 23 23 24 23 25 24 24 25
12 13 18 25 29 22 24 38 35 27 19 18 29 29 24 26 25 26 20 26 17 23 23 27 24 24 21 24 26 26 25 23 22 25 26 29 31 30 29 28 29 27 26 27
24 17 16 17 17 9 22 28 27 27 29 26 18 27 24 27 26 28 27 18 21 25 21 22 18 20 22 25 27 27 27 28 27 27 30 32 30 30 31 30 28 28 29 27
17 30 26 20 26 13 12 17 21 25 29 29 18 18 21 17 17 15 17 19 20 21 21 18 17 20 24 25 26 24 25 28 30 31 33 28 25 23 23 25 24 24 26 27
26 18 33 15 13 9 13 26 16 10 23 20 14 18 23 27 24 23 22 18 20 20 20 18 19 20 23 23 23 24 25 27 29 31 26 24 21 18 20 22 24 26 27 28
17 25 23 13 14 6 8 9 20 29 23 17 26 21 22 22 22 21 17 15 21 19 17 17 19 20 19 20 21 23 24 26 26 24 22 21 20 22 23 25 26 27 27 27
20 16 24 19 15 8 13 10 16 16 11 16 19 21 17 13 10 16 16 17 19 19 16 15 17 18 18 18 19 21 23 23 23 23 23 24 25 26 26 26 27 28 28 28
20 32 30 22 21 19 16 29 9 20 15 16 14 20 23 24 19 15 18 18 19 18 18 17 17 19 20 19 19 21 21 21 23 25 27 29 29 29 29 30 30 29 31 32
21 20 24 23 27 23 25 28 25 24 19 14 14 15 13 11 16 21 19 15 17 18 19 19 20 22 23 22 22 23 23 23 26 29 32 33 33 33 34 33 32 33 33 34
32 21 23 26 25 24 27 19 25 27 35 26 21 17 15 11 9 11 17 24 25 26 23 22 23 24 25 26 27 27 27 27 29 32 35 36 37 37 37 37 37 37 36 35
19 28 29 29 22 23 18 21 11 16 30 36 23 21 16 16 15 15 16 18 23 24 25 25 27 27 27 27 28 29 30 31 33 35 38 40 40 40 38 39 39 38 38 37

GFSCGP_700_spd_075.txt.gz
Wind_Speed
32 30 40 39 35 32 22 16 14 13 9 14 13 15 19 15 17 12 14 9 9 10 13 11 8 3 7 1 22 25 23 22 22 25 27 23 30 37 41 41 38 34 32 32
33 35 35 34 31 31 26 24 24 19 12 16 17 18 17 17 17 10 11 8 5 8 8 8 7 1 5 10 14 21 23 22 21 23 26 22 26 39 38 33 37 37 36 30
40 36 29 35 33 30 31 29 22 16 14 18 19 24 21 19 17 11 10 10 10 7 8 5 4 3 6 9 16 19 17 16 27 24 22 25 34 37 34 35 38 39 35 34
34 33 22 18 31 31 32 24 19 18 23 22 13 9 17 19 16 17 11 16 10 6 4 5 3 2 7 10 12 16 18 18 20 24 28 29 29 32 28 30 34 37 36 37
32 30 37 33 18 23 30 23 21 18 22 20 18 11 14 13 19 21 19 16 16 8 4 4 3 3 7 8 7 8 11 14 18 21 21 23 26 28 30 34 35 35 33 30
37 27 27 28 30 31 21 21 20 20 24 9 16 12 19 24 30 29 25 19 16 10 8 7 8 8 7 8 9 9 7 7 8 11 15 17 18 23 27 27 28 28 27 28
33 38 33 27 21 22 27 23 4 5 5 6 13 13 25 19 17 14 17 18 19 16 10 11 12 8 8 9 9 10 10 8 8 8 10 11 15 18 22 23 24 26 27 25
32 16 40 33 37 23 30 28 12 5 4 5 16 9 13 13 16 14 21 14 15 20 14 12 10 12 11 9 10 10 11 11 11 10 10 11 13 15 17 19 22 23 24 24
15 21 21 27 35 34 30 23 20 23 3 1 9 20 31 24 23 19 19 21 18 17 17 16 12 7 6 10 9 10 11 12 14 14 14 15 16 16 17 19 23 24 24 26
13 8 14 12 25 33 35 23 15 13 5 4 4 11 19 15 12 15 19 17 13 16 17 18 16 14 11 9 8 10 11 12 14 16 17 18 20 21 21 24 26 26 29 30
36 14 2 26 22 32 30 28 20 18 17 6 1 9 17 9 14 15 14 12 9 7 14 17 17 15 17 17 17 15 18 19 14 18 21 24 27 28 29 29 31 31 33 34
38 29 34 21 11 18 30 28 29 18 5 6 10 19 8 2 15 19 16 13 9 7 7 8 8 14 17 22 23 21 21 25 29 28 21 19 21 21 32 27 37 32 41 48
16 30 19 20 33 35 24 31 23 20 21 27 11 20 21 14 14 16 18 17 11 11 11 8 9 9 12 14 18 18 20 22 29 32 27 26 20 19 17 28 33 28 27 29
14 31 35 28 14 22 21 29 36 27 27 23 31 34 31 18 17 13 13 17 18 16 12 13 10 10 12 10 12 15 17 18 21 23 26 25 26 21 18 18 26 31 25 18
11 23 32 37 35 28 26 26 29 32 36 33 33 38 33 31 25 19 13 16 22 20 19 18 17 16 15 13 11 13 14 14 13 17 21 23 21 20 18 19 18 20 19 20
6 8 26 33 37 30 33 33 31 25 17 25 37 31 28 25 26 26 24 21 22 21 20 22 21 20 21 19 15 15 18 17 18 15 19 21 22 21 23 23 25 24 24 25
18 3 7 19 26 24 24 36 40 40 26 9 22 26 22 25 24 25 26 26 25 27 26 26 25 22 19 18 19 20 20 19 21 23 21 23 23 23 25 28 31 30 28 28
19 16 3 2 12 5 20 27 25 49 33 28 24 23 26 21 21 26 29 31 28 23 24 22 22 20 24 19 19 20 21 25 22 23 23 22 24 26 30 33 29 26 26 28
20 16 7 5 18 10 7 7 17 22 32 23 28 21 16 16 23 24 25 26 27 22 20 23 23 23 20 20 22 22 22 22 20 20 24 26 29 29 29 25 22 21 22 25
20 17 14 11 6 5 4 10 14 11 29 31 17 17 27 19 23 24 18 22 20 22 19 19 22 19 21 22 21 21 21 21 21 21 23 27 27 25 22 20 19 20 22 23
20 23 27 18 14 12 7 10 18 18 9 13 11 21 26 17 17 19 27 23 24 22 19 22 22 23 21 21 19 18 19 19 21 23 25 25 24 22 20 19 20 22 23 24
11 9 12 11 6 9 7 11 14 20 19 15 22 17 22 20 19 12 18 22 21 21 25 27 22 18 16 17 17 17 18 20 21 22 22 23 23 23 23 23 24 25 27 27
13 14 10 11 12 13 10 12 18 16 17 12 14 19 23 23 27 20 14 17 18 22 25 20 14 13 15 15 16 18 20 21 22 23 23 23 25 26 27 28 29 29 30 31
30 27 21 18 21 21 22 13 20 19 18 17 17 11 12 14 19 21 18 16 19 21 22 15 14 14 14 17 20 22 24 25 25 25 26 27 29 30 30 31 32 34 35 36
24 22 26 21 21 24 23 21 19 21 22 24 29 28 16 10 14 20 18 19 21 23 20 18 18 18 20 22 25 26 26 26 27 27 28 30 32 34 34 35 36 37 38 39
27 26 29 32 29 31 24 20 18 16 13 17 24 27 33 31 13 13 11 15 20 22 24 23 21 23 25 26 26 26 27 27 27 27 28 31 33 35 37 38 39 41 43 43

GFSCGP_700_spd_078.txt.gz
Wind_Speed
35 35 37 38 33 31 20 18 17 14 12 16 13 18 14 14 16 15 16 12 8 6 8 10 9 10 10 15 15 21 21 21 18 18 18 20 25 30 36 35 39 39 33 33
36 40 36 35 29 29 31 30 31 26 18 20 16 21 16 15 16 18 16 12 7 6 6 8 8 6 4 9 10 19 16 19 25 17 18 25 25 29 35 33 35 31 31 29
34 37 37 37 35 32 33 34 32 27 20 21 22 24 19 17 18 19 17 14 11 6 7 7 4 2 2 3 5 15 22 23 22 20 20 26 29 31 33 33 35 37 34 33
25 32 28 18 32 33 33 32 27 24 26 19 12 9 20 20 19 20 16 14 11 5 6 6 3 3 7 4 3 5 9 17 22 19 21 25 23 35 34 31 37 37 35 33
27 24 30 37 23 27 28 30 23 23 24 24 29 11 23 22 24 22 18 16 12 9 8 6 2 4 8 9 6 5 7 7 7 16 21 21 25 24 24 23 26 33 34 34
40 32 23 22 30 19 4 11 15 17 20 8 26 19 18 18 22 23 20 20 18 14 12 9 8 8 8 10 10 9 8 10 13 14 15 19 22 23 25 26 28 31 33 35
31 36 33 24 18 27 32 24 3 2 3 7 11 17 28 25 25 22 15 10 10 17 15 14 11 7 7 7 9 9 9 10 11 13 15 18 20 21 22 24 26 29 31 29
31 17 35 31 30 24 27 35 11 6 5 5 13 9 12 15 15 15 16 10 11 20 15 13 12 10 8 7 8 8 7 9 11 12 13 15 17 20 22 25 27 29 29 29
9 18 15 23 31 32 18 38 31 8 0 1 9 16 24 26 23 18 17 17 13 15 19 16 12 10 8 8 7 7 9 8 9 10 13 15 17 20 21 23 25 27 29 31
21 16 9 9 19 31 39 20 16 19 5 4 5 10 16 16 15 15 13 14 14 13 14 15 17 14 11 8 8 9 9 10 12 14 15 16 17 19 21 24 27 28 29 31
30 18 13 10 19 27 32 39 21 15 19 6 3 8 18 13 10 13 7 8 9 9 15 16 19 17 17 15 14 12 11 10 11 15 18 20 20 20 21 23 25 25 26 28
7 18 23 31 14 11 27 37 40 20 6 9 13 20 17 15 6 11 12 11 9 5 6 8 12 17 19 16 16 16 17 16 17 19 18 17 19 21 19 22 29 27 29 27
4 6 17 25 37 29 23 22 31 32 24 24 13 8 19 21 15 9 14 16 12 7 8 8 9 4 11 15 14 15 16 18 18 21 23 22 24 17 16 15 12 27 33 33
17 14 19 19 13 15 26 25 19 25 25 20 28 20 24 27 22 13 9 13 16 13 12 11 8 7 4 3 5 8 11 11 13 15 17 18 22 21 21 20 17 18 23 29
20 22 22 32 30 30 26 20 26 29 34 30 31 29 27 28 21 19 16 16 15 18 16 14 10 9 10 8 5 5 6 10 12 12 13 14 14 18 20 21 21 18 18 19
23 26 17 26 30 24 32 37 36 31 28 31 37 35 35 31 31 27 22 20 18 16 14 19 15 15 14 14 9 11 10 10 13 13 15 15 16 19 19 20 21 22 23 23
20 12 14 5 18 21 21 38 33 32 31 29 33 27 25 31 31 21 21 24 25 23 20 21 22 20 19 20 16 14 15 14 17 17 17 20 19 19 20 21 23 24 27 29
21 22 18 4 12 3 11 12 21 30 32 38 39 33 23 22 24 28 27 25 24 23 25 23 27 23 21 20 22 19 18 18 20 21 19 21 23 22 22 23 24 27 31 32
22 25 8 5 8 11 6 3 10 14 22 21 42 41 32 23 24 26 27 23 25 26 26 27 21 19 24 22 21 21 19 21 23 23 21 20 22 24 24 26 28 32 31 27
26 23 20 7 4 3 1 2 8 14 20 23 20 30 22 16 23 24 19 20 15 18 23 24 23 24 24 23 21 20 24 26 24 22 21 20 23 25 27 28 28 27 25 25
16 21 25 16 9 9 15 12 16 11 12 14 16 27 24 11 15 20 23 20 20 15 20 21 22 23 23 22 23 25 26 25 22 20 19 21 23 25 25 24 23 23 24 24
5 11 16 13 8 8 9 10 10 16 18 17 13 13 30 21 14 14 17 16 18 16 19 23 24 26 26 26 25 25 23 21 20 20 21 22 23 24 24 23 23 24 25 27
9 8 1 4 8 11 12 13 10 12 16 19 16 9 9 16 18 24 15 13 19 21 22 24 26 25 23 23 22 22 21 21 21 21 21 21 23 23 24 24 26 27 29 31
21 20 20 19 14 13 15 15 15 13 18 21 20 19 16 7 10 18 26 23 22 22 26 20 21 21 20 19 20 21 23 23 22 21 21 22 22 23 24 25 27 29 31 33
14 19 23 26 22 25 19 13 11 16 22 22 23 17 18 24 17 17 18 17 25 21 24 26 23 21 22 22 23 24 24 23 24 22 22 22 22 22 23 25 27 28 30 32
13 17 21 25 25 24 21 19 17 19 21 20 19 18 17 18 20 23 25 22 21 17 25 18 19 20 20 19 19 22 26 26 26 24 22 24 25 24 22 22 21 20 21 22

GFSCGP_700_spd_084.txt.gz
Wind_Speed
34 31 33 31 35 28 25 19 22 21 12 12 15 18 23 21 22 21 19 16 14 14 17 15 13 13 13 12 14 9 22 19 17 21 22 23 22 21 22 28 41 50 46 37
20 33 29 28 25 27 26 24 28 23 16 16 20 24 23 22 24 21 18 18 15 15 16 14 14 14 11 10 13 4 18 19 22 21 23 25 25 21 18 24 39 48 45 36
24 11 19 28 28 27 27 28 29 23 18 21 24 28 28 24 25 26 22 17 16 15 13 14 14 14 10 7 8 2 15 18 19 20 22 27 27 27 25 23 33 40 41 37
21 25 18 22 29 26 28 25 24 24 22 21 7 15 14 15 20 20 22 21 18 15 13 13 12 13 9 6 2 1 10 18 19 25 20 21 27 30 28 29 40 46 43 40
15 13 21 26 25 22 25 18 20 17 19 21 22 17 16 16 19 19 20 20 20 15 14 13 13 12 9 7 4 1 4 15 18 20 24 22 25 26 30 33 35 40 40 46
20 12 14 16 20 19 13 13 10 10 12 13 23 18 19 19 16 11 12 16 17 22 15 15 16 11 9 8 6 3 3 5 13 18 22 19 26 28 34 34 35 26 27 45
29 32 20 18 10 15 19 13 6 9 8 9 8 15 23 6 10 10 11 12 15 16 23 19 17 8 8 8 9 8 6 6 6 13 19 23 26 22 26 30 30 28 32 48
11 10 33 36 32 18 23 23 10 9 9 8 7 9 18 9 15 15 11 11 13 14 20 23 19 13 10 10 10 10 10 8 8 9 12 17 23 25 26 31 26 26 28 44
4 8 9 14 24 29 21 30 23 20 19 11 15 12 15 15 13 12 12 16 16 18 19 25 23 18 13 11 10 11 11 11 10 9 10 12 16 20 22 28 27 26 27 34
5 6 7 8 13 22 28 10 17 20 7 11 11 14 11 4 6 8 8 11 17 21 20 27 24 20 16 15 14 14 14 13 14 14 13 13 13 15 17 20 22 24 26 31
10 7 4 7 12 19 20 24 21 17 25 11 11 9 10 17 12 7 13 11 15 19 22 28 25 22 18 18 17 17 18 18 18 17 17 17 17 18 18 18 19 21 24 27
5 6 12 17 8 12 16 23 26 24 17 19 25 23 3 8 10 9 7 6 7 17 20 26 30 26 25 22 19 16 16 18 19 19 20 20 20 20 21 20 20 21 23 25
4 4 8 9 15 18 16 15 23 29 28 31 16 5 11 23 22 9 4 3 2 8 18 20 26 29 29 27 25 22 20 19 18 18 18 21 23 22 21 19 21 23 26 29
11 10 11 11 4 4 10 13 19 23 31 29 40 30 21 17 14 12 13 13 6 5 13 18 18 21 30 30 29 27 26 24 22 21 21 22 22 24 24 25 27 27 31 35
11 16 16 20 21 20 21 22 21 27 35 32 28 29 28 30 24 19 19 22 15 12 11 18 20 18 18 22 27 29 29 26 25 22 21 22 21 25 29 30 32 33 24 29
8 9 10 17 18 21 23 29 29 33 32 33 32 31 20 15 18 20 21 22 22 21 13 16 21 23 18 18 21 25 27 26 24 20 17 17 19 23 24 29 33 35 30 31
11 8 6 10 6 13 25 16 22 36 36 33 29 26 20 18 18 21 20 22 29 24 22 19 24 27 24 21 21 22 20 23 22 19 16 16 19 20 22 23 24 25 31 35
17 14 10 11 13 13 15 27 22 25 33 32 32 27 22 21 21 19 18 28 34 32 31 27 23 31 31 29 27 28 26 25 23 22 20 19 19 19 22 25 26 25 28 33
25 20 12 9 16 16 14 27 15 9 14 23 30 24 22 20 19 21 26 29 30 37 34 31 28 26 24 33 30 30 31 31 29 27 25 25 25 26 26 25 29 30 30 32
24 22 20 13 9 4 4 13 13 12 8 4 7 3 2 6 12 11 22 26 27 25 20 34 32 29 35 36 28 32 30 32 32 33 32 30 30 30 29 27 29 32 32 33
23 23 27 23 9 8 3 7 12 7 0 3 8 6 4 4 10 15 19 17 22 24 25 21 32 36 34 38 41 39 41 38 37 36 37 35 35 33 31 29 29 32 33 33
14 17 19 20 9 9 6 3 5 5 12 3 2 7 5 8 16 13 23 30 28 23 26 27 24 25 32 39 43 41 35 39 36 39 40 38 37 35 32 29 31 31 32 33
10 11 13 13 12 6 7 6 3 8 8 9 9 9 5 12 12 15 15 14 29 27 15 21 28 19 23 29 39 40 46 45 40 38 37 37 37 34 30 30 31 31 32 33
6 9 7 4 0 4 5 15 14 12 9 9 13 12 14 17 14 15 18 18 24 34 29 11 20 32 25 17 20 32 36 37 35 35 36 34 32 31 32 31 32 31 32 31
9 9 6 9 14 19 8 22 22 20 13 13 16 16 19 13 11 11 12 15 17 15 33 20 9 17 24 24 16 25 29 29 31 33 33 32 33 30 29 31 29 27 29 28
13 14 11 8 12 14 16 20 22 22 24 18 19 18 13 9 7 6 7 15 17 12 11 17 10 6 8 13 25 25 24 23 23 25 25 25 25 28 25 27 30 29 27 30

GFSCGP_700_spd_087.txt.gz
Wind_Speed
33 32 38 33 30 32 28 29 29 22 18 13 19 24 23 20 22 22 20 19 19 19 16 20 19 17 17 19 15 17 17 15 15 17 17 15 15 19 27 29 30 37 42 38
23 38 36 31 29 28 30 33 32 30 25 20 21 26 26 25 25 24 24 20 20 19 18 21 17 15 15 17 13 16 12 18 16 15 16 16 20 21 20 22 19 26 36 42
28 15 25 31 32 30 33 33 30 31 26 24 21 29 28 29 28 28 25 23 20 21 21 19 16 14 15 15 10 11 9 18 18 19 18 24 23 22 21 15 15 39 42 49
29 27 18 21 32 28 32 28 27 26 27 26 21 21 23 20 16 21 22 23 21 21 21 19 16 13 12 12 9 8 8 16 19 18 23 23 23 23 19 16 12 20 35 43
26 21 27 31 26 24 31 21 22 24 28 24 26 25 26 21 24 20 20 21 19 20 22 19 16 13 12 11 10 7 6 14 16 17 21 23 25 19 19 21 16 21 39 39
27 15 17 24 24 20 17 19 19 17 20 21 25 25 22 21 21 15 14 15 20 20 21 20 19 14 12 11 12 8 5 6 15 18 21 21 27 22 25 27 23 25 39 40
26 29 22 15 17 18 19 18 12 14 15 13 20 18 21 7 7 9 9 7 14 17 21 22 23 13 11 10 12 9 6 3 7 15 18 22 22 26 26 25 23 30 37 43
18 15 35 31 24 15 23 25 13 11 10 11 26 12 17 15 16 20 17 12 11 15 19 23 25 16 13 13 13 12 8 5 3 8 16 17 19 16 20 20 24 28 28 25
6 15 7 16 35 28 22 26 25 29 25 12 13 10 11 14 14 10 12 13 14 16 17 21 25 23 16 15 14 13 12 10 7 6 8 14 18 21 20 19 23 25 26 24
7 11 7 11 10 23 35 21 20 24 16 17 17 21 24 7 10 12 9 8 12 17 18 21 23 25 20 17 16 15 14 14 12 11 10 10 11 14 18 23 28 23 21 23
7 9 5 8 14 16 21 33 24 19 24 11 9 9 3 8 10 7 5 8 8 12 19 23 23 27 23 22 20 18 16 15 14 14 13 13 13 13 15 17 21 24 25 25
5 5 11 14 3 10 18 20 26 25 21 21 25 24 6 3 8 12 2 4 5 12 15 22 24 28 26 24 23 22 19 18 16 16 15 14 14 15 16 16 17 20 22 25
2 5 9 14 14 15 16 15 19 23 25 29 18 16 6 20 12 10 9 4 5 5 9 19 25 30 27 25 24 22 19 18 19 20 19 19 18 17 16 16 16 18 20 22
10 11 13 14 10 6 10 17 15 18 25 24 29 28 25 12 16 14 8 8 5 4 4 10 18 30 31 30 29 28 24 21 20 19 20 20 20 20 20 22 23 25 26 28
9 15 16 20 24 19 18 18 19 24 24 28 25 26 24 25 25 21 16 13 13 9 7 9 16 21 27 32 34 34 30 29 27 24 23 22 22 23 24 27 27 29 29 28
8 12 12 17 21 25 28 26 25 26 26 32 30 33 25 22 19 20 25 24 19 15 13 10 13 20 21 24 30 36 35 34 31 29 26 25 26 27 27 30 31 31 31 31
12 9 9 16 14 14 20 28 29 27 24 27 33 31 24 21 21 19 17 19 19 18 18 22 20 17 25 25 25 27 31 33 34 33 31 28 27 27 29 30 31 31 32 36
18 15 12 8 11 10 17 11 17 18 27 28 33 30 27 23 20 20 18 21 21 17 22 23 34 29 23 26 30 28 27 29 30 30 29 28 25 24 24 25 26 27 26 27
24 19 9 8 13 19 23 17 13 16 29 11 16 27 25 25 24 25 19 22 26 33 31 31 30 37 34 30 26 31 31 30 29 29 30 29 26 24 23 23 25 28 28 26
25 23 22 11 12 6 1 2 9 7 13 11 7 5 10 18 17 12 19 29 31 33 32 34 31 34 36 36 37 35 35 36 33 35 35 34 33 32 30 30 30 29 28 30
23 24 24 21 18 12 6 5 8 4 7 8 1 2 8 7 2 5 11 15 22 23 25 28 28 31 37 38 42 35 30 27 30 33 40 41 40 40 39 33 34 34 33 32
15 18 16 23 17 17 9 6 2 7 15 19 12 8 10 6 2 4 6 8 18 28 26 26 29 30 27 40 38 39 43 39 40 42 42 43 45 44 42 41 41 39 36 35
9 15 8 12 17 6 3 3 3 5 8 14 11 9 13 16 9 6 13 12 12 16 17 29 31 33 33 27 39 41 41 47 55 52 44 44 46 47 48 47 42 41 39 39
5 13 5 6 17 14 4 12 3 11 11 12 14 14 11 12 12 8 14 14 13 16 19 17 23 23 30 31 25 25 38 46 47 52 45 45 44 45 46 37 39 46 40 38
8 6 7 8 7 2 5 6 15 17 19 21 19 17 16 14 11 11 11 10 13 18 19 19 17 26 21 24 28 22 21 25 30 34 37 45 40 41 41 41 42 38 42 37
12 11 8 6 9 8 14 18 16 17 18 20 19 18 20 17 12 10 10 10 10 11 13 17 20 21 16 24 15 13 14 12 15 20 26 29 33 34 34 34 35 35 34 34

GFSCGP_700_spd_090.txt.gz
Wind_Speed
24 27 34 27 30 33 31 32 35 32 29 29 30 21 24 22 22 23 24 24 21 21 20 23 25 21 20 21 18 20 19 23 21 19 13 15 17 16 12 10 18 19 41 55
19 33 26 27 29 29 31 32 39 35 35 33 27 25 25 28 27 25 25 25 25 19 21 25 30 19 18 20 16 17 18 20 15 8 10 12 12 9 4 11 31 31 46 54
26 24 23 25 31 33 33 35 30 33 34 35 32 36 26 29 30 29 31 28 25 23 25 29 29 18 16 18 14 15 16 17 12 11 12 13 9 10 15 19 32 37 35 44
26 23 27 21 22 30 35 29 32 30 30 33 27 22 30 28 25 30 35 26 28 24 21 28 29 18 14 17 12 13 13 15 12 13 17 9 9 9 10 17 14 17 24 34
35 27 26 28 29 21 32 24 24 24 28 35 37 27 25 24 25 23 19 22 23 26 23 28 28 21 14 15 12 11 11 13 12 14 16 14 15 15 12 12 8 4 15 25
30 25 22 27 23 29 19 19 21 22 27 24 34 33 27 30 29 25 17 20 22 22 21 25 26 25 16 15 11 10 9 10 11 13 14 13 17 14 14 13 11 9 14 23
30 32 26 21 20 17 23 18 13 7 8 12 24 24 28 23 22 19 20 16 15 22 21 24 27 31 19 14 9 10 10 8 8 10 14 14 18 16 15 16 13 13 16 27
16 20 29 27 29 21 28 28 15 12 7 5 17 15 27 21 21 10 6 13 9 17 20 23 27 31 20 15 11 10 10 9 7 5 9 13 19 14 18 18 16 14 15 26
11 15 13 22 31 28 22 33 26 28 34 6 13 18 10 8 13 12 15 20 15 15 17 19 25 30 23 17 13 10 11 11 8 5 7 10 12 15 13 17 17 18 18 21
12 13 7 11 11 33 27 21 25 26 16 16 15 16 16 19 20 14 12 12 13 13 17 21 25 30 22 20 16 13 13 12 10 7 6 7 8 12 15 19 19 21 22 24
7 14 16 7 13 15 25 35 26 20 23 10 8 2 5 2 5 13 13 7 9 11 13 22 23 28 22 23 19 16 15 14 11 10 8 7 8 9 11 12 16 19 21 23
4 4 12 16 10 11 20 22 30 19 17 17 22 14 10 9 11 6 8 3 4 6 16 15 23 26 25 23 23 19 17 16 14 13 13 12 11 11 11 12 13 19 21 21
5 3 7 13 14 9 9 14 22 27 27 27 14 19 17 10 16 7 5 1 3 4 6 14 20 24 27 22 24 23 20 19 17 18 16 15 14 15 14 14 15 17 19 21
13 11 11 12 8 10 12 13 18 18 20 20 26 25 26 21 14 8 5 5 6 4 9 11 18 21 28 24 25 25 22 21 19 17 19 18 16 15 15 16 18 19 20 21
6 14 17 24 21 16 20 19 15 16 17 18 19 22 22 20 17 25 20 17 9 7 5 8 9 19 25 28 28 29 27 26 24 22 17 17 17 17 19 21 23 23 25 26
7 8 11 18 20 18 21 22 22 21 20 21 24 28 24 27 21 19 17 20 24 16 13 12 11 12 18 26 29 31 33 33 32 29 26 22 22 22 22 23 24 26 27 27
10 5 7 18 16 17 20 18 22 26 23 24 22 22 20 27 28 22 22 20 16 15 17 15 14 10 12 17 24 25 27 32 36 35 32 31 29 26 25 26 27 28 29 29
18 11 11 9 11 7 11 15 11 13 15 18 23 23 28 30 25 26 20 18 19 22 21 22 22 25 20 15 17 19 25 26 28 34 37 37 35 32 30 30 29 29 29 28
22 19 7 5 10 18 23 15 15 10 10 18 21 24 21 22 26 24 28 27 12 19 24 27 28 27 22 29 31 20 25 24 28 28 30 33 36 35 32 31 29 28 28 29
23 19 20 7 6 5 3 5 2 9 11 10 19 12 11 5 10 15 5 19 24 31 27 29 30 30 27 29 28 39 29 30 25 27 29 32 33 34 34 33 33 33 31 30
28 24 25 20 13 10 17 24 7 6 6 13 20 17 5 6 3 15 17 5 16 25 27 24 29 28 25 26 27 29 32 33 39 31 30 33 36 39 40 38 38 38 39 39
22 18 16 18 14 14 13 11 2 2 7 11 15 20 9 3 3 4 1 13 25 26 22 25 30 30 27 26 27 29 37 43 39 53 36 34 29 32 36 37 43 44 44 44
10 18 16 12 11 15 14 8 6 1 7 8 11 17 21 7 5 9 6 7 7 5 8 12 14 19 33 29 27 27 32 35 39 43 44 39 35 37 34 47 46 43 42 46
10 14 14 12 14 12 17 17 4 5 8 11 12 18 17 17 9 11 14 13 9 10 14 15 16 16 17 26 26 24 31 35 40 40 47 50 49 44 48 45 42 40 46 53
11 14 9 9 11 8 9 6 6 7 13 18 15 15 19 16 16 14 15 10 10 11 12 13 17 18 17 18 21 21 26 28 31 44 45 46 44 50 51 54 51 49 49 45
4 4 3 5 6 7 3 12 13 13 14 17 16 12 15 16 16 17 13 10 6 7 13 15 17 19 13 10 15 20 21 24 27 28 32 35 37 41 45 40 44 42 42 43

GFSCGP_700_spd_093.txt.gz
Wind_Speed
25 32 38 34 35 38 33 28 32 31 26 23 30 36 35 25 33 30 25 27 28 23 26 32 32 33 23 18 17 18 20 19 18 20 16 16 17 19 21 23 25 28 31 35
21 36 29 28 30 26 27 30 35 33 29 32 35 43 37 25 25 31 30 23 25 26 27 33 34 32 23 18 17 18 19 17 18 14 7 5 8 14 17 18 20 21 24 24
25 29 12 20 21 26 31 35 32 32 29 23 30 47 43 27 28 28 33 33 30 27 32 35 35 33 23 19 18 18 18 15 16 11 6 9 11 13 18 19 21 18 24 28
28 28 25 26 31 25 31 25 31 34 27 20 21 20 42 30 25 31 30 32 28 32 30 35 37 33 22 19 19 18 17 14 13 11 6 11 9 11 12 6 6 26 37 48
40 15 23 27 26 23 26 19 24 26 21 28 25 16 33 37 30 32 32 26 29 33 37 31 34 30 23 21 19 18 16 12 11 11 9 11 13 14 9 9 13 25 37 47
36 30 24 25 23 23 23 23 14 17 20 11 23 20 16 30 31 30 27 21 21 28 36 33 28 26 25 22 20 18 14 11 8 10 8 10 13 12 12 14 19 14 31 33
36 38 32 28 25 15 20 19 4 5 7 6 18 18 32 29 26 29 26 22 21 28 32 36 34 33 29 24 18 16 14 10 7 7 7 6 9 13 11 12 17 18 16 22
18 8 23 36 36 23 25 19 12 6 4 3 13 9 12 18 34 31 19 15 23 24 30 32 29 27 26 20 17 15 12 8 6 4 5 6 13 16 15 16 15 14 11 12
8 10 12 20 25 27 24 26 31 24 22 5 8 22 34 11 14 19 22 15 20 13 25 28 25 23 25 19 17 14 11 8 6 2 4 5 8 15 16 18 14 16 14 11
16 11 9 7 15 26 33 20 21 21 4 10 12 20 19 18 15 10 20 11 19 17 19 21 22 24 17 14 17 16 12 9 8 5 2 4 6 10 14 15 19 17 19 16
14 11 10 2 15 18 23 29 16 14 13 3 2 6 7 20 9 2 5 14 17 18 16 22 27 25 19 14 16 17 15 11 7 7 5 3 4 7 12 13 16 17 25 22
7 6 6 11 13 13 17 24 35 21 11 20 23 28 13 7 15 4 13 11 10 19 21 18 22 29 21 16 16 20 18 13 11 10 9 7 6 5 6 8 11 16 19 28
6 2 2 5 10 7 5 16 23 25 31 27 10 14 10 10 20 20 4 13 3 4 8 22 15 27 23 18 15 20 20 17 14 14 12 11 11 9 7 8 10 13 16 20
6 5 2 3 8 12 15 14 6 10 16 22 32 36 33 19 11 15 11 18 8 4 6 7 10 19 20 20 16 18 23 20 18 17 15 15 13 12 12 12 13 14 14 16
3 5 12 20 17 12 18 22 17 16 13 15 28 25 22 17 19 14 13 15 14 3 3 7 6 17 17 18 20 19 22 23 22 20 19 16 16 16 16 16 17 18 19 19
1 6 8 13 10 10 17 21 21 22 21 18 15 18 19 22 22 22 13 7 17 17 19 10 9 12 15 20 24 24 20 24 26 25 24 22 21 20 19 19 18 19 21 23
6 6 5 6 8 10 12 19 19 16 18 17 20 16 27 28 26 24 19 13 16 13 14 17 15 13 16 18 20 20 19 19 23 30 32 29 27 26 24 23 22 22 22 23
17 9 7 8 13 2 4 7 10 12 6 19 19 18 19 29 31 26 23 23 23 23 19 18 21 20 21 19 18 22 21 16 12 16 25 35 34 31 30 28 27 25 26 25
24 16 8 4 4 12 14 6 4 6 9 12 15 19 22 27 28 23 18 15 11 19 22 20 19 19 21 22 21 25 26 25 21 17 18 23 30 35 36 35 33 32 30 29
25 18 18 4 4 3 8 7 7 7 4 10 14 19 19 23 21 12 15 19 22 15 16 17 17 22 25 26 26 28 29 32 33 29 23 21 21 26 30 32 37 37 37 34
24 22 24 23 8 6 10 13 20 4 1 7 7 11 24 7 5 6 10 14 12 13 16 20 25 30 31 31 28 25 29 30 36 39 36 31 28 25 32 33 35 35 37 37
19 17 18 15 5 9 12 13 6 4 7 6 8 10 18 13 13 5 5 10 13 11 9 26 17 18 22 29 31 27 29 31 31 36 40 44 40 30 32 27 26 31 35 37
13 20 8 10 8 9 9 5 8 4 3 6 8 10 13 19 18 13 8 7 2 2 4 10 10 14 19 23 25 29 28 32 30 33 38 39 38 35 34 43 42 29 32 34
8 14 13 14 12 12 12 12 10 8 7 8 12 13 12 15 17 19 9 8 4 3 7 7 11 15 18 18 21 21 25 28 28 31 40 40 40 41 41 41 45 47 51 50
9 7 12 10 12 17 7 3 5 8 7 10 16 19 17 15 14 15 10 9 5 4 5 9 11 13 17 16 16 16 16 18 20 24 36 36 38 40 41 41 40 45 48 50
9 11 3 11 8 11 10 2 8 8 12 13 14 17 16 15 14 13 12 10 10 8 10 11 10 12 13 15 12 12 10 9 16 19 20 22 28 40 38 49 48 45 46 41

GFSCGP_700_spd_096.txt.gz
Wind_Speed
27 34 42 37 32 35 36 33 33 31 26 24 30 38 34 35 36 37 29 30 30 29 28 27 29 28 26 27 21 20 21 23 22 21 21 21 19 18 24 28 26 30 32 24
24 39 36 31 30 31 33 35 41 38 33 30 35 46 43 42 37 38 28 27 28 26 28 32 32 29 27 29 24 19 20 22 21 20 18 14 9 15 26 29 30 28 32 28
27 18 18 26 27 29 31 33 34 36 26 26 29 44 43 44 45 44 35 27 24 33 28 36 36 33 29 28 22 18 20 22 19 19 15 10 9 9 15 22 26 31 32 34
23 25 25 18 21 20 29 19 22 28 30 24 23 29 36 41 43 40 40 35 28 28 38 35 38 39 33 29 23 19 20 22 19 17 14 11 13 13 16 19 23 25 32 39
23 4 15 25 29 23 34 22 31 27 32 27 15 12 42 33 45 40 45 38 34 31 32 38 39 35 36 30 24 20 20 22 17 16 15 12 16 14 21 19 21 30 32 31
34 29 22 23 21 23 22 19 17 14 21 11 17 5 48 24 35 31 33 40 37 30 31 31 38 39 31 31 25 21 20 21 16 15 15 10 12 15 18 19 15 19 23 20
38 42 38 33 31 26 21 14 5 5 4 6 12 13 36 34 22 31 32 41 36 34 33 36 34 37 28 28 25 20 19 18 15 13 13 7 10 17 14 7 4 4 11 25
17 15 35 34 41 34 33 23 15 5 5 8 19 11 10 22 34 20 11 29 36 30 35 29 33 34 31 24 22 18 18 15 13 11 11 6 9 15 11 11 10 9 11 26
9 12 8 11 17 40 38 28 26 22 12 6 11 18 25 16 22 15 7 13 32 31 29 31 35 32 25 20 20 16 17 13 11 9 8 5 10 14 14 14 15 17 16 18
20 12 18 11 16 18 37 34 14 19 6 13 9 19 19 24 14 9 3 5 15 12 22 25 29 27 20 17 15 14 17 13 11 9 6 4 8 12 14 22 20 18 21 19
31 23 14 9 6 17 30 22 15 11 16 6 2 4 4 11 16 13 10 4 1 15 25 21 22 21 17 13 10 14 18 14 11 7 6 3 4 9 14 17 20 19 23 21
22 16 17 20 7 5 13 29 31 20 9 17 17 12 14 18 19 31 15 4 16 11 4 13 23 21 20 19 11 12 20 16 14 11 8 6 4 5 8 13 14 18 20 24
14 10 4 6 11 11 10 10 4 14 27 26 8 5 13 17 12 24 8 12 6 8 11 3 18 19 18 21 13 9 18 18 16 15 12 11 8 6 5 7 12 15 16 22
4 6 4 3 3 4 8 8 7 6 4 7 11 17 21 15 15 13 11 14 2 8 12 12 7 13 19 19 13 8 11 18 18 17 16 14 12 11 10 9 9 10 14 17
4 3 8 6 6 7 10 12 12 14 12 10 15 13 9 11 13 7 12 10 16 6 5 6 2 10 16 15 14 12 11 12 19 21 18 17 16 15 15 15 15 14 14 14
1 0 4 6 6 7 15 16 11 14 12 18 15 12 11 8 9 13 12 16 12 15 17 8 3 7 8 15 16 14 14 15 16 21 21 21 20 19 18 18 18 19 19 19
4 3 6 2 4 10 7 6 8 8 11 13 14 12 14 13 16 18 15 12 7 2 12 7 11 13 16 17 17 19 20 17 14 16 19 22 26 25 23 22 22 22 22 24
10 9 5 4 9 2 2 9 6 3 4 2 2 6 10 11 13 18 21 22 16 16 12 16 14 12 13 15 16 14 18 24 19 18 14 15 23 27 29 28 27 26 27 27
21 19 4 2 0 11 4 3 4 8 5 10 10 10 14 13 14 21 20 22 16 14 13 16 16 18 15 12 15 17 16 17 22 25 26 21 15 17 25 31 32 31 31 31
23 17 8 6 2 3 1 3 6 8 1 9 10 11 13 17 11 5 9 8 15 13 14 17 21 22 21 17 16 16 18 22 28 29 30 34 28 21 20 21 26 30 34 36
11 12 16 13 4 6 10 10 12 3 4 3 5 8 9 11 18 8 6 14 6 13 11 19 20 20 25 28 27 31 28 28 28 32 34 34 34 36 30 24 22 23 28 31
16 12 12 12 6 8 7 9 6 4 10 6 6 9 10 13 16 12 4 10 7 7 11 17 21 23 21 25 28 33 33 33 33 32 35 35 34 35 36 41 36 25 22 26
6 8 7 7 6 11 5 6 2 5 2 2 5 7 10 11 16 20 5 8 11 8 3 1 4 10 18 19 20 22 27 29 31 34 32 35 35 36 37 37 36 35 34 35
3 9 10 9 10 11 7 9 5 5 6 9 8 11 12 11 10 11 14 12 12 3 3 2 3 7 9 11 11 14 18 22 27 29 29 28 31 34 38 37 36 39 38 39
4 1 9 12 16 10 9 3 4 1 3 6 9 15 16 13 11 7 7 10 13 11 4 3 5 6 9 12 13 13 16 16 15 19 18 18 24 26 32 33 37 38 44 50
4 2 6 5 8 16 16 11 3 3 4 7 11 11 12 13 11 9 7 9 9 10 11 10 11 9 8 9 9 10 13 12 11 11 10 13 18 21 28 33 29 36 45 51

GFSCGP_700_spd_099.txt.gz
Wind_Speed
31 36 42 38 38 37 37 29 27 27 23 31 37 43 41 38 39 41 39 37 35 30 29 27 25 25 21 28 30 20 24 21 23 25 27 25 26 29 27 27 28 28 30 25
23 38 38 36 34 35 38 36 35 33 30 31 37 48 42 39 38 37 42 41 39 32 28 29 27 26 23 23 24 24 24 22 22 24 26 25 27 25 23 22 29 32 29 29
26 21 18 32 35 36 37 35 31 29 24 26 31 49 41 37 37 40 43 42 37 35 28 29 25 26 27 25 26 23 25 23 22 23 25 24 25 22 18 19 26 32 30 26
22 25 23 12 23 28 35 29 25 22 21 19 14 21 37 32 34 33 33 34 37 44 36 27 29 28 29 27 30 28 27 24 23 22 24 23 24 21 17 12 23 33 33 31
18 9 10 29 30 16 24 12 18 19 24 27 31 15 17 9 33 37 29 31 30 40 42 34 31 27 28 29 28 32 28 25 23 22 23 23 23 22 20 19 20 25 31 32
35 25 15 11 13 18 17 17 17 19 18 9 23 19 38 23 18 27 29 26 31 30 44 39 26 29 26 35 29 32 30 26 22 21 22 21 23 22 22 19 19 21 29 34
33 39 34 24 19 18 15 11 3 3 4 7 11 17 34 21 33 21 30 34 29 24 42 40 36 33 24 28 32 27 29 24 20 21 20 20 21 20 19 17 17 20 24 31
4 8 20 32 40 32 27 24 13 6 4 9 17 12 22 25 26 28 32 35 26 17 30 35 40 29 29 27 29 26 26 19 19 18 17 17 17 15 17 18 16 15 16 31
4 9 10 10 9 30 37 33 24 29 22 6 9 18 27 19 27 29 30 26 18 15 23 31 35 30 24 22 25 21 24 18 18 15 14 12 14 13 15 16 13 14 9 14
14 16 14 11 9 13 26 29 19 17 7 13 4 6 15 22 31 32 28 16 7 9 19 28 33 29 25 24 20 18 21 18 17 15 12 9 10 11 14 14 11 11 10 7
22 23 23 17 8 7 19 31 28 23 27 8 9 7 9 13 23 24 32 12 13 18 10 9 25 28 28 24 17 18 20 18 15 12 9 6 7 9 11 12 15 14 14 16
6 10 17 27 23 14 11 23 26 17 8 7 9 15 14 21 28 28 33 23 10 13 11 12 26 28 28 23 19 15 17 18 16 13 10 7 6 7 7 9 11 16 15 21
7 7 8 6 18 18 7 12 13 17 14 15 9 6 10 19 27 18 19 34 6 10 5 2 14 26 25 23 22 15 14 16 17 15 13 11 8 7 7 6 8 11 15 16
8 8 10 10 5 13 7 6 3 2 3 3 10 15 15 17 8 13 24 36 15 11 11 10 20 19 26 24 23 17 13 15 17 17 16 14 11 9 9 9 8 9 11 13
4 4 11 7 6 6 14 8 11 9 1 4 7 11 11 12 13 14 17 20 24 7 12 8 5 18 22 27 29 28 20 17 15 15 16 15 14 13 12 13 13 11 11 12
11 2 6 3 5 5 8 11 12 13 10 10 16 17 11 12 6 9 11 13 18 11 15 14 3 11 15 15 20 24 22 18 16 15 14 15 17 15 15 16 16 17 15 15
8 9 10 3 2 4 2 1 3 9 11 10 13 14 14 14 12 11 12 13 13 12 17 15 7 6 7 10 14 17 18 18 16 13 13 15 15 17 18 18 19 20 21 21
11 10 9 7 7 1 4 6 3 7 5 7 7 5 2 2 2 8 11 12 8 8 10 11 14 6 8 8 8 10 11 11 15 12 14 13 14 16 19 20 22 23 25 26
19 18 7 2 4 4 12 9 6 4 8 4 5 1 1 6 10 13 11 7 8 10 13 13 12 11 8 10 11 13 13 13 14 14 19 19 23 19 18 19 23 27 28 29
12 22 13 5 4 3 7 6 3 5 5 8 3 3 5 4 8 10 10 9 11 9 14 17 17 14 12 10 14 15 14 14 13 17 19 20 21 23 29 28 23 21 25 30
1 13 19 14 7 5 8 8 5 4 3 1 1 3 6 10 12 18 10 11 12 12 16 17 14 17 19 20 18 20 22 23 23 25 25 27 29 30 30 32 35 32 23 24
6 11 15 17 8 7 7 4 2 2 6 4 1 4 7 8 11 13 10 9 8 17 10 14 13 15 19 21 24 28 27 29 34 34 37 32 31 33 32 32 33 37 37 36
7 9 7 10 6 5 5 3 1 6 6 4 1 3 7 10 9 8 11 9 3 2 5 6 5 8 9 11 15 18 23 29 31 30 30 30 33 36 35 31 33 33 36 39
17 13 9 9 6 10 7 5 6 4 3 5 7 7 9 12 11 9 9 10 10 4 4 3 2 1 1 3 6 7 6 10 12 16 21 23 24 29 33 31 26 28 31 34
19 1 1 15 12 16 13 8 9 6 2 1 3 5 7 10 11 9 9 8 5 3 2 2 3 4 4 5 8 9 10 12 13 12 11 11 16 16 22 26 28 24 24 33
10 2 3 2 8 14 12 10 8 5 3 3 5 7 7 8 9 9 9 9 8 8 6 5 8 9 8 7 9 11 11 10 11 11 10 10 8 8 13 18 23 25 28 32

GFSCGP_700_spd_102.txt.gz
Wind_Speed
33 34 44 40 37 36 32 22 26 27 18 23 31 42 39 34 36 37 36 35 35 31 28 30 30 26 27 23 20 23 24 23 23 24 21 23 24 24 23 26 27 26 24 21
33 45 41 35 31 33 32 34 36 34 30 30 35 49 42 38 36 36 36 35 36 38 37 37 33 30 29 28 23 20 21 27 25 24 21 23 24 24 24 26 26 25 29 28
30 20 20 32 37 35 34 33 33 31 27 27 31 49 38 31 31 31 31 28 29 33 37 35 35 33 29 31 25 23 20 25 23 24 21 22 24 23 23 24 22 22 29 30
21 25 23 11 25 29 33 31 28 26 24 20 13 12 25 24 20 17 19 19 22 29 33 35 38 35 31 28 28 25 22 25 23 25 23 23 24 23 22 22 20 18 28 31
18 8 14 27 27 12 21 19 13 10 15 19 21 14 2 5 19 27 19 15 26 27 31 30 39 39 31 31 28 26 26 29 26 26 23 23 24 22 23 22 21 19 25 28
28 14 9 11 13 21 17 9 7 11 14 7 15 14 10 11 9 6 24 28 20 29 30 29 36 42 35 29 30 26 26 31 29 25 22 23 23 22 23 20 20 20 20 31
33 37 31 18 10 13 13 12 3 3 3 5 6 12 27 6 17 26 25 27 30 31 33 31 33 36 37 27 26 28 29 31 31 25 21 22 21 21 22 18 18 21 22 25
8 3 18 25 34 20 23 21 9 5 4 3 9 9 11 13 21 28 27 23 23 31 35 34 31 32 39 27 26 25 26 31 29 22 20 20 18 19 18 14 15 19 20 24
2 1 5 2 2 17 28 25 24 22 21 4 9 21 26 27 28 27 26 32 34 36 27 29 31 28 38 30 27 29 28 27 26 20 20 16 16 15 14 11 15 18 20 22
2 2 3 1 2 5 17 11 12 10 3 5 5 8 14 21 25 26 26 28 34 28 25 20 26 26 27 30 33 26 23 23 23 19 17 14 12 11 11 9 11 17 18 15
8 11 9 7 1 3 1 22 15 9 18 4 7 8 11 13 19 22 30 34 43 32 16 7 14 25 30 35 32 26 25 25 24 20 15 12 10 8 7 6 9 11 10 9
2 2 3 11 10 13 19 15 15 11 4 7 14 24 24 24 24 24 29 34 34 29 18 12 10 27 31 39 31 27 24 27 22 18 14 11 8 5 4 4 5 9 11 11
2 3 1 5 10 11 11 11 12 19 17 17 7 8 10 17 22 28 26 26 37 27 23 15 6 25 36 33 30 24 24 28 23 17 14 12 9 6 4 4 4 6 7 12
5 6 7 6 6 5 7 11 9 9 12 14 16 18 12 15 17 16 18 23 29 33 25 28 5 20 27 32 32 31 26 24 21 17 14 13 11 9 6 5 5 7 6 9
3 4 5 5 13 7 10 13 13 7 3 7 8 12 15 15 15 17 18 19 21 27 27 27 13 14 9 22 31 31 27 23 20 18 13 13 12 11 9 8 8 8 8 8
2 8 3 3 2 4 11 12 15 13 16 22 20 23 19 19 14 13 14 16 21 27 31 25 23 8 15 21 25 22 24 22 21 19 16 13 12 12 11 11 11 11 12 11
6 7 8 3 2 9 12 11 10 14 19 17 17 17 15 14 17 19 19 18 20 21 29 25 21 7 6 8 13 20 23 26 18 15 14 12 10 7 7 10 13 14 15 15
6 6 6 5 9 2 3 6 10 10 8 9 9 7 4 8 7 6 10 10 11 14 18 20 19 12 4 7 12 11 11 12 13 20 15 11 9 6 5 7 8 12 17 20
16 14 5 3 4 8 9 7 6 4 4 4 9 4 4 7 12 13 15 17 13 10 11 12 10 12 3 5 7 6 3 7 6 6 6 9 23 19 13 9 9 9 14 17
8 15 12 1 2 3 3 5 1 3 5 4 1 1 2 3 3 9 12 11 12 11 8 10 9 10 10 3 2 4 4 5 4 8 10 13 15 19 19 19 24 27 23 21
3 7 18 15 4 8 9 9 4 4 3 3 3 3 6 2 5 10 12 14 11 14 10 12 10 12 12 11 8 8 10 12 13 13 16 16 17 17 20 23 24 27 29 30
3 2 9 14 7 9 11 8 9 7 9 5 3 1 3 7 8 9 10 13 13 9 14 16 12 11 11 10 12 15 18 19 21 23 26 29 31 32 32 31 30 30 32 32
5 5 6 12 11 13 7 6 8 8 6 5 2 2 4 6 9 10 10 11 14 5 1 5 8 4 2 7 12 13 15 18 22 23 25 30 32 31 30 33 34 33 32 33
15 18 8 18 14 12 9 8 10 9 5 6 7 8 10 8 9 9 8 6 10 6 9 10 9 7 7 5 5 4 4 6 7 8 11 15 23 28 30 30 29 27 29 33
17 16 5 15 14 18 13 10 11 10 5 2 2 4 5 6 7 8 8 6 3 6 3 2 3 1 3 4 5 6 4 4 6 7 7 7 7 8 12 14 17 19 20 21
16 6 5 1 9 10 14 12 11 9 6 4 5 8 9 8 7 8 8 6 4 6 6 6 7 7 7 7 5 5 5 5 5 7 8 7 9 8 7 9 10 14 17 18

GFSCGP_700_spd_105.txt.gz
Wind_Speed
36 36 47 49 45 31 22 20 24 18 15 20 30 35 33 30 31 31 28 28 29 29 27 29 34 31 30 31 29 31 29 34 31 25 23 22 23 23 23 24 22 22 22 22
27 45 43 36 35 33 31 33 30 21 19 22 31 40 39 34 32 29 28 27 27 28 31 36 36 35 33 31 31 31 27 25 26 28 24 24 24 23 23 24 22 22 20 20
37 31 32 37 32 30 31 33 29 27 25 27 30 39 31 20 14 18 17 18 20 24 30 30 33 35 36 34 33 34 31 26 28 26 26 25 24 21 23 24 22 21 21 20
21 33 14 9 30 36 35 34 30 28 18 14 12 11 16 19 19 7 3 8 14 18 19 21 26 30 36 37 37 35 35 32 30 26 26 26 23 22 22 24 23 23 21 20
17 10 21 28 26 16 26 22 19 17 23 21 16 11 5 9 9 14 10 6 14 16 18 21 21 23 30 37 37 36 36 34 29 27 27 26 24 22 23 24 23 22 20 19
24 10 11 13 20 23 7 8 9 9 12 8 15 16 8 10 9 10 5 16 20 22 24 25 25 25 26 34 34 38 37 35 31 28 29 26 22 21 23 23 22 21 19 19
25 24 17 12 9 12 18 15 3 4 5 6 6 14 16 6 8 9 14 21 24 25 26 31 32 25 25 25 30 38 40 34 32 27 29 24 21 21 22 21 20 19 18 18
22 13 34 31 25 17 22 24 7 6 5 1 11 8 6 7 8 13 19 18 21 24 31 35 33 35 29 27 28 38 35 34 34 30 24 23 21 22 19 19 16 15 14 16
8 4 9 5 18 31 23 26 19 5 2 2 8 9 11 17 15 14 13 19 24 28 31 37 42 37 34 29 28 38 33 28 29 31 23 22 21 20 17 17 13 11 13 16
4 4 4 6 10 14 25 17 13 13 4 6 6 9 9 9 12 16 14 21 30 32 32 36 39 40 41 31 32 40 33 27 22 28 24 21 22 18 14 12 9 10 13 15
8 4 7 6 5 11 22 17 9 12 14 3 3 3 2 4 10 20 23 21 30 38 38 44 30 36 39 32 36 41 34 27 24 30 24 21 21 16 11 8 7 9 10 6
6 6 4 4 6 5 5 9 13 10 5 12 12 12 12 12 13 15 22 27 32 34 35 36 25 25 32 33 39 40 33 24 29 31 25 23 19 15 11 6 5 7 7 8
4 4 3 4 4 5 6 7 11 15 12 14 8 4 5 11 15 20 22 23 28 34 36 35 30 6 19 29 37 36 35 26 33 30 24 23 20 15 12 9 6 6 7 8
1 5 5 2 3 4 5 7 10 13 8 8 14 15 13 14 17 18 20 24 28 32 34 36 34 4 12 18 30 34 29 32 33 29 24 22 21 17 13 11 9 7 7 5
2 2 5 8 11 11 12 12 11 10 9 8 7 10 9 15 19 20 24 21 23 30 33 28 31 7 18 24 29 36 28 31 33 28 23 21 20 19 16 13 10 8 7 6
5 3 4 3 8 11 17 15 15 16 17 16 15 18 22 19 23 21 22 24 27 27 29 27 32 26 14 32 31 30 29 32 30 26 23 21 21 19 17 15 13 11 10 8
3 5 7 2 2 5 7 10 12 14 14 16 14 15 17 19 21 20 18 21 21 18 26 24 33 26 13 10 14 30 28 28 27 21 19 18 18 18 17 15 14 13 12 11
3 2 5 3 5 2 5 6 10 9 10 6 10 14 15 14 11 11 13 16 20 21 17 19 27 22 14 13 15 13 20 23 23 24 25 22 19 16 14 12 9 8 10 11
9 11 4 2 4 5 3 6 7 6 4 6 8 9 10 8 11 15 19 21 23 17 17 14 12 10 15 13 21 19 18 20 19 17 23 29 20 20 17 9 7 5 4 6
8 14 11 2 3 1 3 8 3 2 3 5 3 3 2 2 7 10 10 11 14 16 13 13 10 12 9 11 17 14 18 16 11 11 16 13 11 7 20 26 22 20 18 14
3 4 15 11 4 4 6 6 3 3 4 5 4 3 1 2 5 7 8 13 16 12 10 7 11 5 2 2 8 12 11 11 12 15 14 10 10 12 15 17 20 21 24 24
3 1 4 9 5 7 7 6 8 6 4 6 4 3 3 5 7 10 10 10 13 9 9 5 4 3 2 3 3 3 4 6 9 10 12 14 17 20 22 22 22 24 27 30
2 7 5 7 6 9 3 7 8 8 7 5 5 2 4 6 8 10 9 6 9 7 6 9 11 10 9 7 4 3 3 5 9 15 18 19 21 24 27 29 28 28 28 27
13 13 14 8 16 10 8 5 7 8 8 6 6 5 8 9 9 9 8 6 5 5 4 7 8 11 10 9 10 13 9 6 3 1 4 7 9 13 18 22 24 25 25 24
13 18 8 6 11 12 10 11 11 12 10 4 1 2 5 6 7 7 8 6 3 2 3 2 2 2 3 4 5 4 4 3 4 4 4 4 4 6 6 8 12 15 18 16
10 10 2 1 9 13 16 15 12 9 6 4 4 5 6 8 9 9 8 7 6 5 5 4 3 4 6 5 6 6 5 5 5 6 6 6 6 6 6 6 5 5 5 10

GFSCGP_700_spd_108.txt.gz
Wind_Speed
43 33 44 46 37 30 26 19 22 20 16 21 24 27 25 24 24 23 23 23 23 24 23 24 33 32 34 35 35 35 35 33 32 31 31 29 25 23 22 22 24 25 24 24
32 51 39 24 31 28 27 27 29 22 16 17 22 29 26 27 28 26 25 25 25 25 25 32 34 34 33 33 35 36 36 35 34 33 34 32 27 26 24 25 24 24 24 24
34 27 33 29 23 24 26 34 38 25 18 21 24 35 32 30 27 25 25 27 26 27 30 31 30 29 30 33 36 36 36 37 36 34 31 33 32 30 27 23 22 24 25 25
22 17 20 31 30 33 31 27 22 19 15 23 13 14 8 7 10 12 13 15 18 21 21 20 18 22 27 30 33 37 38 39 38 36 30 30 31 29 25 24 24 25 25 26
16 21 20 23 24 24 22 21 21 20 23 21 25 15 18 16 19 13 14 12 11 10 10 13 17 20 24 26 31 34 35 40 39 37 31 30 31 30 29 25 25 26 25 26
10 11 19 24 24 24 13 11 10 10 14 15 25 22 16 16 16 10 12 9 7 11 13 15 17 19 21 26 29 32 35 38 39 38 34 32 32 31 28 26 26 27 26 27
16 13 11 15 17 14 16 20 8 8 8 10 8 17 20 9 12 15 9 6 14 17 16 16 21 23 23 22 28 30 35 35 39 36 36 33 32 31 27 25 26 26 26 27
21 18 20 17 14 16 28 25 10 8 9 11 11 10 9 16 17 13 13 15 14 14 20 23 27 32 30 29 26 29 31 35 39 35 37 36 32 30 26 24 25 25 25 23
21 17 14 22 21 17 18 23 16 7 0 3 12 7 6 15 16 12 11 9 14 16 22 31 30 35 35 31 28 30 29 36 38 38 37 35 32 29 25 23 24 24 23 17
5 11 12 12 16 26 16 19 15 15 6 8 9 13 9 13 12 10 10 9 18 23 25 31 31 28 37 34 30 30 31 37 38 38 40 36 32 29 25 22 22 21 21 15
8 5 12 11 9 20 26 19 17 14 15 4 2 4 6 10 9 9 10 17 20 26 26 30 32 33 32 32 32 32 33 37 38 37 40 36 33 28 24 20 20 19 17 13
7 7 12 10 12 12 17 22 19 14 11 18 15 8 8 8 9 9 13 20 21 23 27 31 36 36 36 37 25 25 28 31 38 34 33 36 33 28 23 20 18 17 13 12
7 4 10 8 9 10 12 15 20 18 13 13 10 4 7 7 6 13 14 13 15 22 29 28 36 36 27 28 24 20 24 29 38 34 32 38 35 28 23 20 19 15 12 10
3 4 3 2 5 8 11 13 14 16 14 13 13 8 5 5 5 8 15 21 25 26 27 33 34 27 26 20 17 20 23 29 34 31 39 41 34 26 24 22 20 16 13 9
1 3 7 7 7 8 6 8 11 13 15 10 6 7 4 5 8 17 21 22 26 25 30 30 32 23 27 17 16 24 22 32 30 36 41 37 30 27 26 25 22 18 15 12
1 1 5 6 8 8 11 13 14 13 11 11 9 10 11 11 20 19 20 23 26 22 23 26 29 24 25 14 12 21 16 15 19 37 39 34 29 27 28 27 24 20 18 16
1 2 3 1 3 5 10 16 16 13 11 9 10 9 16 12 18 19 19 19 19 23 29 25 26 24 23 9 18 15 20 19 29 41 36 29 27 27 28 27 24 21 19 17
7 3 3 2 3 5 2 5 11 12 7 3 7 8 11 14 14 14 17 20 25 27 27 19 21 21 22 19 17 18 21 27 27 32 31 28 26 25 27 28 25 22 20 17
9 6 4 3 6 4 4 4 8 9 4 5 7 5 6 14 10 13 17 21 25 24 19 17 15 19 24 18 19 34 31 28 31 33 31 27 26 26 25 25 22 18 17 16
9 11 8 3 4 2 2 2 9 5 4 4 5 4 6 6 6 12 15 14 17 19 16 14 12 16 20 15 10 23 29 28 31 33 28 27 28 29 25 24 19 13 12 14
1 3 11 11 6 3 5 7 3 5 4 6 5 2 3 5 6 8 10 12 15 18 13 12 13 8 13 16 9 8 26 27 23 23 21 18 30 30 29 27 28 25 22 22
5 4 2 4 4 4 5 4 4 2 2 5 3 3 6 6 7 10 11 10 11 11 6 4 4 5 8 7 7 5 13 13 17 28 22 21 17 18 18 18 22 31 29 29
2 9 7 4 4 11 8 5 5 6 5 5 6 5 7 8 10 12 11 8 8 4 4 10 10 7 1 7 6 9 9 6 12 14 16 17 19 21 23 24 25 26 26 27
10 11 11 8 8 16 10 4 5 6 6 6 5 6 10 11 10 9 9 8 3 7 4 2 4 7 9 10 12 14 11 9 9 10 7 7 9 13 17 21 25 27 28 28
15 11 13 8 10 11 11 9 7 6 7 8 7 2 5 7 7 8 8 8 6 4 6 4 2 1 2 3 5 6 6 9 8 9 7 7 6 3 2 2 4 9 14 17
9 12 5 7 9 10 10 11 12 10 9 10 6 4 6 8 8 8 8 8 8 8 6 6 5 6 7 7 4 2 2 3 2 3 4 4 4 4 4 4 3 1 2 6

GFSCGP_700_spd_111.txt.gz
Wind_Speed
46 43 45 55 48 44 41 22 31 25 28 20 23 27 28 22 23 22 20 21 20 20 20 20 20 29 35 33 34 37 40 40 42 38 36 37 32 32 31 29 25 25 26 25
36 48 58 39 36 38 35 31 32 29 20 18 22 25 24 25 29 28 29 27 24 23 22 22 26 29 39 34 36 37 39 40 42 41 37 36 32 30 31 29 28 28 26 26
46 50 40 36 36 37 37 37 34 28 20 21 23 30 28 28 29 30 31 29 26 24 24 24 24 19 24 30 34 36 37 39 41 41 42 37 34 34 33 31 31 29 26 28
34 33 28 39 37 34 37 32 27 27 23 33 27 25 27 27 20 27 30 28 26 24 24 22 19 14 15 27 31 33 36 40 42 42 44 39 35 34 35 33 32 29 29 28
29 22 31 34 39 28 29 23 23 22 25 23 22 23 28 21 17 17 16 16 17 17 14 15 14 13 13 19 28 30 33 36 38 42 43 39 35 33 34 35 33 32 30 29
17 18 20 24 28 27 19 15 16 18 21 21 30 26 17 22 19 24 21 20 17 14 10 9 9 11 12 15 25 29 31 32 34 37 39 39 36 34 35 36 34 32 30 30
14 13 20 19 23 22 21 22 8 7 10 15 24 27 26 11 18 21 22 18 15 11 7 6 8 10 14 20 25 24 29 32 34 34 38 39 37 37 37 36 34 31 31 30
12 9 15 18 26 24 29 28 9 6 10 13 18 12 19 27 16 14 17 14 11 5 5 6 9 13 20 21 28 29 27 30 35 35 36 39 39 39 39 36 34 30 30 29
16 18 21 16 21 17 27 29 19 6 8 5 13 15 4 17 21 16 14 11 9 7 7 10 13 22 29 28 28 30 29 33 35 37 36 40 40 40 40 36 34 29 30 28
8 10 14 20 18 16 19 21 20 13 5 6 9 14 9 20 19 16 13 11 8 7 10 13 15 26 27 27 26 31 32 35 36 38 38 41 40 39 40 36 31 29 28 27
7 9 10 20 24 28 22 20 22 17 18 5 7 1 10 18 17 12 9 8 8 12 13 15 21 27 28 29 28 28 32 38 39 37 38 42 41 40 39 35 30 29 27 25
2 11 22 21 16 18 32 23 24 17 17 17 15 3 9 15 13 9 8 7 9 12 18 22 28 28 33 34 30 28 32 30 32 35 37 40 38 41 40 34 31 28 26 24
6 3 5 7 8 11 21 24 21 19 13 10 11 11 10 11 10 5 7 12 15 18 23 25 27 28 30 36 29 23 30 25 29 32 34 36 39 42 40 35 31 28 25 22
6 8 6 5 4 13 17 20 21 18 15 16 16 13 16 13 10 11 15 16 16 21 22 24 26 28 29 33 29 26 24 24 26 27 32 34 40 44 39 34 31 27 24 20
8 7 7 5 10 2 6 13 14 17 17 14 8 10 12 6 8 14 18 18 20 21 21 22 25 26 26 28 29 23 21 24 24 26 34 34 38 43 40 34 31 29 23 21
9 6 10 9 7 6 7 8 10 13 14 15 16 12 2 11 20 19 17 17 19 19 22 25 28 27 26 28 27 22 21 24 27 28 35 38 41 44 39 34 32 29 24 22
8 9 8 3 2 4 10 14 15 13 13 13 17 9 2 11 16 20 16 15 20 22 26 27 25 24 25 27 23 22 19 22 26 28 31 36 42 43 37 33 32 29 25 24
9 9 6 7 2 5 2 2 8 11 8 5 5 4 4 14 15 11 13 17 20 24 25 25 20 20 23 26 28 23 24 23 20 21 28 36 41 36 29 32 32 29 27 26
11 4 6 5 7 7 4 1 3 5 10 10 8 6 2 9 10 8 12 17 21 23 25 23 17 20 20 24 27 20 26 26 27 25 28 32 33 33 36 33 32 30 28 26
9 9 9 6 5 2 10 2 13 7 4 3 10 7 7 9 8 12 12 15 18 20 20 17 16 17 17 23 22 18 18 29 29 31 31 36 38 35 32 31 32 30 29 28
1 5 12 12 9 2 11 10 5 5 3 6 7 4 3 5 7 8 11 13 15 16 14 14 14 14 15 18 16 11 3 20 31 31 39 37 38 35 32 26 26 26 23 19
5 5 3 5 6 3 8 7 4 7 3 4 3 3 6 7 8 10 13 13 11 9 10 10 12 13 11 13 13 12 6 7 12 20 25 24 34 31 27 33 32 26 21 27
2 8 8 6 9 12 13 10 6 7 6 5 5 5 6 8 10 12 12 13 9 9 8 8 8 10 13 14 14 14 16 12 8 20 21 11 15 16 20 26 23 25 34 32
10 12 7 11 9 11 11 10 7 9 8 6 6 6 7 7 8 9 9 10 10 7 10 9 5 7 8 10 14 17 20 19 17 17 12 4 17 23 21 23 23 24 24 25
13 11 15 14 10 11 11 10 9 8 5 7 9 7 5 7 8 8 8 8 10 10 7 7 9 7 9 8 9 10 12 13 14 14 14 10 6 2 1 10 19 24 26 26
11 11 15 11 14 13 13 11 8 9 10 9 10 9 6 7 7 7 8 9 9 10 10 8 7 8 9 10 9 6 5 6 5 5 5 6 6 5 4 5 3 4 7 9

GFSCGP_700_spd_114.txt.gz
Wind_Speed
35 43 56 51 53 58 44 39 36 36 33 35 41 44 40 35 32 29 27 29 23 21 20 25 31 35 30 29 37 36 33 35 42 41 36 36 36 36 32 31 32 30 29 24
40 50 52 52 49 40 42 41 40 28 28 17 23 28 21 28 30 32 26 28 28 24 23 22 21 27 32 36 39 43 45 43 43 41 38 36 35 37 33 31 32 34 30 27
41 33 44 47 45 45 41 41 37 39 22 5 14 27 22 23 25 29 30 27 28 28 24 22 22 33 34 39 39 42 41 40 40 40 41 42 42 39 35 32 32 34 31 30
27 41 41 40 45 43 42 35 36 32 23 7 13 11 24 23 27 28 32 33 26 29 26 23 26 34 30 32 40 44 42 39 38 41 41 45 42 38 35 35 32 36 34 32
27 17 35 39 39 41 38 30 32 23 15 11 16 17 38 30 30 29 38 32 38 30 25 25 24 22 15 12 18 26 28 32 36 38 41 45 42 40 37 37 36 37 38 35
27 12 17 38 32 36 30 12 13 13 11 10 31 25 28 31 38 25 24 25 27 28 28 27 22 16 16 12 22 28 26 28 32 34 36 41 39 39 38 37 38 36 39 36
24 12 9 13 21 31 20 19 6 5 9 13 17 24 37 15 20 29 21 24 27 24 19 17 14 11 19 21 16 21 26 27 29 32 36 39 38 37 36 37 38 37 38 37
26 15 18 19 22 26 23 27 10 7 7 10 23 15 37 31 13 23 23 30 23 19 17 14 15 20 22 28 27 25 27 28 29 32 35 38 39 35 36 37 40 37 37 34
15 0 11 10 20 26 28 32 21 3 8 5 13 20 3 25 13 22 19 23 21 16 11 15 11 20 29 24 25 27 30 33 29 33 37 40 35 38 37 39 40 38 36 34
10 13 12 11 18 17 24 24 22 11 3 3 6 21 5 12 23 19 20 15 15 14 12 11 16 23 25 25 26 29 31 34 32 34 36 43 34 38 38 40 40 39 37 34
15 10 6 12 14 16 14 24 21 16 16 2 1 2 11 15 19 25 17 12 14 14 14 15 22 27 25 31 27 27 29 32 33 34 36 42 36 38 38 41 40 40 37 34
10 10 8 9 18 17 16 16 22 14 12 11 2 3 6 14 22 19 16 18 21 14 15 18 25 28 30 29 27 25 25 29 30 33 34 35 35 38 39 40 39 40 35 33
12 5 8 13 8 18 21 23 17 18 15 7 5 3 4 12 19 13 22 20 21 20 19 23 27 29 29 28 28 28 27 25 31 32 29 31 34 38 40 38 43 40 35 32
14 10 9 8 14 7 8 22 22 16 15 12 9 5 6 10 13 19 21 18 20 20 22 26 26 27 27 28 31 32 31 27 30 27 28 29 35 38 39 43 42 38 35 30
17 9 12 19 13 13 5 9 7 21 16 13 9 4 9 22 20 9 12 14 17 20 20 22 25 27 28 30 28 30 34 29 29 28 24 28 32 35 38 43 44 36 34 29
16 10 14 18 9 3 4 10 10 7 14 8 7 7 5 10 6 6 16 16 18 20 19 22 25 26 26 25 25 29 30 30 24 28 23 26 28 32 39 44 43 37 33 28
13 11 15 5 12 8 3 5 5 6 2 4 3 4 10 3 8 13 13 14 16 16 19 21 23 23 21 21 24 28 26 26 23 28 25 24 26 34 42 42 42 39 32 28
9 10 8 9 9 1 5 3 4 5 4 3 8 6 1 6 12 14 12 12 16 18 20 22 24 23 19 18 23 28 30 27 19 25 24 22 26 34 40 40 43 38 32 29
9 6 6 6 11 5 15 16 9 5 4 3 4 7 7 10 11 8 11 14 17 18 20 20 21 20 21 22 25 33 34 29 22 26 27 26 28 33 36 40 39 33 31 30
6 7 7 12 6 3 11 12 11 6 1 4 1 4 6 8 6 10 11 14 15 16 15 15 17 19 22 22 23 29 30 22 18 26 25 29 32 34 32 34 34 33 32 31
5 5 9 11 7 2 13 11 6 2 7 8 3 4 0 3 4 7 10 13 13 10 10 13 16 20 23 23 23 23 19 14 8 23 29 29 33 36 36 34 31 30 32 31
6 7 10 10 5 1 14 7 6 5 12 12 8 5 4 4 5 8 10 10 10 10 12 13 15 17 20 21 21 19 19 10 13 3 16 30 37 38 40 36 38 35 34 30
4 8 5 6 7 10 13 10 2 5 9 12 9 7 6 7 7 8 8 9 9 8 10 14 12 14 15 15 17 21 22 24 23 16 3 7 16 24 39 38 39 37 28 26
10 12 6 8 10 12 11 8 6 8 11 10 7 6 6 6 7 7 8 9 10 10 7 8 13 13 15 15 14 14 18 21 23 24 20 15 6 7 19 21 29 35 35 28
9 13 14 9 14 18 12 9 9 9 9 7 9 9 6 6 6 7 7 8 10 10 9 7 6 10 13 13 16 17 14 13 14 17 21 18 15 19 14 4 8 11 11 15
7 14 17 12 16 16 11 9 10 10 10 10 11 11 9 6 7 7 7 9 9 10 9 8 8 8 9 12 15 16 15 14 11 11 8 13 14 13 11 11 9 7 3 4

GFSCGP_700_spd_117.txt.gz
Wind_Speed
34 32 40 44 53 46 41 32 40 41 36 31 41 53 47 34 34 33 41 38 37 31 30 25 23 33 33 31 31 38 39 35 34 35 39 41 33 33 36 33 28 27 25 26
31 45 45 45 48 46 44 43 37 36 31 38 44 30 47 44 39 42 34 33 37 30 25 25 26 28 29 36 37 37 39 39 37 39 42 45 40 31 35 34 34 30 27 27
30 45 34 38 45 45 48 43 36 33 30 17 21 29 32 30 38 34 40 34 28 30 30 21 25 28 35 41 38 36 40 40 40 41 42 46 44 37 34 34 32 31 30 28
19 29 36 42 48 40 41 45 36 39 36 14 15 6 23 41 33 22 25 28 32 30 31 30 26 27 31 35 37 41 44 45 42 43 44 47 45 41 36 34 33 34 32 31
33 39 40 32 37 31 41 40 34 38 35 15 7 6 26 24 39 36 29 32 29 21 31 34 30 27 26 37 42 44 46 47 48 48 49 51 49 42 37 36 34 34 35 32
31 32 31 21 25 29 37 41 30 22 15 3 17 18 18 24 42 36 31 36 30 22 18 25 24 22 33 32 36 44 47 47 47 50 45 42 40 40 39 38 36 35 37 36
32 40 30 15 15 25 36 31 9 2 2 4 14 16 30 11 30 32 34 29 26 28 34 24 32 36 29 27 26 32 35 34 34 33 36 40 42 40 40 39 36 36 38 38
18 33 29 9 4 17 31 27 9 2 5 4 9 11 20 17 22 14 21 28 28 30 35 36 37 33 28 27 24 20 25 25 26 29 32 35 38 41 42 39 36 36 38 37
16 18 16 17 9 7 24 23 18 1 3 3 11 13 8 14 13 14 22 32 27 29 29 27 31 35 29 29 23 27 29 30 31 34 34 37 41 42 41 40 39 37 36 37
15 17 25 11 4 13 21 26 13 4 1 4 5 9 10 7 21 29 35 33 25 27 31 31 28 26 26 30 30 32 31 30 31 35 37 38 41 45 40 37 40 39 35 37
18 10 18 16 3 6 13 19 7 5 7 1 2 4 10 9 28 23 29 29 24 22 21 20 24 28 26 27 28 28 27 28 30 34 36 37 37 42 37 38 38 39 35 39
24 7 20 16 12 5 7 20 17 8 5 4 9 3 9 9 25 26 32 22 16 19 18 18 18 19 21 26 30 29 28 29 29 31 33 36 36 37 36 38 39 36 37 38
29 12 12 17 11 8 14 10 20 18 12 5 3 6 5 13 18 17 20 23 23 21 17 14 22 25 27 30 29 29 30 31 31 31 34 34 33 33 31 32 36 36 37 36
21 12 9 6 14 21 20 9 15 16 11 6 2 6 9 13 15 5 21 19 13 12 13 17 20 27 33 33 31 30 30 33 33 33 33 33 31 30 35 35 37 33 38 38
16 17 17 16 17 18 4 8 4 10 5 9 4 5 3 7 8 14 11 2 8 11 17 23 25 27 29 30 29 30 31 32 32 32 31 29 29 25 32 37 35 34 33 45
13 15 20 14 13 4 11 0 8 5 5 6 3 10 10 10 7 4 5 11 15 20 21 23 23 25 27 28 28 28 26 26 30 31 27 28 22 24 26 30 33 35 42 45
9 14 18 7 14 9 12 11 7 18 10 1 4 6 5 10 7 7 3 10 13 12 12 16 18 21 25 27 26 24 24 27 29 29 27 23 23 23 25 27 33 40 41 43
8 10 9 10 19 3 11 20 20 21 24 23 13 9 5 11 9 8 5 8 10 12 13 15 16 18 21 22 21 22 24 27 28 28 24 19 27 23 24 24 31 38 39 36
7 6 6 6 14 3 22 16 14 16 18 15 13 8 6 7 7 4 7 8 10 11 13 14 15 18 20 22 23 26 27 28 28 26 20 24 28 26 25 26 37 37 36 40
6 4 4 9 4 4 17 10 4 6 15 13 6 5 5 5 6 6 8 10 12 11 12 14 15 18 21 24 25 26 29 26 27 24 18 27 27 29 29 33 27 35 41 40
15 8 11 9 2 3 19 15 4 5 7 15 15 9 4 2 4 6 9 10 11 12 12 15 15 16 18 20 24 25 26 26 20 19 15 24 28 29 34 31 33 33 34 33
10 6 8 8 7 4 19 13 11 6 5 10 15 10 7 6 6 7 9 10 10 10 10 12 13 14 16 18 19 21 25 26 29 16 13 12 25 30 34 39 34 36 32 36
7 12 5 7 3 11 14 7 2 5 9 10 10 10 7 8 7 7 8 9 9 10 7 8 10 11 15 16 19 20 19 21 26 27 22 13 6 27 38 41 40 37 36 33
9 11 11 4 8 11 10 7 6 9 11 11 9 8 9 8 8 8 8 9 9 9 9 8 10 11 13 15 17 20 18 18 17 21 24 23 16 1 26 38 39 38 36 35
10 8 9 5 9 13 10 10 8 6 8 9 7 9 10 11 10 8 8 8 9 9 9 10 10 12 13 15 15 15 14 16 16 15 17 17 20 21 10 13 23 33 37 31
6 9 10 6 9 9 9 8 7 6 7 9 11 10 10 9 8 6 8 8 9 10 10 10 11 12 12 13 13 13 13 14 10 14 15 14 14 13 16 12 16 10 13 14

GFSCGP_700_spd_120.txt.gz
Wind_Speed
25 26 35 37 39 43 42 42 38 48 48 35 44 38 46 44 48 37 41 49 48 51 54 52 50 46 45 44 45 41 43 35 33 33 32 33 33 31 29 27 28 30 28 25
23 27 18 20 26 36 40 41 44 43 48 31 31 44 39 41 44 51 39 43 41 42 42 38 37 36 34 40 48 45 40 38 36 33 31 33 32 31 30 28 26 31 32 29
22 29 20 24 28 32 44 53 44 36 39 41 29 37 41 43 37 46 43 41 38 31 33 32 27 33 30 34 39 38 37 38 40 37 33 33 37 36 35 35 31 29 31 29
19 21 26 28 37 34 48 40 40 35 33 23 21 10 33 32 37 33 44 43 36 38 30 31 32 32 32 35 35 38 38 38 39 40 39 41 41 40 38 38 36 34 32 31
33 31 32 36 40 35 42 31 34 29 36 29 31 11 31 20 37 40 37 35 37 35 34 29 33 32 36 43 48 43 44 42 41 44 42 41 42 42 41 43 44 43 36 33
28 30 26 41 35 35 20 8 19 26 22 17 32 21 25 21 26 39 37 28 24 23 25 31 33 34 36 42 42 41 40 38 38 39 37 41 44 47 48 49 51 47 39 35
24 15 21 18 19 8 9 11 1 6 7 7 29 18 34 7 19 26 43 35 22 17 19 28 35 33 33 34 37 38 34 32 31 30 36 35 40 45 49 51 46 43 38 37
17 18 20 32 23 8 11 19 8 4 3 4 16 12 17 8 12 15 17 30 15 32 25 27 29 35 34 32 32 37 42 43 43 39 42 46 45 49 46 44 44 42 41 40
14 16 34 24 13 5 8 20 18 11 12 2 12 8 5 9 7 8 18 19 24 26 29 36 29 28 34 36 32 30 30 34 39 39 39 43 44 43 42 42 44 43 39 37
17 16 18 32 3 1 10 20 9 8 2 3 0 5 8 11 20 24 24 32 35 41 40 34 33 34 29 25 21 18 20 24 31 38 39 42 47 46 43 46 47 44 41 38
24 12 21 17 8 14 8 9 3 5 3 3 3 3 2 10 29 35 39 37 35 36 34 26 25 26 23 22 25 29 31 32 36 36 40 44 46 45 43 45 47 43 39 38
23 9 20 14 8 7 9 7 7 1 3 3 3 4 15 22 27 34 33 32 36 33 25 18 13 15 14 20 27 31 34 31 32 33 34 36 38 40 41 42 40 39 40 39
22 13 12 11 7 17 15 10 15 11 8 7 3 3 24 21 24 25 15 17 22 31 32 17 11 13 18 23 27 29 32 33 32 33 34 35 36 37 37 39 38 38 42 39
14 11 12 10 20 21 17 20 16 7 6 4 4 9 14 9 22 20 20 18 14 12 12 10 13 17 20 24 27 29 31 33 34 35 36 36 33 34 33 35 37 32 37 33
12 10 19 19 15 19 13 10 11 4 3 6 5 4 6 8 4 4 7 11 10 3 2 7 12 19 24 25 27 28 30 30 32 33 34 33 33 33 32 34 34 36 38 35
12 12 21 15 12 14 22 11 7 10 13 14 9 12 7 13 16 18 16 13 9 11 11 14 16 18 19 20 22 25 27 28 30 32 34 35 35 32 29 31 28 35 37 35
12 13 21 8 24 9 23 26 23 22 11 9 7 10 8 14 9 7 5 6 7 9 8 9 11 14 16 17 20 23 25 27 30 32 34 36 36 32 30 28 24 27 30 33
9 11 11 12 20 3 5 17 21 27 23 19 16 11 10 10 9 7 4 1 5 5 6 7 8 10 11 14 18 20 22 25 28 30 33 35 35 32 30 26 24 25 27 34
8 7 7 7 11 2 22 23 15 11 21 20 16 6 7 5 1 0 2 3 4 5 6 8 9 11 14 16 19 21 23 23 24 26 25 27 29 26 26 24 23 24 31 38
4 3 4 5 3 5 18 15 1 3 18 16 14 7 4 5 5 4 5 7 9 10 10 11 13 12 14 17 18 22 24 28 28 30 26 23 20 21 26 28 24 22 27 41
8 9 12 10 3 1 21 14 3 4 6 12 11 9 4 3 5 7 9 9 10 10 10 8 10 10 11 14 18 22 24 26 30 29 29 24 20 22 26 28 26 30 34 42
10 6 8 7 4 4 16 9 4 3 6 11 13 10 6 6 8 9 10 11 11 11 11 10 9 9 11 14 16 21 23 24 27 30 30 29 22 17 25 29 29 30 34 36
6 7 7 2 2 8 13 6 2 4 8 13 14 13 10 7 7 9 10 11 11 12 12 12 13 11 13 15 18 21 20 21 25 25 29 30 33 16 18 27 29 36 34 32
6 5 6 2 7 10 7 5 6 9 11 11 11 12 12 11 8 8 9 10 11 12 12 12 14 15 15 17 19 20 20 17 21 27 27 26 31 26 12 16 29 41 36 37
5 3 6 4 10 10 8 8 7 8 9 10 9 11 12 12 12 9 8 10 10 11 12 12 13 15 15 16 17 17 18 17 16 18 26 25 25 30 19 6 16 31 38 40
0 4 6 5 7 7 9 9 8 8 8 10 11 11 12 11 10 9 9 9 11 12 12 12 12 13 14 14 15 16 16 16 14 13 13 22 23 25 27 22 6 9 18 25

GFSCGP_700_spd_123.txt.gz
Wind_Speed
18 20 25 23 18 22 29 32 37 40 40 55 58 57 50 57 48 39 40 50 56 54 53 41 43 38 40 39 37 37 36 33 35 35 34 34 35 34 31 29 28 25 25 27
18 25 15 19 22 23 29 37 42 42 45 44 54 51 45 50 48 42 43 44 48 45 47 41 45 46 43 42 41 42 43 39 38 39 39 34 30 32 33 32 29 29 25 25
19 21 18 20 25 28 38 39 42 44 50 43 42 57 49 43 42 46 40 43 46 36 33 41 43 42 40 43 47 49 48 45 41 40 41 37 35 34 36 37 33 28 24 23
13 20 25 28 32 29 41 33 38 43 40 24 22 23 31 42 33 40 40 40 41 45 33 34 33 35 44 39 38 43 45 41 47 47 43 37 37 36 38 33 30 32 29 28
19 24 23 24 24 27 41 32 31 24 23 28 39 24 33 30 28 28 24 27 37 38 39 36 39 32 39 44 38 41 44 41 40 39 40 44 43 39 35 36 37 38 36 33
27 17 18 18 26 21 19 20 17 15 20 11 41 12 27 29 20 25 26 23 25 33 33 37 38 40 33 40 41 42 40 42 42 41 40 39 44 41 40 39 40 39 40 39
24 21 14 17 28 26 12 6 4 4 3 6 10 13 36 6 17 13 21 30 23 19 28 31 33 37 35 41 42 48 42 38 38 38 37 39 41 44 40 39 39 40 42 42
18 20 15 16 24 23 17 12 6 4 3 6 8 9 16 12 10 4 9 20 21 20 25 33 33 36 35 33 33 35 36 37 37 35 35 34 34 35 35 38 41 42 45 45
14 17 31 17 27 15 3 15 14 12 22 6 6 7 6 10 8 15 18 25 29 28 34 34 36 33 30 30 29 27 27 28 30 31 29 29 30 32 38 42 44 42 47 44
21 25 11 28 9 11 12 4 3 9 5 4 3 4 7 7 25 30 39 39 38 37 30 25 26 25 24 26 26 23 23 22 23 25 28 34 38 40 44 45 46 49 47 48
15 12 24 20 12 16 15 14 7 8 7 4 3 4 7 15 18 27 38 40 43 45 41 33 31 31 30 30 27 25 28 33 33 32 36 37 41 50 54 56 54 52 50 51
11 10 17 19 7 14 10 6 12 6 6 7 9 3 16 22 30 34 33 30 28 29 30 32 27 28 26 25 22 23 25 25 28 33 37 39 43 46 47 47 45 48 50 48
16 8 12 13 10 13 24 15 16 10 10 3 4 4 8 19 31 29 29 33 32 31 28 29 25 19 12 11 13 16 20 25 31 33 34 34 37 39 41 41 42 44 45 43
13 11 10 9 24 29 25 12 11 4 4 6 0 7 11 17 21 13 11 15 15 15 17 19 16 12 12 10 14 19 26 31 31 31 32 34 35 35 36 37 37 39 41 40
18 12 13 19 7 24 10 9 6 12 12 3 10 13 13 19 19 18 21 16 7 7 14 13 7 10 7 13 20 26 27 29 29 30 31 32 33 33 33 32 33 35 37 38
13 9 18 1 13 8 32 25 13 9 14 11 10 16 10 10 10 12 17 20 15 15 11 6 2 3 7 12 14 16 20 24 25 27 29 31 33 35 34 34 35 35 34 34
7 12 19 7 18 4 10 22 25 24 12 5 9 11 8 9 10 10 11 12 14 11 11 7 6 5 5 7 10 12 15 18 22 25 28 31 34 35 36 35 34 35 33 32
8 9 8 9 10 4 7 17 9 17 21 19 13 11 9 9 12 14 12 11 9 7 6 6 5 5 7 8 10 12 15 18 21 24 27 30 33 35 36 35 35 35 33 31
8 6 5 6 6 2 11 17 9 11 21 19 11 4 3 7 8 8 9 8 9 10 8 6 5 5 7 9 11 13 15 19 22 25 28 29 29 30 33 35 34 33 30 27
7 6 3 6 3 2 16 8 1 4 12 16 16 13 8 6 4 7 8 9 10 10 9 9 9 9 9 9 11 13 16 18 22 25 28 29 32 29 26 30 31 28 31 25
2 4 8 7 1 2 17 11 1 3 5 12 14 13 8 8 9 9 9 9 9 10 11 12 12 12 11 12 15 17 19 19 22 27 27 29 29 34 29 25 26 27 28 27
9 6 5 5 3 3 14 6 2 1 6 12 14 14 11 9 10 10 10 9 9 10 11 11 12 13 14 15 16 18 20 20 20 27 29 31 30 35 34 25 26 27 29 27
2 6 5 2 3 9 11 8 4 6 11 15 17 17 13 11 10 11 11 11 10 9 10 11 12 14 13 13 15 17 19 21 19 21 29 31 31 33 39 23 22 23 26 27
7 6 7 4 5 10 8 9 10 10 12 12 14 15 15 14 12 11 13 14 13 12 12 12 12 14 15 16 17 18 19 19 20 20 20 29 31 30 35 29 14 17 25 27
6 4 7 6 6 6 6 8 9 10 11 11 11 13 14 16 16 14 12 12 14 14 14 14 15 15 16 17 17 18 19 19 20 20 19 19 27 29 30 35 24 14 13 22
5 4 6 5 5 6 7 8 8 9 10 11 12 12 13 14 16 16 16 15 14 16 16 15 15 15 16 16 16 17 17 17 18 18 18 18 18 25 26 29 31 17 9 4